Date StartTime U_cm/s V_cm/s W_cm/s Ustd_cm/s Vstd_cm/s Wstd_cm/s Uvar_(cm/s)^2 Vvar_(cm/s)^2 Wvar_(cm/s)^2 KE_(m/s)^2 TurbulentKE_(m/s)^2 HorizWindSpeed_cm/s FrictionSpeec_cm/s DragCoef SpeedOfSound_m/s SonicTemperature_C Pressure_mb 
12/14/2014  00:00:00      -98.273      -30.483       -7.218       27.772       16.281       12.898      771.288      265.073      166.366        0.592        0.060      102.893       14.579        0.020      331.364       -0.669      863.272
12/14/2014  00:01:00      -85.299      -24.315       -6.351       16.721       22.215       12.649      279.590      493.487      159.995        0.442        0.047       88.697        8.019        0.008      331.402       -0.605      863.273
12/14/2014  00:02:00      -81.758      -31.353       -4.456       21.212       18.053       12.540      449.963      325.907      157.245        0.431        0.047       87.564       11.970        0.019      331.405       -0.602      863.270
12/14/2014  00:03:00      -77.205      -16.516       -6.948       25.132       19.012       10.919      631.597      361.466      119.233        0.370        0.056       78.952       11.819        0.022      331.369       -0.661      863.260
12/14/2014  00:04:00      -71.153      -15.822       -2.852       25.511       18.968       12.850      650.819      359.799      165.131        0.325        0.059       72.891        8.915        0.015      331.357       -0.680      863.253
12/14/2014  00:05:00      -72.411      -14.058       -8.515       23.722       12.432       11.367      562.744      154.559      129.212        0.318        0.042       73.763        9.023        0.015      331.369       -0.661      863.241
12/14/2014  00:06:00      -51.196      -16.187       -2.433       14.939       13.603        8.403      223.160      185.030       70.609        0.168        0.024       53.694        5.454        0.010      331.446       -0.533      863.224
12/14/2014  00:07:00      -11.459      -19.149        1.553       13.104       10.490        9.431      171.702      110.033       88.937        0.044        0.019       22.316        4.918        0.049      331.476       -0.485      863.212
12/14/2014  00:08:00      -21.447      -13.260        0.845       18.880        6.951        6.285      356.440       48.322       39.506        0.054        0.022       25.215        4.377        0.030      331.507       -0.434      863.205
12/14/2014  00:09:00      -50.169      -24.131       -6.952        7.680        7.307        6.876       58.980       53.391       47.283        0.165        0.008       55.671        2.596        0.002      331.528       -0.398      863.203
12/14/2014  00:10:00      -46.154      -22.372       -2.884        8.670        9.527       10.185       75.162       90.757      103.734        0.145        0.013       51.290        7.023        0.019      331.542       -0.378      863.198
12/14/2014  00:11:00      -64.437      -28.775       -7.307       11.019       10.258        6.414      121.429      105.230       41.139        0.265        0.013       70.570        4.376        0.004      331.507       -0.433      863.196
12/14/2014  00:12:00      -79.899      -26.758       -7.666       10.900       13.504        7.669      118.820      182.357       58.820        0.376        0.018       84.261        2.353        0.001      331.441       -0.544      863.190
12/14/2014  00:13:00      -55.168      -27.308        4.101       27.243       16.531       14.360      742.158      273.276      206.219        0.251        0.061       61.557       14.679        0.057      331.383       -0.638      863.180
12/14/2014  00:14:00      -42.789      -32.062       -5.048       19.789       13.880       10.625      391.612      192.657      112.881        0.179        0.035       53.468        8.543        0.026      331.453       -0.522      863.162
12/14/2014  00:15:00      -59.585      -44.845       -8.371       18.611       12.544       10.266      346.368      157.352      105.382        0.312        0.030       74.575        6.869        0.008      331.509       -0.430      863.144
12/14/2014  00:16:00      -48.296      -38.193      -10.258       18.026       14.948       11.573      324.942      223.446      133.938        0.229        0.034       61.573        9.060        0.022      331.498       -0.449      863.129
12/14/2014  00:17:00      -77.489      -13.816      -10.849       13.541       16.378       12.287      183.371      268.245      150.968        0.346        0.030       78.711        5.680        0.005      331.457       -0.516      863.119
12/14/2014  00:18:00      -70.719       -4.205       -5.235       22.296       16.254       13.315      497.123      264.180      177.279        0.299        0.047       70.844       12.281        0.030      331.429       -0.562      863.115
12/14/2014  00:19:00      -80.178      -16.527       -5.387       20.693       17.784       13.331      428.218      316.277      177.715        0.383        0.046       81.863       13.223        0.026      331.455       -0.521      863.114
12/14/2014  00:20:00      -63.357       -2.347       -5.865       15.810       14.643       12.669      249.951      214.407      160.501        0.234        0.031       63.400        8.965        0.020      331.399       -0.611      863.117
12/14/2014  00:21:00      -52.355      -14.382       -9.226       12.609        7.431        7.081      158.993       55.217       50.137        0.165        0.013       54.295        4.535        0.007      331.463       -0.506      863.111
12/14/2014  00:22:00      -45.075      -17.132       -4.716       11.654       11.563        5.653      135.825      133.696       31.959        0.132        0.015       48.221        4.510        0.009      331.505       -0.436      863.094
12/14/2014  00:23:00      -36.970      -10.836       -4.204        9.826       13.299        5.286       96.558      176.871       27.939        0.090        0.015       38.526        4.663        0.015      331.457       -0.514      863.063
12/14/2014  00:24:00       13.073        6.390       15.190       15.208       12.648        9.706      231.291      159.967       94.212        0.046        0.024       14.551       11.210        0.593      331.307       -0.761      863.051
12/14/2014  00:25:00       21.539       36.538        4.036       10.857       10.325        8.880      117.867      106.605       78.862        0.106        0.015       42.414        6.984        0.027      331.158       -1.008      863.049
12/14/2014  00:26:00      -16.986        2.258       -6.566       14.199       16.470        7.904      201.608      271.264       62.479        0.044        0.027       17.135       10.668        0.388      331.332       -0.720      863.056
12/14/2014  00:27:00      -39.532      -10.434       -2.173       15.683        9.126        6.742      245.953       83.292       45.456        0.103        0.019       40.886        6.083        0.022      331.325       -0.733      863.071
12/14/2014  00:28:00      -64.609      -23.115       -7.164       17.684       11.716        8.333      312.737      137.268       69.433        0.264        0.026       68.620        7.676        0.013      331.352       -0.689      863.094
12/14/2014  00:29:00      -51.350      -19.830        0.894       24.079       18.227       10.443      579.787      332.207      109.063        0.203        0.051       55.046       11.441        0.043      331.340       -0.708      863.118
12/14/2014  00:30:00      -73.585      -25.956       -2.990       18.641       19.065       12.419      347.492      363.483      154.220        0.348        0.043       78.029        9.962        0.016      331.384       -0.634      863.132
12/14/2014  00:31:00      -51.087      -31.160        2.128       24.522       24.182       16.468      601.315      584.772      271.179        0.252        0.073       59.840       13.801        0.053      331.354       -0.685      863.150
12/14/2014  00:32:00      -70.175      -39.894       -0.653       22.359       22.843       14.043      499.924      521.825      197.193        0.387        0.061       80.722        9.119        0.013      331.405       -0.602      863.162
12/14/2014  00:33:00      -79.317      -43.465       -1.245       12.644       13.202        9.856      159.870      174.301       97.135        0.431        0.022       90.445        8.523        0.009      331.389       -0.626      863.163
12/14/2014  00:34:00      -63.758      -37.204      -15.901       19.571       19.854       10.862      383.026      394.170      117.974        0.330        0.045       73.819        7.565        0.011      331.398       -0.612      863.160
12/14/2014  00:35:00      -50.854      -34.228       -0.995       26.856       14.399       12.237      721.231      207.328      149.750        0.242        0.054       61.300       15.322        0.062      331.387       -0.630      863.159
12/14/2014  00:36:00      -63.269      -28.225       -1.732       19.796       15.985       13.301      391.884      255.516      176.909        0.281        0.041       69.279       12.069        0.030      331.331       -0.722      863.156
12/14/2014  00:37:00      -54.740      -28.878       -0.630       21.513       19.059       17.381      462.828      363.230      302.103        0.248        0.056       61.891       13.433        0.047      331.292       -0.786      863.150
12/14/2014  00:38:00      -27.079      -14.418        3.325       26.053       16.422       14.465      678.780      269.686      209.242        0.105        0.058       30.678       16.484        0.289      331.269       -0.824      863.133
12/14/2014  00:39:00      -47.187      -12.912       -3.458       15.629       12.719       11.156      244.261      161.785      124.466        0.147        0.027       48.921        9.608        0.039      331.334       -0.717      863.128
12/14/2014  00:40:00      -53.709      -10.621       -8.453        6.781        7.841        6.958       45.983       61.477       48.414        0.161        0.008       54.749        4.377        0.006      331.365       -0.666      863.118
12/14/2014  00:41:00      -29.078      -25.733       -8.347       11.273        9.356        7.530      127.071       87.532       56.706        0.092        0.014       38.830        6.441        0.028      331.376       -0.648      863.108
12/14/2014  00:42:00      -21.598      -12.705       -1.626       12.666        9.509        8.343      160.437       90.418       69.609        0.048        0.016       25.058        8.220        0.108      331.343       -0.701      863.103
12/14/2014  00:43:00       10.146        3.326        3.280       11.504       12.479        8.872      132.352      155.737       78.709        0.025        0.018       10.677        8.741        0.670      331.326       -0.729      863.107
12/14/2014  00:44:00       20.341       22.949        1.628       13.866       10.588        8.326      192.279      112.100       69.314        0.066        0.019       30.666        7.559        0.061      331.277       -0.809      863.102
12/14/2014  00:45:00       16.183       21.792       -1.641        9.193       14.477        8.872       84.504      209.570       78.707        0.056        0.019       27.144        9.437        0.121      331.171       -0.986      863.087
12/14/2014  00:46:00       25.789       20.785       -5.586       14.868       13.682        8.702      221.061      187.198       75.719        0.081        0.024       33.123        4.421        0.018      331.131       -1.052      863.066
12/14/2014  00:47:00       37.070       35.506       -0.917       13.001       13.249       14.435      169.029      175.534      208.358        0.159        0.028       51.331       10.925        0.045      331.042       -1.199      863.047
12/14/2014  00:48:00       36.137       31.004       -2.737        9.181       10.432       11.337       84.285      108.822      128.520        0.130        0.016       47.614        8.932        0.035      331.035       -1.211      863.038
12/14/2014  00:49:00       17.228       29.750       -3.112       11.055       13.143        5.432      122.202      172.740       29.503        0.076        0.016       34.378        6.393        0.035      331.094       -1.115      863.033
12/14/2014  00:50:00       26.567       36.150       -3.107        9.109       11.563        7.920       82.983      133.700       62.734        0.115        0.014       44.863        4.228        0.009      331.057       -1.174      863.040
12/14/2014  00:51:00       31.504       19.382       -0.631       10.478        9.522       10.652      109.783       90.663      113.461        0.084        0.016       36.988        8.275        0.050      331.034       -1.210      863.046
12/14/2014  00:52:00       26.756       31.076       -4.328       10.403        6.657        7.674      108.217       44.317       58.889        0.096        0.011       41.008        2.868        0.005      331.036       -1.208      863.055
12/14/2014  00:53:00       21.862       21.392        2.182        7.743        6.549        6.906       59.949       42.894       47.698        0.055        0.008       30.587        5.231        0.029      331.027       -1.224      863.071
12/14/2014  00:54:00       18.436       14.640       -0.395        5.354        5.785        6.502       28.662       33.462       42.280        0.033        0.005       23.542        3.399        0.021      331.053       -1.180      863.082
12/14/2014  00:55:00       10.465       11.733        0.336        4.308        4.241        2.068       18.562       17.984        4.277        0.014        0.002       15.722        1.488        0.009      331.105       -1.095      863.085
12/14/2014  00:56:00       -6.586       16.178       -0.829        9.071        5.475        4.629       82.285       29.973       21.428        0.022        0.007       17.467        3.772        0.047      331.194       -0.949      863.081
12/14/2014  00:57:00      -29.916       -6.410       -1.370       10.182        8.193        6.959      103.678       67.125       48.426        0.058        0.011       30.595        4.639        0.023      331.219       -0.908      863.081
12/14/2014  00:58:00      -32.896      -12.337       -0.587        6.858        8.130        6.084       47.030       66.097       37.018        0.069        0.008       35.134        4.288        0.015      331.255       -0.846      863.081
12/14/2014  00:59:00      -45.168       -7.143       -7.514       10.142        9.957        6.119      102.853       99.133       37.441        0.119        0.012       45.730        4.867        0.011      331.218       -0.907      863.098
12/14/2014  01:00:00      -55.866      -11.380       -7.614       11.909       12.393        8.256      141.825      153.581       68.165        0.184        0.018       57.013        7.033        0.015      331.084       -1.130      863.112
12/14/2014  01:01:00      -55.049        0.859       -0.335       25.560       14.140       10.813      653.291      199.944      116.918        0.200        0.049       55.056       11.109        0.041      331.076       -1.142      863.118
12/14/2014  01:02:00      -78.068        1.894       -1.838       12.899       12.235        8.488      166.376      149.696       72.048        0.324        0.019       78.091        7.740        0.010      331.232       -0.885      863.129
12/14/2014  01:03:00      -37.379      -16.113       -1.197       17.731       12.200       10.643      314.398      148.841      113.279        0.112        0.029       40.704        4.086        0.010      331.209       -0.924      863.130
12/14/2014  01:04:00      -41.045      -19.948       -0.580       21.730       18.796       10.580      472.189      353.285      111.943        0.151        0.047       45.636        9.235        0.041      331.191       -0.953      863.128
12/14/2014  01:05:00      -48.441      -22.209        7.751       33.082       24.585       16.188     1094.394      604.432      262.048        0.243        0.098       53.290       17.320        0.106      331.151       -1.019      863.125
12/14/2014  01:06:00      -75.623      -59.882        1.555       34.057       30.868       19.989     1159.869      952.803      399.558        0.591        0.126       96.461       16.796        0.030      331.180       -0.971      863.133
12/14/2014  01:07:00     -108.093      -80.073       -2.322       35.142       33.811       25.614     1234.941     1143.208      656.077        1.057        0.152      134.520       23.150        0.030      331.194       -0.947      863.138
12/14/2014  01:08:00     -123.002      -72.693       -4.238       32.300       26.251       20.396     1043.281      689.099      415.998        1.129        0.107      142.876       14.932        0.011      331.129       -1.056      863.144
12/14/2014  01:09:00     -107.929      -70.121       -9.932       44.312       23.698       20.498     1963.577      561.605      420.169        0.980        0.147      128.707       20.403        0.025      331.089       -1.121      863.142
12/14/2014  01:10:00     -115.782      -40.042       -4.713       25.503       29.344       21.711      650.395      861.062      471.380        0.851        0.099      122.510       19.921        0.026      331.089       -1.121      863.147
12/14/2014  01:11:00     -107.368      -19.467      -10.900       25.626       23.444       17.423      656.703      549.601      303.566        0.677        0.075      109.119       13.336        0.015      330.972       -1.313      863.144
12/14/2014  01:12:00      -91.740        3.500       -4.289       36.021       28.534       17.262     1297.508      814.180      297.964        0.543        0.120       91.806       16.650        0.033      330.920       -1.397      863.131
12/14/2014  01:13:00     -101.676       19.788       -3.880       31.065       14.668       12.441      965.012      215.155      154.784        0.604        0.067      103.583       11.132        0.012      330.881       -1.462      863.124
12/14/2014  01:14:00     -104.938       14.359       -5.327       21.442       15.410       11.445      459.762      237.468      130.979        0.604        0.041      105.916       10.020        0.009      331.005       -1.261      863.130
12/14/2014  01:15:00      -68.632        8.078       -1.732       16.224       10.490        9.473      263.225      110.041       89.737        0.262        0.023       69.106        6.894        0.010      331.111       -1.085      863.137
12/14/2014  01:16:00      -62.620       11.944      -10.059       12.346       10.606        6.000      152.430      112.497       36.006        0.223        0.015       63.749        5.040        0.006      331.152       -1.017      863.145
12/14/2014  01:17:00      -70.207        9.198      -10.002       12.167       13.910       11.756      148.031      193.480      138.201        0.280        0.024       70.807        6.971        0.010      330.990       -1.285      863.138
12/14/2014  01:18:00      -37.219        6.889       -0.908       17.790       17.598       12.694      316.497      309.677      161.129        0.111        0.039       37.851        9.707        0.066      331.028       -1.222      863.126
12/14/2014  01:19:00      -60.727       15.662       -4.383       24.159       22.830       14.394      583.634      521.191      207.200        0.263        0.066       62.714       11.965        0.036      331.177       -0.975      863.119
12/14/2014  01:20:00      -55.904       19.725       -3.043       25.434       13.711       15.074      646.863      187.999      227.239        0.229        0.053       59.282        8.667        0.021      331.265       -0.831      863.103
12/14/2014  01:21:00      -60.171       17.243       -8.468       15.994       15.288        9.188      255.814      233.732       84.417        0.228        0.029       62.593        4.642        0.006      331.290       -0.788      863.098
12/14/2014  01:22:00      -57.203       -5.431       -7.547        9.082       17.320        9.702       82.477      299.969       94.134        0.192        0.024       57.460        3.620        0.004      331.276       -0.814      863.105
12/14/2014  01:23:00      -48.161      -22.989      -11.427        7.937       12.399        7.036       63.001      153.727       49.508        0.162        0.013       53.366        3.738        0.005      331.177       -0.977      863.107
12/14/2014  01:24:00      -43.358      -24.387      -11.926        7.947       10.305        7.086       63.159      106.185       50.211        0.142        0.011       49.746        4.488        0.008      331.214       -0.916      863.113
12/14/2014  01:25:00      -38.718      -25.113      -12.100       14.667       10.250        8.231      215.115      105.063       67.748        0.133        0.019       46.149        1.629        0.001      331.259       -0.840      863.115
12/14/2014  01:26:00      -33.073      -25.078      -11.187       12.236        9.542        7.115      149.714       91.050       50.624        0.107        0.015       41.505        4.460        0.012      331.264       -0.832      863.117
12/14/2014  01:27:00      -43.763      -25.619       -5.608        9.691       12.805        9.763       93.917      163.974       95.317        0.148        0.018       50.710        3.482        0.005      331.265       -0.830      863.114
12/14/2014  01:28:00      -35.149       -5.244       -2.083       13.152       15.511        8.486      172.987      240.585       72.008        0.088        0.024       35.538        6.295        0.031      331.261       -0.838      863.113
12/14/2014  01:29:00      -13.877        4.527       -0.703       15.299       12.865        9.675      234.071      165.512       93.607        0.035        0.025       14.596        7.510        0.265      331.431       -0.557      863.114
12/14/2014  01:30:00       -8.134       34.429       -4.623       13.755       21.110       12.548      189.193      445.640      157.446        0.103        0.040       35.377        8.877        0.063      331.529       -0.398      863.118
12/14/2014  01:31:00       16.362       10.015        8.673        7.492       11.203        8.242       56.128      125.508       67.937        0.035        0.012       19.184        5.395        0.079      331.592       -0.295      863.129
12/14/2014  01:32:00      -42.340       -9.003       -7.146       20.985       17.393        5.965      440.355      302.525       35.582        0.135        0.039       43.287        3.083        0.005      331.266       -0.830      863.134
12/14/2014  01:33:00      -81.945      -47.477       -4.742       31.453       33.748       15.142      989.265     1138.900      229.294        0.567        0.118       94.705       12.901        0.019      330.963       -1.327      863.124
12/14/2014  01:34:00      -77.129      -58.168        3.020       46.687       26.805       21.245     2179.646      718.512      451.343        0.634        0.167       96.604       20.133        0.043      330.954       -1.342      863.110
12/14/2014  01:35:00     -112.933      -31.028       -7.475       39.556       32.050       18.712     1564.669     1027.186      350.122        0.836        0.147      117.118       15.337        0.017      330.946       -1.354      863.092
12/14/2014  01:36:00     -102.070      -19.027       -1.035       35.027       30.988       20.603     1226.893      960.281      424.497        0.670        0.131      103.828       23.087        0.049      330.925       -1.390      863.081
12/14/2014  01:37:00      -72.138      -20.187        0.829       30.507       28.586       19.856      930.653      817.154      394.242        0.388        0.107       74.910       20.139        0.072      330.868       -1.484      863.070
12/14/2014  01:38:00      -90.235      -10.095        0.928       39.032       23.875       22.179     1523.477      570.002      491.904        0.541        0.129       90.798       22.146        0.059      330.874       -1.474      863.058
12/14/2014  01:39:00     -107.635      -36.764       -4.153       39.079       32.149       15.019     1527.183     1033.556      225.556        0.787        0.139      113.741       14.442        0.016      330.909       -1.415      863.045
12/14/2014  01:40:00     -125.567      -54.494       -5.083       24.215       30.337       20.728      586.388      920.359      429.664        1.035        0.097      136.882       15.830        0.013      330.925       -1.391      863.041
12/14/2014  01:41:00     -126.315      -53.356       -3.638       23.263       26.090       14.472      541.148      680.707      209.426        1.012        0.072      137.122       12.111        0.008      330.874       -1.473      863.040
12/14/2014  01:42:00     -100.717      -49.805        1.927       43.536       26.505       17.160     1895.366      702.530      294.476        0.776        0.145      112.358       17.801        0.025      330.864       -1.491      863.040
12/14/2014  01:43:00     -112.565      -56.438       -0.291       35.773       24.498       27.032     1279.673      600.164      730.739        0.923        0.131      125.921       23.665        0.035      330.868       -1.484      863.051
12/14/2014  01:44:00     -115.396      -71.611       -3.721       34.768       32.094       21.708     1208.813     1030.056      471.248        1.058        0.136      135.810       21.129        0.024      330.880       -1.464      863.064
12/14/2014  01:45:00      -97.989      -24.729       -3.171       37.053       23.694       18.219     1372.916      561.427      331.941        0.624        0.113      101.061       15.364        0.023      330.856       -1.505      863.080
12/14/2014  01:46:00      -99.569      -46.568       -5.708       37.732       24.529       15.316     1423.686      601.676      234.569        0.719        0.113      109.921       17.804        0.026      331.009       -1.254      863.088
12/14/2014  01:47:00      -94.427      -60.249       -6.056       22.577       35.900       13.939      509.742     1288.787      194.282        0.729        0.100      112.011       12.413        0.012      331.001       -1.266      863.092
12/14/2014  01:48:00      -60.806      -59.631        1.878       33.870       32.171       21.595     1147.169     1034.949      466.327        0.495        0.132       85.165       19.864        0.054      331.000       -1.267      863.092
12/14/2014  01:49:00      -83.948      -56.350       -3.888       28.183       17.438       15.193      794.269      304.093      230.813        0.578        0.066      101.107       11.636        0.013      331.034       -1.212      863.096
12/14/2014  01:50:00      -69.359      -38.318        2.867       34.558       20.964       16.470     1194.237      439.500      271.271        0.410        0.095       79.240       16.086        0.041      330.956       -1.339      863.096
12/14/2014  01:51:00      -54.004      -51.853        1.905       38.384       28.152       17.122     1473.351      792.513      293.147        0.408        0.128       74.867       12.992        0.030      331.001       -1.266      863.094
12/14/2014  01:52:00      -47.183      -67.797        4.766       30.568       31.732       19.227      934.391     1006.903      369.660        0.458        0.116       82.599       18.856        0.052      331.071       -1.151      863.094
12/14/2014  01:53:00      -45.251      -46.554        4.368       31.772       31.518       20.534     1009.491      993.388      421.656        0.333        0.121       64.922       16.496        0.065      330.976       -1.306      863.115
12/14/2014  01:54:00      -95.662      -57.207       -0.893       32.135       22.334       18.440     1032.627      498.792      340.030        0.715        0.094      111.463       16.988        0.023      331.000       -1.268      863.131
12/14/2014  01:55:00     -101.853      -53.848       -5.503       35.184       26.885       15.338     1237.894      722.810      235.265        0.775        0.110      115.212       13.353        0.013      330.942       -1.363      863.159
12/14/2014  01:56:00      -81.758      -48.384        1.012       31.199       30.165       19.379      973.373      909.911      375.560        0.564        0.113       95.002       16.670        0.031      330.914       -1.408      863.190
12/14/2014  01:57:00      -68.478      -41.034       -3.039       31.267       25.619       20.322      977.648      656.348      412.967        0.421        0.102       79.831       17.182        0.046      330.956       -1.340      863.212
12/14/2014  01:58:00     -101.429      -44.405       -4.612       32.758       27.291       16.491     1073.055      744.809      271.939        0.718        0.104      110.723       16.477        0.022      330.929       -1.384      863.222
12/14/2014  01:59:00      -85.470      -43.182        0.837       21.453       29.571       18.757      460.227      874.470      351.816        0.543        0.084       95.759       15.094        0.025      330.889       -1.449      863.234
12/14/2014  02:00:00      -97.875      -49.380       -2.870       19.501       28.483       13.167      380.303      811.287      173.381        0.670        0.068      109.626        9.093        0.007      330.924       -1.391      863.256
12/14/2014  02:01:00      -76.251      -50.124        0.341       33.281       23.343       13.641     1107.592      544.884      186.064        0.508        0.092       91.250       12.379        0.018      330.929       -1.383      863.262
12/14/2014  02:02:00      -68.875      -20.210       -1.461       27.682       18.216       14.236      766.293      331.837      202.653        0.323        0.065       71.779       15.168        0.045      330.834       -1.540      863.265
12/14/2014  02:03:00      -80.518      -45.415       -2.958       26.750       19.292       11.726      715.538      372.194      137.492        0.489        0.061       92.443        9.672        0.011      330.878       -1.468      863.266
12/14/2014  02:04:00     -109.906      -47.535       -7.309       27.379       15.047       13.636      749.585      226.418      185.948        0.778        0.058      119.745       12.388        0.011      330.845       -1.521      863.268
12/14/2014  02:05:00     -117.919      -56.386       -7.369       15.416       22.719       11.645      237.643      516.171      135.596        0.901        0.044      130.707        8.568        0.004      330.849       -1.515      863.283
12/14/2014  02:06:00     -122.316      -61.101       -3.138       31.871       30.973       23.609     1015.745      959.349      557.396        1.062        0.127      136.729       23.131        0.029      330.817       -1.568      863.292
12/14/2014  02:07:00     -122.360      -56.028       -6.159       28.086       26.671       19.327      788.813      711.361      373.546        1.001        0.094      134.577       15.220        0.013      330.911       -1.412      863.297
12/14/2014  02:08:00     -104.163      -52.353       -0.757       39.874       30.632       18.081     1589.934      938.332      326.940        0.822        0.143      116.579       19.016        0.027      330.894       -1.440      863.304
12/14/2014  02:09:00      -96.567      -36.099        3.773       38.433       27.388       18.796     1477.059      750.125      353.271        0.661        0.129      103.094       21.068        0.042      330.965       -1.325      863.315
12/14/2014  02:10:00      -69.706      -21.463        0.614       26.138       26.104       14.291      683.218      681.409      204.224        0.344        0.078       72.936       12.453        0.029      330.976       -1.308      863.328
12/14/2014  02:11:00      -86.084      -21.026       -3.443       31.137       29.483       17.058      969.540      869.235      290.978        0.500        0.106       88.615       17.276        0.038      330.981       -1.297      863.335
12/14/2014  02:12:00      -48.032      -18.246        2.235       25.777       25.144       13.887      664.446      632.214      192.860        0.207        0.074       51.381       13.684        0.071      330.995       -1.276      863.348
12/14/2014  02:13:00      -58.050        1.169        3.905       28.755       23.507       13.281      826.852      552.570      176.382        0.247        0.078       58.061       11.560        0.040      330.918       -1.400      863.348
12/14/2014  02:14:00      -77.596        5.386       -2.775       33.743       14.509       14.945     1138.599      210.520      223.360        0.381        0.079       77.783       14.575        0.035      330.897       -1.435      863.348
12/14/2014  02:15:00      -83.936      -11.493       -3.027       30.437       24.317       17.270      926.425      591.315      298.243        0.450        0.091       84.719       16.619        0.038      330.871       -1.478      863.350
12/14/2014  02:16:00      -75.314      -46.235        0.196       28.274       32.368       20.072      799.393     1047.703      402.881        0.503        0.112       88.374       11.883        0.018      330.965       -1.325      863.362
12/14/2014  02:17:00      -55.778      -56.468        2.091       41.813       31.046       22.753     1748.362      963.848      517.714        0.477        0.161       79.371       23.870        0.090      330.991       -1.282      863.375
12/14/2014  02:18:00      -66.185      -43.532        0.178       39.254       28.141       19.740     1540.839      791.890      389.679        0.450        0.136       79.218       19.012        0.058      331.014       -1.245      863.385
12/14/2014  02:19:00      -71.142      -33.948       -2.220       43.197       27.451       17.755     1866.008      753.573      315.230        0.458        0.147       78.827       18.368        0.054      330.988       -1.287      863.390
12/14/2014  02:20:00      -90.982      -18.131        0.932       27.932       29.464       16.693      780.180      868.145      278.654        0.527        0.096       92.771       15.049        0.026      330.930       -1.381      863.390
12/14/2014  02:21:00      -93.141      -63.430        5.287       33.681       34.638       22.062     1134.401     1199.792      486.716        0.777        0.141      112.688       17.948        0.025      330.964       -1.325      863.392
12/14/2014  02:22:00     -120.443      -58.933       -1.637       28.382       26.747       23.435      805.557      715.404      549.193        1.003        0.104      134.088       19.903        0.022      331.000       -1.268      863.393
12/14/2014  02:23:00     -130.437      -59.105       -4.322       35.192       25.578       21.062     1238.485      654.216      443.601        1.143        0.117      143.203       18.868        0.017      330.979       -1.301      863.397
12/14/2014  02:24:00     -126.181      -64.447       -8.138       24.693       19.516       19.717      609.730      380.877      388.768        1.076        0.069      141.687       17.279        0.015      331.015       -1.245      863.402
12/14/2014  02:25:00      -93.924      -63.515       -3.888       31.774       28.520       17.716     1009.608      813.363      313.841        0.750        0.107      113.383       16.231        0.020      331.010       -1.252      863.407
12/14/2014  02:26:00     -121.682      -56.107       -2.418       27.991       21.681       19.362      783.469      470.054      374.882        0.979        0.081      133.994       14.398        0.012      331.011       -1.251      863.405
12/14/2014  02:27:00      -93.772      -56.017        1.487       39.339       25.253       21.731     1547.550      637.703      472.252        0.729        0.133      109.230       22.657        0.043      331.049       -1.188      863.399
12/14/2014  02:28:00     -123.385      -42.866       -1.890       25.971       33.156       15.228      674.474     1099.315      231.891        0.953        0.100      130.619       11.700        0.008      331.089       -1.121      863.392
12/14/2014  02:29:00     -126.464      -17.031       -4.601       35.259       24.960       21.834     1243.231      623.026      476.706        0.932        0.117      127.605       21.688        0.029      331.046       -1.191      863.389
12/14/2014  02:30:00     -135.965      -61.794       -8.402       36.275       24.906       25.552     1315.884      620.313      652.910        1.248        0.129      149.349       17.058        0.013      330.959       -1.334      863.383
12/14/2014  02:31:00      -99.775      -52.960       -3.149       34.773       32.295       25.422     1209.161     1042.951      646.262        0.783        0.145      112.959       20.714        0.034      331.011       -1.248      863.384
12/14/2014  02:32:00      -57.713       -5.544       -3.497       33.299       23.298       15.323     1108.819      542.805      234.808        0.263        0.094       57.978       13.718        0.056      331.020       -1.235      863.385
12/14/2014  02:33:00      -81.138       10.349       -8.055       29.147       21.082       17.244      849.540      444.456      297.370        0.417        0.080       81.795       11.367        0.019      331.024       -1.228      863.387
12/14/2014  02:34:00     -101.569       -9.053       -4.514       32.576       23.500       22.922     1061.201      552.240      525.420        0.628        0.107      101.972       21.240        0.043      330.987       -1.288      863.376
12/14/2014  02:35:00      -72.923        5.023       -0.286       45.822       28.471       20.519     2099.645      810.596      421.028        0.434        0.167       73.096       23.089        0.100      331.003       -1.265      863.369
12/14/2014  02:36:00      -90.537       -2.941       -7.251       31.951       26.905       16.418     1020.879      723.880      269.553        0.514        0.101       90.585       13.305        0.022      331.026       -1.226      863.364
12/14/2014  02:37:00      -94.326       -2.155       -7.982       35.291       21.337       19.690     1245.439      455.267      387.711        0.553        0.104       94.351       21.420        0.052      331.054       -1.179      863.357
12/14/2014  02:38:00      -97.320       -9.788       -9.064       33.322       17.952       18.815     1110.364      322.290      354.009        0.572        0.089       97.811       19.828        0.041      331.082       -1.132      863.359
12/14/2014  02:39:00      -61.697      -14.231        1.531       36.054       19.177       13.543     1299.879      367.760      183.410        0.293        0.093       63.317       18.567        0.086      331.170       -0.988      863.361
12/14/2014  02:40:00     -100.970      -41.721       -7.494       61.065       30.039       18.138     3728.927      902.365      329.001        0.847        0.248      109.250       26.695        0.060      331.143       -1.032      863.368
12/14/2014  02:41:00     -113.336      -42.196       -3.740       30.395       20.940       19.868      923.876      438.487      394.740        0.820        0.088      120.936       19.107        0.025      331.188       -0.958      863.373
12/14/2014  02:42:00      -99.544      -31.689       -6.708       26.662       21.724       18.344      710.880      471.916      336.516        0.624        0.076      104.466       17.170        0.027      331.304       -0.766      863.370
12/14/2014  02:43:00      -70.168      -41.664       -0.755       44.958       20.856       15.540     2021.211      434.985      241.490        0.468        0.135       81.606       18.061        0.049      331.355       -0.683      863.366
12/14/2014  02:44:00      -32.737      -25.773       -0.576       34.374       21.318       16.515     1181.586      454.471      272.751        0.182        0.095       41.665       12.918        0.096      331.375       -0.651      863.370
12/14/2014  02:45:00      -58.300      -82.554        0.103       40.095       27.461       19.510     1607.573      754.122      380.653        0.648        0.137      101.064       21.146        0.044      331.344       -0.701      863.365
12/14/2014  02:46:00      -56.792      -37.804        3.897       38.859       40.456       27.586     1510.012     1636.659      760.994        0.429        0.195       68.224       29.988        0.193      331.323       -0.737      863.372
12/14/2014  02:47:00      -93.764      -71.025       -6.282       45.523       36.984       29.200     2072.325     1367.821      852.648        0.908        0.215      117.628       23.247        0.039      331.241       -0.869      863.376
12/14/2014  02:48:00     -110.974      -79.823       -2.005       49.328       29.180       24.045     2433.235      851.487      578.175        1.128        0.193      136.700       20.599        0.023      331.236       -0.879      863.377
12/14/2014  02:49:00     -110.086      -86.225       -2.415       36.886       29.549       22.255     1360.547      873.144      495.291        1.114        0.136      139.834       22.814        0.027      331.214       -0.915      863.372
12/14/2014  02:50:00     -118.870      -70.822       -7.186       41.431       37.401       23.052     1716.541     1398.828      531.390        1.142        0.182      138.368       24.592        0.032      331.263       -0.835      863.364
12/14/2014  02:51:00     -104.760      -58.441       -0.794       41.014       28.315       22.755     1682.115      801.731      517.775        0.870        0.150      119.958       23.294        0.038      331.219       -0.907      863.347
12/14/2014  02:52:00     -110.216      -51.009      -12.579       26.608       21.427       18.611      707.997      459.119      346.388        0.821        0.076      121.447       16.269        0.018      331.234       -0.882      863.336
12/14/2014  02:53:00      -46.143      -38.441       -1.058       38.603       26.381       19.892     1490.180      695.961      395.706        0.309        0.129       60.057       16.897        0.079      331.310       -0.758      863.327
12/14/2014  02:54:00      -84.937      -40.085        2.862       40.767       31.072       20.891     1661.952      965.492      436.415        0.595        0.153       93.921       22.017        0.055      331.210       -0.923      863.324
12/14/2014  02:55:00      -90.493      -84.657       -7.070       30.199       30.408       20.404      911.980      924.625      416.340        0.883        0.113      123.919       16.496        0.018      331.189       -0.956      863.319
12/14/2014  02:56:00      -72.401      -46.410       -9.310       26.009       18.377       17.173      676.448      337.698      294.916        0.440        0.065       85.999       17.140        0.040      331.271       -0.823      863.302
12/14/2014  02:57:00      -38.470      -18.836       -1.061       28.021       11.312       17.138      785.171      127.957      293.717        0.152        0.060       42.834       19.759        0.213      331.300       -0.774      863.288
12/14/2014  02:58:00      -62.731      -26.493       -5.432       10.446       17.905       11.413      109.116      320.601      130.258        0.261        0.028       68.096        6.714        0.010      331.310       -0.757      863.276
12/14/2014  02:59:00      -32.196      -25.204       -0.723       33.943       19.738       12.160     1152.126      389.595      147.875        0.168        0.084       40.888       13.679        0.112      331.374       -0.651      863.265
12/14/2014  03:00:00      -43.497      -37.561       -0.761       35.649       23.460       18.612     1270.838      550.362      346.410        0.274        0.108       57.470       15.333        0.071      331.365       -0.666      863.242
12/14/2014  03:01:00      -55.486      -24.533        2.066       44.640       16.415       17.060     1992.758      269.436      291.029        0.312        0.128       60.668       21.176        0.122      331.325       -0.732      863.221
12/14/2014  03:02:00      -62.996      -44.597       -8.024       26.386       17.780       12.321      696.212      316.139      151.807        0.359        0.058       77.184        6.715        0.008      331.255       -0.848      863.197
12/14/2014  03:03:00      -15.437      -28.053       -6.022       34.446       19.493       12.967     1186.504      379.990      168.149        0.140        0.087       32.019       15.097        0.222      331.311       -0.756      863.187
12/14/2014  03:04:00       -2.194      -27.628       -5.414        8.704        9.661       11.411       75.755       93.344      130.221        0.055        0.015       27.715        3.654        0.017      331.407       -0.598      863.165
12/14/2014  03:05:00      -20.140      -18.558        3.440       12.769       16.708       10.348      163.055      279.148      107.073        0.066        0.027       27.386        3.594        0.017      331.406       -0.600      863.145
12/14/2014  03:06:00       -2.568       14.513       18.315       13.495       14.859       15.072      182.105      220.798      227.158        0.059        0.032       14.738        8.690        0.348      331.386       -0.632      863.124
12/14/2014  03:07:00       -9.426       21.730       35.563        8.559       20.967       15.916       73.258      439.635      253.313        0.130        0.038       23.686       16.232        0.470      331.384       -0.636      863.101
12/14/2014  03:08:00       -8.568       36.066       44.428       17.510       23.154       16.695      306.586      536.088      278.735        0.223        0.056       37.069       14.355        0.150      331.398       -0.614      863.071
12/14/2014  03:09:00       46.846       26.029       18.028       26.538       29.275       25.441      704.257      857.028      647.228        0.270        0.110       53.591       13.472        0.063      331.364       -0.669      863.050
12/14/2014  03:10:00       89.022       47.557       -0.011       26.556       24.814       22.467      705.218      615.740      504.781        0.601        0.091      100.928       15.899        0.025      331.192       -0.952      863.027
12/14/2014  03:11:00       75.551       43.636        1.434       15.153       14.209       17.226      229.623      201.903      296.720        0.417        0.036       87.247       10.875        0.016      331.150       -1.020      863.013
12/14/2014  03:12:00       39.599       33.373       15.727       17.734       11.170       16.085      314.495      124.774      258.717        0.181        0.035       51.786        9.487        0.034      331.150       -1.020      863.008
12/14/2014  03:13:00       57.449       41.265       11.047       16.027       10.892       13.297      256.872      118.626      176.800        0.284        0.028       70.733        3.526        0.002      331.187       -0.961      863.019
12/14/2014  03:14:00       65.900       50.287       24.209       22.711       20.370       24.080      515.778      414.936      579.869        0.448        0.076       82.895       13.088        0.025      331.203       -0.932      863.023
12/14/2014  03:15:00       44.881       52.298       56.067       29.958       34.023       21.370      897.510     1157.564      456.675        0.520        0.126       68.916       12.235        0.032      331.212       -0.918      863.027
12/14/2014  03:16:00       55.941       60.532       42.202       47.513       29.030       19.445     2257.477      842.724      378.103        0.603        0.174       82.423       17.456        0.045      331.142       -1.034      863.039
12/14/2014  03:17:00       30.633       35.452        4.142       40.194       24.525       17.989     1615.530      601.490      323.605        0.238        0.127       46.853       15.744        0.113      331.054       -1.180      863.050
12/14/2014  03:18:00       46.649      -32.088       11.142       32.760       26.798       20.502     1073.217      718.118      420.352        0.277        0.111       56.620       22.540        0.158      331.135       -1.046      863.059
12/14/2014  03:19:00       15.813       42.565       15.829       14.781       23.164       13.449      218.485      536.554      180.886        0.162        0.047       45.407       14.994        0.109      331.116       -1.076      863.070
12/14/2014  03:20:00        0.901       42.784       54.905       22.832       26.943       16.838      521.283      725.927      283.505        0.319        0.077       42.793       12.565        0.086      331.262       -0.836      863.071
12/14/2014  03:21:00       24.281       47.541       52.920       30.807       22.126       13.757      949.086      489.574      189.244        0.364        0.081       53.383       12.591        0.056      331.273       -0.818      863.079
12/14/2014  03:22:00       34.275       42.468       41.871       23.267       21.242       12.585      541.341      451.203      158.385        0.294        0.058       54.574        6.466        0.014      331.234       -0.883      863.097
12/14/2014  03:23:00       32.690      -36.540       -2.063       39.329       40.902       26.351     1546.764     1672.967      694.397        0.316        0.196       49.029       28.205        0.331      331.356       -0.682      863.102
12/14/2014  03:24:00       18.309       -3.984       23.323       23.352       21.492       20.400      545.321      461.899      416.176        0.116        0.071       18.737       13.241        0.499      331.351       -0.690      863.088
12/14/2014  03:25:00       -0.056      -24.536       27.396       19.641       33.871       19.746      385.784     1147.215      389.911        0.164        0.096       24.536       19.067        0.604      331.456       -0.516      863.067
12/14/2014  03:26:00      -23.707      -24.318        4.581       23.816       16.902       11.289      567.221      285.669      127.432        0.108        0.049       33.962        9.027        0.071      331.463       -0.506      863.038
12/14/2014  03:27:00      -17.661       -0.689       -7.937       31.669       10.415        6.880     1002.921      108.474       47.337        0.077        0.058       17.674        6.384        0.130      331.316       -0.747      863.021
12/14/2014  03:28:00        3.248       30.361       27.665       11.654       17.030       16.097      135.807      290.010      259.109        0.119        0.034       30.534       12.046        0.156      331.420       -0.577      862.998
12/14/2014  03:29:00        3.577       28.907       40.024       31.329       25.542       29.578      981.496      652.394      874.848        0.248        0.125       29.128       26.174        0.807      331.422       -0.573      862.983
12/14/2014  03:30:00       62.139       31.050       21.407       35.586       32.214       29.119     1266.356     1037.772      847.918        0.422        0.158       69.465       20.263        0.085      331.338       -0.711      862.961
12/14/2014  03:31:00       39.950      -54.275       25.330       27.390       31.259       25.199      750.201      977.103      634.978        0.377        0.118       67.393       15.014        0.050      331.204       -0.931      862.948
12/14/2014  03:32:00       47.080       41.148       15.383       27.114       33.205       20.310      735.154     1102.584      412.497        0.320        0.113       62.528       10.402        0.028      331.179       -0.971      862.946
12/14/2014  03:33:00       27.898       34.556       35.253       31.698       18.932       13.515     1004.793      358.422      182.644        0.238        0.077       44.412       12.576        0.080      331.164       -0.998      862.954
12/14/2014  03:34:00       62.535       51.331       20.031       18.174       19.875       16.007      330.288      395.009      256.237        0.396        0.049       80.904        6.582        0.007      331.089       -1.122      862.950
12/14/2014  03:35:00       57.644       40.400       15.420       18.170       20.592       16.180      330.156      424.019      261.798        0.310        0.051       70.392        6.889        0.010      331.154       -1.015      862.956
12/14/2014  03:36:00       84.641       44.764        0.579       18.737       14.434       19.831      351.077      208.334      393.250        0.506        0.048       95.749        7.350        0.006      331.124       -1.063      862.935
12/14/2014  03:37:00       84.537       74.518        5.854       25.663       19.083       19.152      658.603      364.142      366.816        0.706        0.069      112.691        7.229        0.004      331.119       -1.071      862.922
12/14/2014  03:38:00       79.773       67.356        7.679       21.644       18.031       20.255      468.464      325.123      410.271        0.608        0.060      104.406       15.882        0.023      331.177       -0.976      862.899
12/14/2014  03:39:00       54.304       36.893        9.085       17.554       20.721       16.876      308.159      429.358      284.797        0.271        0.051       65.651       10.563        0.026      331.220       -0.905      862.884
12/14/2014  03:40:00       72.729       40.095        3.239       19.988       12.445       20.016      399.508      154.869      400.643        0.393        0.048       83.049       11.200        0.018      331.172       -0.984      862.862
12/14/2014  03:41:00       64.096       64.149       13.358       34.545       15.964       17.572     1193.357      254.835      308.773        0.508        0.088       90.683       14.927        0.027      331.187       -0.960      862.838
12/14/2014  03:42:00       54.887       41.431       14.589       19.787       14.050       15.688      391.525      197.410      246.103        0.289        0.042       68.769       11.235        0.027      331.150       -1.021      862.826
12/14/2014  03:43:00       28.404       47.894       -0.207       10.536       17.970       13.265      111.009      322.913      175.955        0.186        0.030       55.683       10.436        0.035      331.097       -1.110      862.826
12/14/2014  03:44:00       20.056       42.044       -1.709       18.254       16.837       10.102      333.218      283.488      102.046        0.145        0.036       46.583        6.985        0.022      331.119       -1.072      862.832
12/14/2014  03:45:00       41.803       32.927        6.954       23.632       18.141       13.185      558.487      329.102      173.843        0.197        0.053       53.214        9.889        0.035      331.132       -1.050      862.842
12/14/2014  03:46:00       26.808       26.591       -2.989       26.154       17.105       11.946      684.007      292.593      142.714        0.128        0.056       37.759        5.369        0.020      331.122       -1.068      862.851
12/14/2014  03:47:00       13.850       24.774       -3.904       16.295       22.070       12.248      265.521      487.083      150.020        0.086        0.045       28.383       11.988        0.178      331.142       -1.034      862.854
12/14/2014  03:48:00        8.175        4.704       17.958       20.466       13.305       10.660      418.846      177.019      113.639        0.056        0.035        9.432        9.170        0.945      331.169       -0.990      862.852
12/14/2014  03:49:00      -28.397       10.450        4.130       16.320       14.438       10.977      266.346      208.465      120.493        0.076        0.030       30.258        8.960        0.088      331.181       -0.970      862.847
12/14/2014  03:50:00      -37.067        6.700       -0.648       21.182       17.492       10.697      448.691      305.973      114.429        0.114        0.043       37.668       10.648        0.080      331.236       -0.877      862.833
12/14/2014  03:51:00      -51.081        2.055       -4.172       19.001       15.913        9.900      361.024      253.218       98.019        0.167        0.036       51.122        6.608        0.017      331.248       -0.857      862.820
12/14/2014  03:52:00      -34.743       15.459        4.060       19.375       15.520       10.579      375.393      240.884      111.906        0.110        0.036       38.028       10.989        0.084      331.262       -0.835      862.814
12/14/2014  03:53:00       -5.214       -0.743       17.065       12.428       14.754       19.075      154.460      217.686      363.873        0.053        0.037        5.267       13.357        6.432      331.317       -0.745      862.822
12/14/2014  03:54:00        3.632       12.459       -6.867       15.308       17.118       10.520      234.328      293.021      110.665        0.043        0.032       12.978        8.126        0.392      331.191       -0.954      862.840
12/14/2014  03:55:00        8.755       13.567       -3.510       25.006       13.181       14.499      625.320      173.742      210.234        0.064        0.050       16.146       10.754        0.444      331.203       -0.934      862.865
12/14/2014  03:56:00        6.663       15.147       -0.325       10.096       15.932       14.736      101.932      253.824      217.164        0.042        0.029       16.547        9.163        0.307      331.225       -0.897      862.893
12/14/2014  03:57:00       -6.658        9.282       -2.646       13.077        9.148        9.597      171.015       83.680       92.095        0.024        0.017       11.423        4.785        0.175      331.165       -0.996      862.906
12/14/2014  03:58:00      -31.851       -7.483        0.655       17.279       11.227        8.917      298.568      126.050       79.510        0.079        0.025       32.718        5.704        0.030      331.263       -0.833      862.913
12/14/2014  03:59:00      -58.000      -13.239       -8.979       15.283       19.372       14.185      233.582      375.293      201.203        0.221        0.041       59.492        7.654        0.017      331.290       -0.789      862.914
12/14/2014  04:00:00      -55.996      -10.823       -7.494       26.112       21.352       13.337      681.834      455.910      177.864        0.231        0.066       57.033       12.739        0.050      331.304       -0.767      862.914
12/14/2014  04:01:00      -60.493      -24.322       -2.198       18.562       16.488       13.392      344.542      271.867      179.341        0.253        0.040       65.199        5.900        0.008      331.426       -0.568      862.935
12/14/2014  04:02:00      -73.336      -37.431       -5.556       32.578       21.264       15.717     1061.328      452.153      247.010        0.428        0.088       82.337       12.244        0.022      331.409       -0.595      862.969
12/14/2014  04:03:00       -0.604      -29.125       14.755       15.425       20.970       16.508      237.925      439.741      272.513        0.101        0.048       29.132       10.060        0.119      331.516       -0.418      863.004
12/14/2014  04:04:00      -13.452      -28.856        5.503       16.766       32.174       21.554      281.103     1035.151      464.587        0.141        0.089       31.837       21.212        0.444      331.516       -0.419      863.026
12/14/2014  04:05:00      -25.881      -32.569        2.698       26.873       24.255       15.723      722.133      588.314      247.227        0.165        0.078       41.600       13.402        0.104      331.505       -0.437      863.041
12/14/2014  04:06:00       -2.546       -3.396       15.400       21.457       21.522       12.960      460.399      463.188      167.949        0.067        0.055        4.244        7.520        3.140      331.484       -0.472      863.044
12/14/2014  04:07:00       -5.321      -36.272        1.485       17.317       17.929       12.497      299.877      321.450      156.174        0.106        0.039       36.660        8.125        0.049      331.504       -0.439      863.050
12/14/2014  04:08:00      -35.057      -24.131       -1.557       23.468       19.205       16.196      550.727      368.850      262.316        0.150        0.059       42.560       16.632        0.153      331.451       -0.525      863.066
12/14/2014  04:09:00      -14.631       -3.754       11.607       22.538       11.465       16.651      507.977      131.443      277.260        0.064        0.046       15.104       15.156        1.007      331.563       -0.341      863.070
12/14/2014  04:10:00        3.549       -4.643        9.653       17.214       22.785       12.247      296.323      519.162      149.987        0.055        0.048        5.844       11.439        3.832      331.487       -0.466      863.065
12/14/2014  04:11:00       18.309       30.874       14.779       12.434       11.056       14.970      154.595      122.240      224.090        0.100        0.025       35.894       11.376        0.100      331.287       -0.793      863.052
12/14/2014  04:12:00       18.379       31.666       17.767       14.788       16.470       12.047      218.674      271.274      145.141        0.115        0.032       36.613        8.819        0.058      331.374       -0.652      863.039
12/14/2014  04:13:00       27.314       52.349       35.553       23.234       24.942       16.133      539.815      622.104      260.258        0.309        0.071       59.046        4.414        0.006      331.448       -0.531      863.041
12/14/2014  04:14:00       51.070       38.285       19.892       27.266       21.079       24.975      743.413      444.331      623.735        0.314        0.091       63.827        9.791        0.024      331.330       -0.724      863.039
12/14/2014  04:15:00       65.720       73.564       43.874       30.059       29.145       35.880      903.542      849.405     1287.375        0.735        0.152       98.644       22.141        0.050      331.391       -0.625      863.030
12/14/2014  04:16:00       45.165       39.256       47.419       44.752       34.861       26.662     2002.729     1215.273      710.878        0.488        0.196       59.841       26.270        0.193      331.370       -0.659      863.016
12/14/2014  04:17:00       35.886       45.669       58.344       38.836       43.053       32.970     1508.246     1853.593     1087.011        0.561        0.222       58.082       32.439        0.312      331.316       -0.748      863.017
12/14/2014  04:18:00       38.559       47.932       53.405       25.499       27.043       14.868      650.190      731.315      221.054        0.412        0.080       61.516       14.023        0.052      331.287       -0.794      863.034
12/14/2014  04:19:00       35.084       48.546       31.519       33.582       19.942       23.823     1127.758      397.666      567.516        0.334        0.105       59.897       18.924        0.100      331.305       -0.765      863.053
12/14/2014  04:20:00       18.412      -48.739       -4.162       30.279       47.740       19.594      916.801     2279.126      383.928        0.316        0.179       52.100       15.677        0.091      331.382       -0.639      863.070
12/14/2014  04:21:00       44.112      -83.772       -9.931       24.647       29.892       18.623      607.459      893.555      346.813        0.545        0.092       94.677       10.462        0.012      331.388       -0.629      863.078
12/14/2014  04:22:00       33.693      -63.086      -21.936       17.024       23.892        9.306      289.808      570.840       86.611        0.327        0.047       71.519        5.782        0.007      331.326       -0.729      863.091
12/14/2014  04:23:00        1.663      -13.503       -0.324       19.247       15.970       24.262      370.441      255.030      588.636        0.070        0.061       13.605       14.112        1.076      331.441       -0.541      863.081
12/14/2014  04:24:00      -24.020      -15.094       10.066       23.154       17.375       11.246      536.118      301.876      126.466        0.094        0.048       28.368       10.825        0.146      331.444       -0.538      863.052
12/14/2014  04:25:00       11.800       12.388       18.382       16.442       11.667       11.458      270.342      136.112      131.275        0.058        0.027       17.109        5.606        0.107      331.438       -0.547      863.024
12/14/2014  04:26:00      -20.647        9.680        2.568       22.518       15.166       18.785      507.056      230.020      352.859        0.081        0.054       22.804       15.729        0.476      331.431       -0.558      862.985
12/14/2014  04:27:00       15.292       45.326        1.754       22.788       19.732       14.143      519.287      389.350      200.028        0.170        0.055       47.837       11.101        0.054      331.387       -0.631      862.966
12/14/2014  04:28:00       35.770       31.619       19.917       20.872       19.105       17.118      435.637      365.005      293.023        0.188        0.055       47.742        9.157        0.037      331.346       -0.697      862.948
12/14/2014  04:29:00       74.572       35.669       16.577       30.125       22.238       21.996      907.516      494.545      483.838        0.450        0.094       82.663       18.362        0.049      331.302       -0.771      862.947
12/14/2014  04:30:00       77.746       41.276       13.653       26.910       20.678       22.513      724.126      427.570      506.826        0.480        0.083       88.023       12.840        0.021      331.308       -0.760      862.944
12/14/2014  04:31:00       67.564       40.262       10.405       32.775       19.640       18.335     1074.182      385.736      336.175        0.404        0.090       78.651       18.304        0.054      331.322       -0.737      862.955
12/14/2014  04:32:00       53.745       48.091        9.230       23.121       21.381       16.772      534.601      457.168      281.286        0.328        0.064       72.120       12.899        0.032      331.283       -0.801      862.971
12/14/2014  04:33:00       45.393       32.752       -6.428       35.066       26.617       16.005     1229.633      708.476      256.171        0.268        0.110       55.975       10.176        0.033      331.264       -0.833      862.971
12/14/2014  04:34:00       21.447       43.332       -3.051       19.688       28.087       12.135      387.633      788.875      147.267        0.184        0.066       48.349       12.136        0.063      331.286       -0.796      862.957
12/14/2014  04:35:00       20.176       40.141       -2.117       16.744       21.487       13.476      280.371      461.706      181.613        0.147        0.046       44.927        9.718        0.047      331.268       -0.826      862.933
12/14/2014  04:36:00       15.442       33.403       -3.571        8.348        7.227        9.692       69.682       52.233       93.925        0.079        0.011       36.800        5.594        0.023      331.280       -0.804      862.928
12/14/2014  04:37:00       11.719       28.859        3.988       10.071       10.434       10.527      101.419      108.867      110.818        0.065        0.016       31.147        3.710        0.014      331.305       -0.768      862.936
12/14/2014  04:38:00       23.061       26.886       -4.012       13.123       11.891       10.764      172.206      141.403      115.861        0.085        0.021       35.421        5.828        0.027      331.308       -0.759      862.942
12/14/2014  04:39:00       33.198       30.532       -2.449       18.362       20.992       13.694      337.170      440.663      187.530        0.150        0.048       45.104       10.317        0.052      331.304       -0.766      862.938
12/14/2014  04:40:00       26.343       31.265        5.526       19.264       29.978       11.224      371.113      898.670      125.974        0.155        0.070       40.883       14.514        0.126      331.293       -0.784      862.938
12/14/2014  04:41:00       23.106       44.403       -9.045       10.337       14.810        9.033      106.851      219.340       81.600        0.150        0.020       50.055        7.697        0.024      331.275       -0.813      862.944
12/14/2014  04:42:00       23.684       44.911       -7.811        8.858       10.982        8.824       78.466      120.607       77.870        0.146        0.014       50.773        6.848        0.018      331.294       -0.783      862.962
12/14/2014  04:43:00       13.466       22.660       -2.664       13.539       20.139       11.375      183.314      405.596      129.401        0.071        0.036       26.359        6.214        0.056      331.346       -0.699      862.993
12/14/2014  04:44:00       38.583       26.131        2.138       23.639       24.624       16.045      558.797      606.339      257.427        0.180        0.071       46.599       11.912        0.065      331.395       -0.618      863.020
12/14/2014  04:45:00       25.458       33.593        5.431       21.059       21.161       19.857      443.496      447.780      394.304        0.155        0.064       42.149       11.192        0.071      331.343       -0.702      863.037
12/14/2014  04:46:00       55.954       33.706        0.259       26.110       16.846       16.103      681.718      283.793      259.298        0.275        0.061       65.322        9.415        0.021      331.356       -0.681      863.042
12/14/2014  04:47:00       89.942       38.830       -1.277       23.084       22.028       19.045      532.877      485.245      362.708        0.549        0.069       97.966       12.802        0.017      331.308       -0.760      863.045
12/14/2014  04:48:00       50.895       34.417        5.957       18.517       16.332       15.944      342.896      266.729      254.199        0.234        0.043       61.439        7.659        0.016      331.329       -0.726      863.052
12/14/2014  04:49:00       55.643       29.362       -2.195       19.268       16.880       13.758      371.256      284.930      189.296        0.240        0.042       62.915       12.655        0.040      331.317       -0.744      863.055
12/14/2014  04:50:00       25.095       28.669      -13.203       13.207        9.780        9.870      174.423       95.654       97.418        0.100        0.018       38.101        6.780        0.032      331.306       -0.762      863.063
12/14/2014  04:51:00       37.389       36.810        6.158       19.325       11.845       14.369      373.453      140.298      206.467        0.176        0.036       52.469       10.377        0.039      331.319       -0.742      863.074
12/14/2014  04:52:00       25.638       24.666       -1.593       16.704       14.648       11.235      279.031      214.566      126.218        0.094        0.031       35.577       11.376        0.102      331.373       -0.655      863.089
12/14/2014  04:53:00       32.383        8.905        2.791       19.064       12.535       11.712      363.440      157.120      137.182        0.090        0.033       33.585        9.473        0.080      331.418       -0.581      863.107
12/14/2014  04:54:00       50.107       29.371        2.225        9.179       13.975       12.959       84.260      195.308      167.939        0.191        0.022       58.081        5.268        0.008      331.357       -0.680      863.109
12/14/2014  04:55:00       49.088       19.780       -8.160       16.847       15.122       12.331      283.810      228.671      152.042        0.177        0.033       52.923        4.201        0.006      331.386       -0.632      863.114
12/14/2014  04:56:00       28.536       28.502        3.478       15.177       12.684       11.647      230.327      160.875      135.650        0.108        0.026       40.332        5.519        0.019      331.399       -0.612      863.112
12/14/2014  04:57:00       24.377       22.364        1.913        8.227        9.030        8.233       67.686       81.546       67.782        0.066        0.011       33.081        5.146        0.024      331.402       -0.608      863.104
12/14/2014  04:58:00       17.310       15.153       12.090        6.629        6.714       11.539       43.945       45.082      133.144        0.045        0.011       23.006        7.032        0.093      331.467       -0.500      863.109
12/14/2014  04:59:00       17.224       26.003       11.093       10.133       14.133        9.832      102.672      199.728       96.668        0.075        0.020       31.191        7.570        0.059      331.478       -0.481      863.132
12/14/2014  05:00:00       16.439       24.943       22.965       16.766       21.797       14.444      281.113      475.101      208.626        0.119        0.048       29.873        5.898        0.039      331.511       -0.428      863.151
12/14/2014  05:01:00       30.766       29.010       26.039       29.851       13.077       15.524      891.083      171.010      240.981        0.188        0.065       42.286       12.459        0.087      331.447       -0.533      863.162
12/14/2014  05:02:00       40.688       20.827        7.811       11.822       14.680       13.946      139.750      215.508      194.482        0.135        0.027       45.709        8.154        0.032      331.424       -0.570      863.160
12/14/2014  05:03:00       43.127       40.650        2.008       18.322       13.748       12.075      335.707      189.001      145.814        0.209        0.034       59.265        4.585        0.006      331.338       -0.710      863.145
12/14/2014  05:04:00       49.125       29.920        6.555       13.704       13.725       12.409      187.787      188.382      153.987        0.194        0.027       57.519       10.749        0.035      331.338       -0.710      863.135
12/14/2014  05:05:00       43.909       31.158        3.843       15.575       10.419       14.640      242.578      108.553      214.316        0.174        0.028       53.841       10.130        0.035      331.369       -0.662      863.137
12/14/2014  05:06:00       21.661       30.606        5.632       11.971       11.440       15.872      143.315      130.881      251.930        0.098        0.026       37.496        8.861        0.056      331.403       -0.605      863.141
12/14/2014  05:07:00       20.232       31.249       10.166       12.367       11.380        9.735      152.949      129.496       94.762        0.093        0.019       37.227        8.058        0.047      331.401       -0.607      863.133
12/14/2014  05:08:00       -0.546       22.279        5.007       10.355        7.392        8.453      107.222       54.649       71.452        0.038        0.012       22.286        7.796        0.122      331.409       -0.593      863.125
12/14/2014  05:09:00      -39.440       24.141      -10.640       12.697        9.925        6.619      161.205       98.508       43.809        0.128        0.015       46.242        5.434        0.014      331.417       -0.582      863.126
12/14/2014  05:10:00      -19.881       11.872        2.375        9.962       10.576        9.627       99.241      111.852       92.673        0.042        0.015       23.156        8.330        0.129      331.507       -0.434      863.126
12/14/2014  05:11:00      -63.632        0.522        1.005       28.473       23.891       15.283      810.704      570.758      233.571        0.283        0.081       63.634       16.917        0.071      331.567       -0.336      863.138
12/14/2014  05:12:00      -75.402      -24.169       -5.406       30.443       25.691       14.758      926.778      660.033      217.791        0.405        0.090       79.180       15.886        0.040      331.568       -0.332      863.146
12/14/2014  05:13:00      -78.134      -38.109       -7.089       36.350       14.786       17.633     1321.314      218.629      310.906        0.473        0.093       86.932       19.979        0.053      331.579       -0.315      863.153
12/14/2014  05:14:00      -29.690      -20.125        5.861       25.622       27.150       13.666      656.467      737.119      186.753        0.145        0.079       35.868       12.831        0.128      331.638       -0.216      863.151
12/14/2014  05:15:00      -70.573      -59.356       -9.775       14.969       18.751       11.497      224.073      351.584      132.182        0.465        0.035       92.215        6.375        0.005      331.578       -0.318      863.157
12/14/2014  05:16:00      -33.365      -55.849       -5.709       32.615       22.236       17.943     1063.720      494.439      321.934        0.307        0.094       65.056       20.073        0.095      331.634       -0.224      863.158
12/14/2014  05:17:00      -39.618      -51.516       -2.097       24.200       21.774       12.885      585.629      474.098      166.027        0.273        0.061       64.988        6.062        0.009      331.685       -0.140      863.158
12/14/2014  05:18:00        3.682      -77.482      -19.206       27.930       19.326       12.959      780.097      373.491      167.932        0.385        0.066       77.570        9.039        0.014      331.659       -0.183      863.156
12/14/2014  05:19:00       -8.881      -40.208       -3.920       14.997       21.555       15.402      224.902      464.617      237.233        0.132        0.046       41.178       11.917        0.084      331.659       -0.182      863.145
12/14/2014  05:20:00      -16.717      -12.145        6.581       14.308       18.510       14.784      204.722      342.636      218.572        0.062        0.038       20.663       13.283        0.413      331.629       -0.232      863.138
12/14/2014  05:21:00      -30.216      -21.507       -3.349       26.049       25.263       18.152      678.561      638.197      329.489        0.152        0.082       37.089       21.515        0.337      331.646       -0.202      863.143
12/14/2014  05:22:00      -40.972      -40.433       -5.291       29.321       19.486       13.118      859.713      379.696      172.083        0.238        0.071       57.563        6.323        0.012      331.621       -0.246      863.153
12/14/2014  05:23:00      -43.097      -24.131       -8.930       24.686       14.713       11.771      609.385      216.479      138.560        0.174        0.048       49.393        8.810        0.032      331.630       -0.231      863.159
12/14/2014  05:24:00      -19.217      -38.781        3.154       21.406       24.059       14.436      458.204      578.855      208.410        0.156        0.062       43.281       10.383        0.058      331.658       -0.186      863.155
12/14/2014  05:25:00       -3.459       -0.465       11.791        9.766       13.334        7.340       95.366      177.803       53.876        0.024        0.016        3.490        5.891        2.850      331.676       -0.155      863.133
12/14/2014  05:26:00       18.861       17.837       23.255       11.557       16.259       11.464      133.566      264.358      131.416        0.087        0.026       25.960       10.756        0.172      331.561       -0.344      863.105
12/14/2014  05:27:00       31.270       48.138       -6.529       11.735       11.069        9.043      137.705      122.522       81.780        0.184        0.017       57.403        6.330        0.012      331.479       -0.479      863.073
12/14/2014  05:28:00       46.560       41.693       -3.198       17.787       19.257       15.585      316.364      370.850      242.886        0.242        0.047       62.499       12.169        0.038      331.497       -0.449      863.036
12/14/2014  05:29:00       50.540       38.343       -9.593       16.011       13.593       12.481      256.341      184.773      155.771        0.236        0.030       63.439        8.430        0.018      331.499       -0.445      863.017
12/14/2014  05:30:00       28.318       12.923        3.523       15.013       14.512       14.464      225.401      210.592      209.204        0.081        0.032       31.128        4.309        0.019      331.533       -0.391      863.017
12/14/2014  05:31:00       22.848       19.880       -0.662       10.726       11.910        9.579      115.039      141.848       91.755        0.063        0.017       30.287        7.627        0.063      331.520       -0.413      863.031
12/14/2014  05:32:00       -0.550       14.777       -4.617       10.531        8.725        5.394      110.894       76.129       29.093        0.023        0.011       14.787        5.285        0.128      331.527       -0.402      863.066
12/14/2014  05:33:00       -4.035       18.138       -4.000        7.427        7.633        3.568       55.158       58.268       12.734        0.024        0.006       18.581        3.297        0.031      331.520       -0.412      863.101
12/14/2014  05:34:00       -4.110       18.303       -3.306        6.496        5.513        3.978       42.200       30.389       15.824        0.023        0.004       18.759        2.784        0.022      331.531       -0.395      863.129
12/14/2014  05:35:00      -28.196        1.991        2.384        8.204        9.578        6.888       67.304       91.741       47.438        0.051        0.010       28.266        3.633        0.017      331.572       -0.326      863.157
12/14/2014  05:36:00      -41.162        9.840        3.545       18.120       14.713        8.892      328.346      216.477       79.068        0.121        0.031       42.322        9.199        0.047      331.609       -0.266      863.184
12/14/2014  05:37:00      -54.786        9.515       -1.522       12.659       15.708       10.083      160.245      246.733      101.676        0.180        0.025       55.606        6.875        0.015      331.614       -0.256      863.202
12/14/2014  05:38:00      -57.306        5.426       -2.722        9.196        7.903        7.643       84.561       62.462       58.417        0.176        0.010       57.562        4.826        0.007      331.675       -0.155      863.220
12/14/2014  05:39:00      -49.136      -22.247       -4.975       12.827       14.843        9.720      164.542      220.315       94.480        0.171        0.024       53.938        4.524        0.007      331.650       -0.196      863.238
12/14/2014  05:40:00      -23.769      -32.696       -0.009       27.312       16.758       12.798      745.952      280.814      163.799        0.141        0.060       40.422        8.915        0.049      331.747       -0.039      863.248
12/14/2014  05:41:00      -47.277      -37.367        4.020       38.151       27.909       15.715     1455.530      778.922      246.957        0.306        0.124       60.262       16.315        0.073      331.664       -0.175      863.248
12/14/2014  05:42:00      -48.780      -50.555        4.972       37.521       34.620       18.983     1407.797     1198.524      360.366        0.396        0.148       70.252       22.753        0.105      331.680       -0.148      863.235
12/14/2014  05:43:00     -101.446      -44.446       -4.039       45.786       24.163       18.880     2096.314      583.858      356.456        0.766        0.152      110.755       15.168        0.019      331.630       -0.230      863.224
12/14/2014  05:44:00      -71.700      -63.311        1.756       44.383       39.216       16.150     1969.878     1537.901      260.811        0.646        0.188       95.651       15.111        0.025      331.591       -0.294      863.234
12/14/2014  05:45:00      -74.906      -46.294        5.776       49.233       31.917       18.954     2423.913     1018.722      359.266        0.579        0.190       88.057       21.873        0.062      331.603       -0.276      863.268
12/14/2014  05:46:00      -63.058      -73.506        3.895       50.914       41.504       26.243     2592.236     1722.607      688.718        0.720        0.250       96.848       23.762        0.060      331.548       -0.366      863.294
12/14/2014  05:47:00      -61.074      -58.414        2.865       47.446       32.772       25.711     2251.160     1074.036      661.071        0.557        0.199       84.512       28.970        0.118      331.571       -0.328      863.306
12/14/2014  05:48:00      -42.070     -107.292       -8.367       46.067       49.137       22.864     2122.185     2414.404      522.761        0.920        0.253      115.246       18.319        0.025      331.490       -0.460      863.308
12/14/2014  05:49:00      -70.778      -66.211       -3.488       42.389       40.513       29.690     1796.792     1641.281      881.475        0.686        0.216       96.919       19.887        0.042      331.428       -0.564      863.298
12/14/2014  05:50:00      -45.992      -74.204       -0.246       35.717       27.618       24.792     1275.674      762.779      614.667        0.514        0.133       87.301       20.241        0.054      331.475       -0.486      863.277
12/14/2014  05:51:00     -106.998      -75.930       -6.773       36.099       29.984       22.473     1303.156      899.011      505.016        0.998        0.135      131.202       14.895        0.013      331.379       -0.643      863.259
12/14/2014  05:52:00     -118.095      -90.103       -7.654       34.716       36.875       25.055     1205.170     1359.776      627.760        1.266        0.160      148.543       21.645        0.021      331.376       -0.650      863.254
12/14/2014  05:53:00     -103.395      -75.477       -4.327       51.108       30.751       28.532     2612.052      945.595      814.048        1.039        0.219      128.013       28.744        0.050      331.402       -0.606      863.259
12/14/2014  05:54:00      -99.172      -94.632       -3.468       35.222       31.794       27.438     1240.624     1010.887      752.858        1.090        0.150      137.078       25.440        0.034      331.352       -0.689      863.273
12/14/2014  05:55:00      -57.132      -50.770        7.724       39.437       34.225       20.914     1555.252     1171.367      437.399        0.453        0.158       76.431       19.083        0.062      331.471       -0.495      863.284
12/14/2014  05:56:00      -47.900      -76.326       -0.598       20.418       28.646       15.345      416.897      820.599      235.475        0.480        0.074       90.111       14.789        0.027      331.420       -0.577      863.292
12/14/2014  05:57:00      -74.355      -71.071       -7.169       30.297       26.295       18.903      917.883      691.451      357.328        0.630        0.098      102.858       11.201        0.012      331.400       -0.610      863.290
12/14/2014  05:58:00      -84.056      -66.465       -6.722       28.267       31.295       19.764      799.015      979.383      390.611        0.685        0.108      107.159        9.281        0.008      331.446       -0.534      863.275
12/14/2014  05:59:00      -88.505      -59.433       -4.543       44.191       42.863       24.416     1952.872     1837.251      596.132        0.789        0.219      106.609       17.370        0.027      331.447       -0.532      863.281
12/14/2014  06:00:00     -118.592      -90.738       -0.936       47.145       39.919       30.404     2222.672     1593.547      924.427        1.352        0.237      149.323       31.466        0.044      331.395       -0.618      863.315
12/14/2014  06:01:00      -95.930     -104.619       -8.641       28.920       30.568       26.577      836.345      934.406      706.347        1.135        0.124      141.942       21.823        0.024      331.415       -0.585      863.350
12/14/2014  06:02:00     -111.889     -116.830      -12.893       37.523       28.530       24.308     1408.001      813.964      590.876        1.457        0.141      161.766       22.878        0.020      331.392       -0.622      863.389
12/14/2014  06:03:00     -114.472      -76.164        0.945       50.808       61.358       23.736     2581.461     3764.780      563.381        1.291        0.345      137.494       23.155        0.028      331.428       -0.564      863.414
12/14/2014  06:04:00      -51.993      -54.865       12.479       45.795       35.454       27.919     2097.211     1257.014      779.494        0.500        0.207       75.587       25.396        0.113      331.519       -0.414      863.419
12/14/2014  06:05:00     -120.440      -41.622        0.142       58.606       40.956       29.068     3434.673     1677.373      844.974        1.110        0.298      127.429       32.039        0.063      331.437       -0.550      863.408
12/14/2014  06:06:00     -128.258      -37.174       -1.213       55.659       49.351       28.004     3097.959     2435.478      784.205        1.207        0.316      133.537       29.884        0.050      331.419       -0.577      863.387
12/14/2014  06:07:00      -55.306      -37.313        9.592       52.226       41.292       30.756     2727.554     1705.003      945.905        0.496        0.269       66.716       26.690        0.160      331.518       -0.415      863.370
12/14/2014  06:08:00      -55.252      -34.426        8.334       44.640       42.058       23.213     1992.721     1768.908      538.839        0.430        0.215       65.099       17.738        0.074      331.523       -0.408      863.363
12/14/2014  06:09:00      -65.011      -48.365       -2.777       37.060       30.452       18.004     1373.412      927.297      324.153        0.460        0.131       81.029       18.222        0.051      331.482       -0.475      863.356
12/14/2014  06:10:00      -84.023        4.633        1.554       37.257       32.525       23.350     1388.097     1057.898      545.242        0.504        0.150       84.150       22.330        0.070      331.467       -0.498      863.342
12/14/2014  06:11:00      -76.010      -17.597       -9.221       27.551       29.899       19.131      759.071      893.930      365.993        0.410        0.101       78.021       13.450        0.030      331.445       -0.536      863.327
12/14/2014  06:12:00      -52.834       -8.151       -4.429       21.004       22.729       13.050      441.166      516.596      170.293        0.200        0.056       53.459       11.648        0.047      331.513       -0.423      863.307
12/14/2014  06:13:00     -102.801      -14.908      -12.938       53.520       43.009       22.387     2864.367     1849.778      501.192        0.809        0.261      103.877       27.683        0.071      331.509       -0.430      863.289
12/14/2014  06:14:00     -114.321      -57.797      -12.526       35.701       29.749       21.527     1274.585      885.005      463.425        0.959        0.131      128.101       20.267        0.025      331.551       -0.362      863.281
12/14/2014  06:15:00     -154.335      -71.497       -4.950       32.890       39.275       21.371     1081.733     1542.495      456.723        1.602        0.154      170.091       16.895        0.010      331.537       -0.384      863.284
12/14/2014  06:16:00     -216.762      -58.770      -13.383       34.089       30.752       22.011     1162.081      945.674      484.489        2.661        0.130      224.588       17.009        0.006      331.471       -0.496      863.298
12/14/2014  06:17:00     -226.213      -56.912      -10.405       52.447       37.875       26.976     2750.647     1434.487      727.689        2.972        0.246      233.263       27.418        0.014      331.500       -0.449      863.304
12/14/2014  06:18:00     -260.206      -62.259       -6.728       64.860       40.542       32.950     4206.824     1643.685     1085.684        3.928        0.347      267.551       37.590        0.020      331.459       -0.518      863.296
12/14/2014  06:19:00     -246.174      -70.037      -19.297       49.403       55.111       28.358     2440.638     3037.170      804.178        3.608        0.314      255.943       24.885        0.009      331.544       -0.376      863.266
12/14/2014  06:20:00     -235.108      -20.850      -28.916       62.266       53.569       33.377     3877.036     2869.674     1114.051        3.220        0.393      236.031       30.073        0.016      331.567       -0.338      863.236
12/14/2014  06:21:00     -165.057      -34.971      -12.227       95.456       54.888       36.999     9111.770     3012.675     1368.908        2.105        0.675      168.721       36.416        0.047      331.541       -0.379      863.234
12/14/2014  06:22:00     -144.926      -94.888       -7.174       75.310       55.066       32.536     5671.621     3032.261     1058.596        1.991        0.488      173.225       30.694        0.031      331.606       -0.273      863.254
12/14/2014  06:23:00      -22.567      -81.436       -6.326       45.406       38.920       20.396     2061.699     1514.766      415.997        0.559        0.200       84.505       11.340        0.018      331.634       -0.225      863.285
12/14/2014  06:24:00      -31.795      -53.653       -3.458       38.455       45.797       29.249     1478.768     2097.393      855.514        0.417        0.222       62.366       29.175        0.219      331.704       -0.108      863.303
12/14/2014  06:25:00      -10.126      -46.594       -6.626       21.122       31.871       16.808      446.137     1015.735      282.500        0.203        0.087       47.681        3.224        0.005      331.776        0.010      863.325
12/14/2014  06:26:00       38.636       54.875        1.496       53.353       33.648       26.575     2846.525     1132.208      706.251        0.459        0.234       67.112       11.331        0.029      331.778        0.012      863.305
12/14/2014  06:27:00       94.247       62.407       39.954       48.922       39.789       38.413     2393.387     1583.182     1475.542        0.991        0.273      113.036       27.438        0.059      331.662       -0.178      863.285
12/14/2014  06:28:00      123.491       49.068       39.053       62.271       52.063       43.159     3877.717     2710.523     1862.708        1.382        0.423      132.883       33.546        0.064      331.545       -0.370      863.271
12/14/2014  06:29:00       94.958       38.006       44.447       62.549       40.363       40.697     3912.347     1629.211     1656.278        0.982        0.360      102.281       33.600        0.108      331.514       -0.421      863.271
12/14/2014  06:30:00       92.287       78.557       70.544       42.801       45.172       38.411     1831.954     2040.534     1475.378        1.251        0.267      121.195       19.312        0.025      331.530       -0.395      863.272
12/14/2014  06:31:00       52.985       56.795       65.598       44.759       57.283       33.163     2003.355     3281.288     1099.801        0.836        0.319       77.673       35.083        0.204      331.525       -0.403      863.281
12/14/2014  06:32:00       54.336       -5.992       32.663       27.120       60.728       44.104      735.472     3687.931     1945.155        0.521        0.318       54.665       43.189        0.624      331.550       -0.361      863.276
12/14/2014  06:33:00       22.752       26.251       56.790       32.968       51.519       35.047     1086.871     2654.178     1228.269        0.470        0.248       34.738       34.190        0.969      331.596       -0.287      863.260
12/14/2014  06:34:00      106.005       53.618       42.312       49.453       46.720       40.701     2445.560     2182.771     1656.586        1.109        0.314      118.794       32.046        0.073      331.570       -0.330      863.253
12/14/2014  06:35:00       96.408       83.035       72.177       70.059       51.683       42.633     4908.262     2671.155     1817.576        1.540        0.470      127.237       39.410        0.096      331.546       -0.369      863.250
12/14/2014  06:36:00       96.898       93.220       86.970       48.189       42.855       42.863     2322.155     1836.524     1837.263        1.582        0.300      134.459       33.431        0.062      331.499       -0.446      863.261
12/14/2014  06:37:00       79.506       80.794       93.204       44.256       37.995       25.230     1958.602     1443.594      636.535        1.279        0.202      113.353       22.552        0.040      331.532       -0.393      863.270
12/14/2014  06:38:00       66.606       44.156       41.911       47.991       32.797       40.021     2303.102     1075.662     1601.678        0.656        0.249       79.913       32.809        0.169      331.548       -0.367      863.276
12/14/2014  06:39:00       68.399       69.659       82.703       48.828       52.860       44.477     2384.184     2794.161     1978.228        1.176        0.358       97.626       39.360        0.163      331.554       -0.358      863.278
12/14/2014  06:40:00       77.121       93.928       90.564       51.897       43.345       43.386     2693.253     1878.813     1882.331        1.471        0.323      121.532       38.097        0.098      331.571       -0.328      863.295
12/14/2014  06:41:00       79.736       96.639       87.958       53.475       46.607       41.550     2859.563     2172.196     1726.422        1.509        0.338      125.288       29.921        0.057      331.601       -0.278      863.316
12/14/2014  06:42:00      108.860       64.357       16.401       65.853       43.809       37.592     4336.573     1919.254     1413.125        1.196        0.383      126.460       32.313        0.065      331.518       -0.417      863.320
12/14/2014  06:43:00       67.881       42.453       31.098       43.051       29.653       33.112     1853.355      879.324     1096.430        0.560        0.191       80.063       23.976        0.090      331.563       -0.340      863.316
12/14/2014  06:44:00      119.914       52.999       36.112       64.423       38.075       35.559     4150.344     1449.675     1264.442        1.268        0.343      131.104       34.413        0.069      331.521       -0.410      863.303
12/14/2014  06:45:00      107.345       56.219       18.510       40.583       33.371       29.479     1647.009     1113.595      868.990        0.933        0.181      121.176       20.922        0.030      331.493       -0.455      863.306
12/14/2014  06:46:00       74.293       27.916       49.559       29.523       33.997       23.364      871.600     1155.803      545.895        0.566        0.129       79.364       16.626        0.044      331.505       -0.436      863.324
12/14/2014  06:47:00       91.035       44.063       40.454       34.605       30.982       26.361     1197.502      959.892      694.880        0.736        0.143      101.138       19.899        0.039      331.517       -0.417      863.335
12/14/2014  06:48:00       56.594       28.512       18.310       26.767       24.853       19.796      716.472      617.685      391.889        0.304        0.086       63.371       10.064        0.025      331.517       -0.419      863.335
12/14/2014  06:49:00       47.242       34.157       39.238       29.581       23.389       21.232      875.021      547.046      450.798        0.341        0.094       58.296       15.470        0.070      331.540       -0.379      863.336
12/14/2014  06:50:00       25.624       11.220       28.595       26.652       45.616       29.584      710.347     2080.805      875.235        0.263        0.183       27.973       24.476        0.766      331.629       -0.231      863.329
12/14/2014  06:51:00       27.432       27.568       26.505       30.837       30.020       22.868      950.895      901.175      522.954        0.229        0.119       38.891       16.793        0.186      331.577       -0.318      863.309
12/14/2014  06:52:00       55.970       43.965       28.812       30.738       27.010       22.931      944.827      729.514      525.822        0.405        0.110       71.173       12.989        0.033      331.575       -0.322      863.284
12/14/2014  06:53:00       99.203       59.516       26.329       30.802       22.268       21.105      948.746      495.850      445.422        0.798        0.095      115.687       10.382        0.008      331.563       -0.342      863.268
12/14/2014  06:54:00      104.547       71.301       12.591       28.871       27.515       24.180      833.538      757.066      584.651        0.917        0.109      126.546       13.509        0.011      331.518       -0.415      863.262
12/14/2014  06:55:00      112.879       72.580       36.256       33.345       18.733       22.485     1111.891      350.912      505.567        1.065        0.098      134.200       14.961        0.012      331.537       -0.383      863.257
12/14/2014  06:56:00      114.003       66.961       31.110       33.478       20.535       26.309     1120.786      421.688      692.149        1.034        0.112      132.213       20.105        0.023      331.506       -0.436      863.246
12/14/2014  06:57:00       81.328       41.831       12.131       40.960       26.980       29.622     1677.681      727.900      877.461        0.590        0.164       91.455       21.364        0.055      331.513       -0.423      863.241
12/14/2014  06:58:00      100.225       59.960       25.820       34.279       21.223       26.489     1175.071      450.427      701.682        0.832        0.116      116.792       19.457        0.028      331.488       -0.466      863.225
12/14/2014  06:59:00       94.068       76.287       25.896       23.000       17.810       20.608      528.995      317.207      424.698        0.830        0.064      121.114       12.302        0.010      331.449       -0.529      863.214
12/14/2014  07:00:00      106.598       70.378       13.239       23.538       17.408       20.810      554.060      303.051      433.066        0.889        0.065      127.734       12.342        0.009      331.433       -0.556      863.188
12/14/2014  07:01:00       91.847       56.664        3.088       28.428       20.292       13.636      808.140      411.785      185.953        0.653        0.070      107.920       13.741        0.016      331.412       -0.593      863.161
12/14/2014  07:02:00       77.837       49.344        1.984       18.910       21.363       15.371      357.606      456.382      236.263        0.477        0.053       92.160        4.693        0.003      331.404       -0.606      863.141
12/14/2014  07:03:00       29.606       31.628       -0.754       30.218       18.640       11.546      913.123      347.452      133.308        0.164        0.070       43.323       10.059        0.054      331.396       -0.615      863.148
12/14/2014  07:04:00       15.011       24.868        6.242       17.685       19.283       14.160      312.750      371.823      200.496        0.088        0.044       29.047       13.344        0.211      331.437       -0.548      863.158
12/14/2014  07:05:00       17.429       23.852        2.261       15.653       18.807       16.366      245.010      353.705      267.840        0.087        0.043       29.542       12.028        0.166      331.428       -0.564      863.180
12/14/2014  07:06:00       21.262       18.710        5.573       16.358       12.281       10.181      267.575      150.828      103.648        0.068        0.026       28.322        7.900        0.078      331.430       -0.558      863.202
12/14/2014  07:07:00       14.849       25.574       -2.084        9.052       12.057        7.620       81.937      145.382       58.071        0.058        0.014       29.572        7.962        0.072      331.436       -0.550      863.235
12/14/2014  07:08:00       -5.919       30.579       -3.982        5.725        6.980        3.337       32.774       48.725       11.135        0.054        0.005       31.146        1.676        0.003      331.447       -0.532      863.265
12/14/2014  07:09:00      -13.840       14.891       -1.679        9.594        9.914        6.827       92.050       98.286       46.606        0.033        0.012       20.329        7.791        0.147      331.480       -0.478      863.285
12/14/2014  07:10:00      -33.994        4.586       -6.592       24.537       14.105       10.222      602.059      198.955      104.489        0.106        0.045       34.302       11.678        0.116      331.520       -0.414      863.294
12/14/2014  07:11:00     -107.521      -27.224       -2.335       60.521       43.432       20.493     3662.778     1886.322      419.959        0.914        0.298      110.914       22.807        0.042      331.484       -0.471      863.291
12/14/2014  07:12:00     -139.703      -32.363       -2.127       39.046       37.799       24.234     1524.616     1428.732      587.280        1.205        0.177      143.403       20.553        0.021      331.442       -0.540      863.282
12/14/2014  07:13:00     -130.445      -34.013       -4.577       35.980       35.014       22.802     1294.579     1225.953      519.945        1.062        0.152      134.806       18.918        0.020      331.387       -0.631      863.269
12/14/2014  07:14:00     -117.596      -70.773       -5.071       48.572       40.474       25.049     2359.205     1638.135      627.466        1.174        0.231      137.250       24.227        0.031      331.455       -0.520      863.263
12/14/2014  07:15:00      -96.290      -48.571        3.607       48.099       42.479       27.764     2313.514     1804.467      770.820        0.827        0.244      107.847       29.143        0.073      331.419       -0.578      863.269
12/14/2014  07:16:00     -156.096      -22.895        0.752       31.127       27.617       19.919      968.909      762.707      396.778        1.351        0.106      157.766       13.735        0.008      331.392       -0.622      863.273
12/14/2014  07:17:00     -118.882      -13.776       -4.088       40.235       31.658       20.858     1618.843     1002.238      435.056        0.870        0.153      119.677       18.987        0.025      331.385       -0.635      863.265
12/14/2014  07:18:00     -121.083       19.515      -10.962       30.547       23.309       14.569      933.129      543.309      212.257        0.843        0.084      122.646        4.738        0.001      331.367       -0.663      863.248
12/14/2014  07:19:00     -125.724       40.624      -12.914       39.769       26.191       19.804     1581.564      685.970      392.198        1.014        0.133      132.124       18.654        0.020      331.343       -0.702      863.236
12/14/2014  07:20:00     -117.688       38.857      -11.662       28.630       19.884       21.634      819.650      395.373      468.015        0.859        0.084      123.937       14.653        0.014      331.342       -0.704      863.234
12/14/2014  07:21:00      -85.922      -12.242      -12.027       25.120       30.190       19.421      631.020      911.464      377.175        0.480        0.096       86.790       16.596        0.037      331.382       -0.638      863.234
12/14/2014  07:22:00     -120.954       37.867      -17.040       35.646       28.783       17.254     1270.668      828.444      297.699        0.937        0.120      126.743       15.281        0.015      331.377       -0.646      863.232
12/14/2014  07:23:00     -129.132       25.146      -16.132       32.349       35.474       17.287     1046.469     1258.402      298.836        1.009        0.130      131.558       14.864        0.013      331.366       -0.665      863.233
12/14/2014  07:24:00     -105.149      -14.606      -11.833       27.001       33.995       20.497      729.044     1155.689      420.116        0.686        0.115      106.158       15.019        0.020      331.470       -0.494      863.223
12/14/2014  07:25:00      -45.433      -15.552        1.597       61.144       28.758       30.560     3738.570      827.038      933.896        0.390        0.275       48.021       38.477        0.642      331.421       -0.577      863.219
12/14/2014  07:26:00      -92.443      -25.228      -18.408       21.421       34.871       25.654      458.842     1215.987      658.150        0.593        0.117       95.824       17.618        0.034      331.437       -0.548      863.224
12/14/2014  07:27:00      -94.233      -33.957      -13.326       37.690       25.840       19.908     1420.535      667.688      396.323        0.635        0.124      100.165       10.303        0.011      331.449       -0.529      863.240
12/14/2014  07:28:00      -70.236       -8.451       -8.519       13.272       27.087       15.392      176.139      733.726      236.923        0.311        0.057       70.743        4.006        0.003      331.470       -0.496      863.262
12/14/2014  07:29:00      -64.092      -25.458      -10.431       21.721       32.793       20.722      471.794     1075.368      429.413        0.342        0.099       68.963       21.877        0.101      331.433       -0.556      863.275
12/14/2014  07:30:00     -119.513       15.072      -14.760       36.916       29.746       18.249     1362.799      884.807      333.025        0.865        0.129      120.460       15.572        0.017      331.390       -0.624      863.276
12/14/2014  07:31:00      -68.622        3.548      -10.838       25.030       32.520       23.437      626.511     1057.545      549.302        0.354        0.112       68.714       17.899        0.068      331.329       -0.726      863.270
12/14/2014  07:32:00      -79.143      -23.894       -7.411       34.205       20.395       15.531     1169.954      415.948      241.199        0.436        0.091       82.671       17.873        0.047      331.313       -0.752      863.267
12/14/2014  07:33:00      -79.635      -10.190       -8.243       28.800       24.732       17.934      829.453      611.659      321.623        0.414        0.088       80.284       15.628        0.038      331.347       -0.697      863.278
12/14/2014  07:34:00      -96.216      -22.750      -14.479       25.604       23.003       16.415      655.576      529.151      269.445        0.572        0.073       98.869       10.526        0.011      331.366       -0.666      863.275
12/14/2014  07:35:00      -46.092      -32.249       -6.105       25.393       21.315       16.021      644.782      454.318      256.683        0.228        0.068       56.254       16.959        0.091      331.409       -0.594      863.273
12/14/2014  07:36:00      -24.842      -24.555        7.138       30.972       16.968       14.428      959.295      287.919      208.174        0.136        0.073       34.930       17.134        0.241      331.463       -0.507      863.276
12/14/2014  07:37:00      -38.154      -30.336        3.349       18.846       17.667       10.883      355.188      312.117      118.433        0.159        0.039       48.745        7.351        0.023      331.443       -0.539      863.277
12/14/2014  07:38:00      -31.338       -8.271        4.681       17.710       13.817       10.181      313.662      190.913      103.653        0.084        0.030       32.411       10.962        0.114      331.434       -0.554      863.284
12/14/2014  07:39:00      -80.259      -12.205       -7.409       11.825       14.032        8.490      139.819      196.898       72.077        0.353        0.020       81.181        5.192        0.004      331.412       -0.590      863.298
12/14/2014  07:40:00      -54.307      -23.680       -0.797       21.935       23.951       13.807      481.137      573.650      190.636        0.238        0.062       59.245       13.383        0.051      331.464       -0.505      863.312
12/14/2014  07:41:00      -64.492        3.769       -5.998       10.147       12.048        9.422      102.960      145.157       88.770        0.227        0.017       64.603        6.764        0.011      331.447       -0.535      863.318
12/14/2014  07:42:00      -45.225       14.230       -2.041       11.802       11.776        8.651      139.282      138.676       74.833        0.130        0.018       47.411        3.944        0.007      331.452       -0.526      863.325
12/14/2014  07:43:00      -28.332        8.323        0.217       21.697       14.276        8.636      470.757      203.791       74.576        0.081        0.037       29.529        7.754        0.069      331.480       -0.479      863.325
12/14/2014  07:44:00       -7.170       15.097        0.147        8.157       17.604       11.728       66.532      309.900      137.541        0.040        0.026       16.713       11.430        0.468      331.533       -0.391      863.325
12/14/2014  07:45:00       12.360       17.256       -1.688        7.889        8.689       13.031       62.238       75.505      169.817        0.038        0.015       21.226        6.091        0.082      331.522       -0.412      863.310
12/14/2014  07:46:00       24.421       35.944        4.309       11.839       13.448       13.004      140.170      180.856      169.105        0.120        0.025       43.455        8.417        0.038      331.477       -0.484      863.282
12/14/2014  07:47:00       67.230       43.325        6.701       24.029       15.814       17.548      577.391      250.077      307.918        0.379        0.057       79.981       16.509        0.043      331.467       -0.499      863.241
12/14/2014  07:48:00       84.245       55.598        6.259       18.172       14.593       16.995      330.217      212.954      288.832        0.553        0.042      100.937       11.127        0.012      331.471       -0.494      863.206
12/14/2014  07:49:00       55.820       45.041       18.344       16.492       12.469       17.032      271.995      155.472      290.080        0.310        0.036       71.725       13.651        0.036      331.479       -0.481      863.195
12/14/2014  07:50:00       47.575       36.725       17.222       11.127        8.639       11.221      123.808       74.629      125.901        0.212        0.016       60.100        3.701        0.004      331.499       -0.446      863.191
12/14/2014  07:51:00       39.882       38.672       24.035       16.866       13.400       18.458      284.455      179.548      340.699        0.223        0.040       55.552       13.106        0.056      331.525       -0.405      863.199
12/14/2014  07:52:00       22.899       27.220       16.223       16.411       11.326       11.602      269.320      128.269      134.615        0.103        0.027       35.571        2.273        0.004      331.589       -0.299      863.200
12/14/2014  07:53:00        9.150       26.627        8.564       10.442       15.057        7.810      109.040      226.724       60.995        0.063        0.020       28.155        8.697        0.095      331.599       -0.281      863.196
12/14/2014  07:54:00       -3.962       33.850      -10.684       15.137        8.647        5.286      229.134       74.762       27.943        0.080        0.017       34.081        4.383        0.017      331.513       -0.423      863.182
12/14/2014  07:55:00      -12.317       34.775        3.253       18.978       21.814       17.274      360.152      475.854      298.377        0.125        0.057       36.892       16.314        0.196      331.601       -0.278      863.188
12/14/2014  07:56:00        3.031       15.047        5.417       13.926       12.082       13.363      193.938      145.979      178.578        0.039        0.026       15.349        8.038        0.274      331.616       -0.254      863.205
12/14/2014  07:57:00       35.094       19.082       -1.233       15.346       17.041       12.829      235.488      290.393      164.594        0.114        0.035       39.947        8.843        0.049      331.573       -0.325      863.198
12/14/2014  07:58:00       19.614       45.782       -4.695       23.102       31.219       17.380      533.692      974.614      302.052        0.216        0.091       49.807       12.797        0.066      331.558       -0.350      863.205
12/14/2014  07:59:00       22.635       45.959       -1.260       18.611       22.646       13.863      346.379      512.820      192.191        0.184        0.053       51.231       12.500        0.060      331.565       -0.338      863.200
12/14/2014  08:00:00        4.505       77.373      -12.753       11.683       15.046       13.036      136.487      226.382      169.940        0.335        0.027       77.504        8.522        0.012      331.511       -0.427      863.208
12/14/2014  08:01:00       11.986       74.035      -11.293       14.898       23.101       11.215      221.938      533.643      125.778        0.332        0.044       74.999        5.803        0.006      331.506       -0.436      863.221
12/14/2014  08:02:00       10.352       16.355       -3.773       12.637       15.431       11.757      159.701      238.117      138.223        0.046        0.027       19.356       11.860        0.375      331.600       -0.281      863.222
12/14/2014  08:03:00        1.971       46.068       -6.230        8.982       13.802        7.972       80.675      190.497       63.560        0.125        0.017       46.110        8.921        0.037      331.538       -0.380      863.224
12/14/2014  08:04:00      -38.491       21.838        1.990       27.588       22.896       11.804      761.100      524.247      139.333        0.169        0.071       44.255        8.944        0.041      331.645       -0.205      863.235
12/14/2014  08:05:00      -69.711       20.518       -4.706       16.591       12.072       13.583      275.275      145.730      184.507        0.295        0.030       72.667        6.794        0.009      331.630       -0.231      863.246
12/14/2014  08:06:00      -48.701       10.346       -3.018       16.087       16.225       10.763      258.790      263.244      115.845        0.156        0.032       49.788        6.082        0.015      331.609       -0.266      863.257
12/14/2014  08:07:00      -81.748       -4.285       -9.307       21.792       28.003       10.455      474.892      784.150      109.302        0.408        0.068       81.860       12.253        0.022      331.646       -0.203      863.267
12/14/2014  08:08:00      -51.866      -38.920       -9.988       14.501       12.856       11.496      210.276      165.282      132.158        0.241        0.025       64.845       10.089        0.024      331.624       -0.239      863.255
12/14/2014  08:09:00      -17.394       -9.549        4.604       14.771       15.373       10.024      218.188      236.318      100.488        0.048        0.028       19.843        9.729        0.240      331.730       -0.067      863.240
12/14/2014  08:10:00      -11.182       -3.867       10.676       20.024       13.106        9.993      400.970      171.774       99.853        0.046        0.034       11.832       11.512        0.947      331.809        0.062      863.233
12/14/2014  08:11:00       -6.935       20.824        4.229       15.803       30.198       16.473      249.743      911.920      271.352        0.097        0.072       21.948       16.344        0.555      331.699       -0.117      863.216
12/14/2014  08:12:00       14.160       74.729       -7.036       12.716       21.140       12.515      161.701      446.904      156.619        0.330        0.038       76.059       10.775        0.020      331.593       -0.293      863.224
12/14/2014  08:13:00        8.225       46.822       -1.961       15.743       16.075       14.674      247.856      258.415      215.319        0.149        0.036       47.539        9.029        0.036      331.645       -0.206      863.235
12/14/2014  08:14:00       32.579       31.974        2.853       27.757       23.614       20.911      770.442      557.627      437.260        0.193        0.088       45.648       15.932        0.122      331.667       -0.169      863.237
12/14/2014  08:15:00       63.568       39.307       19.442       24.485       17.987       25.862      599.513      323.537      668.840        0.378        0.080       74.740       17.055        0.052      331.614       -0.258      863.253
12/14/2014  08:16:00       49.000       49.722        5.325       13.261       11.519       13.539      175.843      132.685      183.311        0.270        0.025       69.809       10.114        0.021      331.544       -0.372      863.265
12/14/2014  08:17:00       40.971       39.759        2.260       12.265       11.512       15.349      150.424      132.538      235.601        0.189        0.026       57.091        4.701        0.007      331.664       -0.175      863.279
12/14/2014  08:18:00       36.475       31.883       15.751       18.322       16.840       18.538      335.707      283.601      343.664        0.178        0.048       48.445       15.136        0.098      331.717       -0.088      863.303
12/14/2014  08:19:00       41.307       23.759        8.634       15.828       14.715       16.025      250.521      216.521      256.805        0.153        0.036       47.653       11.702        0.060      331.685       -0.139      863.308
12/14/2014  08:20:00       32.631       33.518        3.677       18.231       11.016       15.583      332.378      121.350      242.830        0.145        0.035       46.779       10.931        0.055      331.602       -0.277      863.309
12/14/2014  08:21:00       14.167       12.912        1.148       15.293       15.562        8.373      233.875      242.173       70.100        0.046        0.027       19.169       10.375        0.293      331.661       -0.179      863.313
12/14/2014  08:22:00       38.952       24.925        8.029       10.248       10.048        9.153      105.012      100.954       83.773        0.125        0.014       46.244        7.282        0.025      331.622       -0.244      863.323
12/14/2014  08:23:00       31.590       34.380       11.566       10.492        6.596       11.346      110.080       43.510      128.732        0.130        0.014       46.690        6.812        0.021      331.619       -0.250      863.337
12/14/2014  08:24:00       15.576       24.670       17.340        7.228        9.365        6.859       52.243       87.706       47.041        0.067        0.009       29.176        3.993        0.019      331.712       -0.094      863.358
12/14/2014  08:25:00        8.719       21.273        0.979        5.642       10.935        9.104       31.834      119.581       82.884        0.038        0.012       22.990        8.585        0.139      331.643       -0.208      863.358
12/14/2014  08:26:00        3.326       14.525       -3.396        7.858       11.922        6.522       61.756      142.144       42.534        0.024        0.012       14.901        7.556        0.257      331.694       -0.125      863.343
12/14/2014  08:27:00       14.234       23.982        5.889       13.351       17.752       12.028      178.256      315.146      144.672        0.073        0.032       27.888        8.047        0.083      331.759       -0.020      863.345
12/14/2014  08:28:00       30.871       34.982       12.817       18.484       13.543       17.606      341.676      183.416      309.966        0.159        0.042       46.656        7.796        0.028      331.793        0.036      863.344
12/14/2014  08:29:00       49.261       37.958       25.732       20.549       21.085       20.403      422.247      444.596      416.288        0.291        0.064       62.189       12.014        0.037      331.783        0.021      863.335
12/14/2014  08:30:00       33.132       33.639        1.841       13.602        8.277       12.647      185.020       68.507      159.950        0.132        0.021       47.216        5.372        0.013      331.711       -0.097      863.338
12/14/2014  08:31:00        4.996       17.025       -9.944       12.794       11.755        6.263      163.695      138.190       39.222        0.038        0.017       17.743        6.348        0.128      331.710       -0.096      863.328
12/14/2014  08:32:00       18.794       35.753       -0.642       13.652       15.513       10.810      186.383      240.659      116.847        0.109        0.027       40.392        9.916        0.060      331.759       -0.019      863.316
12/14/2014  08:33:00       11.724       18.558        5.395       13.393       19.825       14.070      179.370      393.033      197.964        0.064        0.039       21.952       12.073        0.302      331.832        0.102      863.319
12/14/2014  08:34:00       11.659        5.448        5.189       10.165        7.648       14.346      103.319       58.491      205.807        0.028        0.018       12.870        9.508        0.546      331.866        0.157      863.329
12/14/2014  08:35:00        6.954       16.875       -2.572       16.493       19.420       12.338      272.024      377.139      152.233        0.057        0.040       18.252       10.732        0.346      331.839        0.112      863.336
12/14/2014  08:36:00       45.846       29.843       -0.021       10.067       12.152       11.108      101.344      147.673      123.379        0.168        0.019       54.703        4.666        0.007      331.805        0.056      863.356
12/14/2014  08:37:00       17.248       20.066       -1.757       25.426       15.566       11.948      646.463      242.303      142.748        0.087        0.052       26.460        7.485        0.080      331.884        0.187      863.357
12/14/2014  08:38:00       44.384       12.205        1.521       19.177       21.685       15.039      367.771      470.254      226.163        0.159        0.053       46.031        6.985        0.023      331.848        0.128      863.360
12/14/2014  08:39:00       33.926       20.138       -5.709       27.023       18.972       13.984      730.265      359.933      195.563        0.144        0.064       39.453       11.031        0.078      331.863        0.152      863.360
12/14/2014  08:40:00       70.318       34.895        3.766       16.990       17.288       16.350      288.671      298.885      267.333        0.352        0.043       78.500       10.215        0.017      331.827        0.093      863.350
12/14/2014  08:41:00       36.082       48.775        4.889       30.681       15.778       20.461      941.331      248.942      418.666        0.266        0.080       60.671       14.774        0.059      331.923        0.252      863.346
12/14/2014  08:42:00       27.666       68.610      -10.737       45.720       20.829       13.600     2090.310      433.850      184.968        0.415        0.135       73.977       10.187        0.019      331.895        0.204      863.341
12/14/2014  08:43:00       58.263       33.568        2.262       32.071       18.461       20.719     1028.519      340.817      429.283        0.316        0.090       67.241       19.515        0.084      331.926        0.255      863.343
12/14/2014  08:44:00       76.871       49.805        4.763       23.345       21.908       18.398      544.976      479.977      338.492        0.489        0.068       91.595       11.974        0.017      331.834        0.104      863.362
12/14/2014  08:45:00       64.865       40.595       -2.333       15.900       12.249       12.712      252.799      150.029      161.596        0.321        0.028       76.520        8.021        0.011      331.809        0.061      863.372
12/14/2014  08:46:00       22.576       26.137       -8.803       17.509        8.069        7.412      306.573       65.102       54.940        0.085        0.021       34.538        6.491        0.035      331.822        0.084      863.391
12/14/2014  08:47:00        8.223       32.825        4.154       12.405       25.240       11.239      153.883      637.069      126.319        0.104        0.046       33.839        6.434        0.036      332.032        0.432      863.396
12/14/2014  08:48:00       17.991       42.992        0.796       17.467       17.952       18.372      305.083      322.265      337.528        0.157        0.048       46.605        8.147        0.031      332.089        0.525      863.408
12/14/2014  08:49:00       55.421       50.050       14.327       28.167       17.648       35.425      793.393      311.465     1254.941        0.407        0.118       74.676       18.440        0.061      331.964        0.319      863.406
12/14/2014  08:50:00       14.531       32.718        6.698       14.959       14.075       15.297      223.785      198.107      233.999        0.099        0.033       35.800       10.758        0.090      331.972        0.333      863.404
12/14/2014  08:51:00       -3.352        9.480        9.486       10.588       17.983       14.999      112.111      323.392      224.960        0.043        0.033       10.055        6.435        0.410      332.182        0.679      863.401
12/14/2014  08:52:00       29.463       48.908        1.805       20.153       29.835       19.131      406.148      890.118      365.991        0.246        0.083       57.097       18.076        0.100      332.015        0.404      863.415
12/14/2014  08:53:00       11.360       59.240       -5.622       13.811       24.383       18.933      190.751      594.537      358.445        0.241        0.057       60.320       17.096        0.080      331.990        0.362      863.415
12/14/2014  08:54:00       12.473       73.425      -11.858       14.434       22.884       14.202      208.353      523.656      201.705        0.331        0.047       74.477       11.226        0.023      331.933        0.268      863.409
12/14/2014  08:55:00       15.753       40.919       -5.329       16.976       14.685       16.867      288.172      215.635      284.488        0.137        0.039       43.847       12.498        0.081      332.045        0.453      863.397
12/14/2014  08:56:00       22.623       37.553       -7.647       26.197       15.377       16.385      686.257      236.444      268.481        0.159        0.060       43.841       10.080        0.053      332.091        0.528      863.398
12/14/2014  08:57:00       64.230       41.419        0.176       18.927       19.536       20.616      358.221      381.654      425.029        0.350        0.058       76.427        3.550        0.002      332.082        0.514      863.390
12/14/2014  08:58:00       20.725       41.909       16.271       17.564       20.705       26.082      308.498      428.679      680.267        0.193        0.071       46.754       16.236        0.121      332.142        0.613      863.415
12/14/2014  08:59:00        4.577       40.041       38.421       14.333       22.380       15.612      205.421      500.863      243.730        0.203        0.048       40.302        8.852        0.048      332.207        0.719      863.442
12/14/2014  09:00:00        1.877       66.406       -2.961       13.281       33.509       20.199      176.391     1122.830      408.009        0.306        0.085       66.433       22.771        0.117      332.037        0.439      863.482
12/14/2014  09:01:00        7.747       71.121       -7.967       17.037       24.566       13.492      290.275      603.496      182.026        0.313        0.054       71.542       10.849        0.023      332.000        0.377      863.508
12/14/2014  09:02:00       36.014       31.462       -3.365       15.021       16.170       18.068      225.639      261.470      326.440        0.156        0.041       47.821       13.454        0.079      332.053        0.466      863.524
12/14/2014  09:03:00       26.025       31.715       -0.814       19.367       17.705       15.242      375.084      313.457      232.309        0.130        0.046       41.027       12.979        0.100      332.106        0.553      863.510
12/14/2014  09:04:00        2.861       77.421      -12.243       13.593       23.550       11.863      184.768      554.610      140.721        0.352        0.044       77.474       12.107        0.024      332.035        0.436      863.496
12/14/2014  09:05:00       47.860       49.825       11.396       38.379       29.808       22.568     1472.914      888.515      509.326        0.389        0.144       69.088       17.504        0.064      332.175        0.666      863.455
12/14/2014  09:06:00       89.673       72.396       -6.109       22.928       19.194       18.010      525.675      368.394      324.350        0.727        0.061      115.249       11.067        0.009      332.076        0.504      863.433
12/14/2014  09:07:00      117.140       64.576        1.859       46.890       34.137       31.390     2198.704     1165.326      985.309        1.112        0.217      133.760       27.234        0.041      332.081        0.513      863.404
12/14/2014  09:08:00       92.058       46.365       -2.155       21.816       33.011       23.485      475.940     1089.705      551.553        0.637        0.106      103.074       11.107        0.012      332.049        0.461      863.401
12/14/2014  09:09:00       39.144       14.300        7.434       35.507       25.086       16.728     1260.765      629.292      279.824        0.198        0.108       41.674       10.694        0.066      332.232        0.760      863.404
12/14/2014  09:10:00      108.943       67.907        5.344       31.398       26.674       28.943      985.844      711.495      837.698        0.952        0.127      128.375        9.487        0.005      332.108        0.557      863.414
12/14/2014  09:11:00       91.371       66.896        6.181       35.532       28.539       31.184     1262.507      814.473      972.472        0.796        0.152      113.241       16.935        0.022      332.086        0.520      863.440
12/14/2014  09:12:00       80.855       61.846        8.887       22.411       19.099       19.144      502.239      364.771      366.485        0.584        0.062      101.797        8.585        0.007      332.132        0.595      863.457
12/14/2014  09:13:00       62.600       45.680       15.998       45.321       37.314       25.662     2054.019     1392.337      658.551        0.518        0.205       77.495       22.754        0.086      332.187        0.689      863.482
12/14/2014  09:14:00       25.445       93.736      -10.600       20.013       30.555       17.235      400.511      933.617      297.047        0.559        0.082       97.128       15.353        0.025      332.149        0.623      863.501
12/14/2014  09:15:00       24.035       65.446      -10.293       30.023       24.430       18.148      901.378      596.842      329.352        0.340        0.091       69.720       17.246        0.061      332.214        0.729      863.506
12/14/2014  09:16:00       38.852       47.236        4.392       26.723       24.484       21.231      714.120      599.446      450.739        0.276        0.088       61.162       11.407        0.035      332.367        0.984      863.517
12/14/2014  09:17:00       65.008       40.749        1.258       32.486       19.557       21.067     1055.332      382.474      443.804        0.388        0.094       76.724       15.457        0.041      332.298        0.869      863.513
12/14/2014  09:18:00       62.619       31.131       -1.614       35.097       30.025       20.389     1231.781      901.483      415.694        0.372        0.127       69.931        5.712        0.007      332.281        0.842      863.513
12/14/2014  09:19:00       -2.488       66.951       -4.557       10.783       30.511       14.878      116.284      930.913      221.366        0.289        0.063       66.998       17.615        0.069      332.386        1.015      863.501
12/14/2014  09:20:00       -5.074       54.395        3.240       17.273       23.040       17.457      298.350      530.820      304.763        0.206        0.057       54.631       15.115        0.077      332.521        1.237      863.498
12/14/2014  09:21:00        7.481       67.463        0.485       19.804       38.094       23.323      392.181     1451.139      543.975        0.350        0.119       67.876       26.180        0.149      332.505        1.212      863.491
12/14/2014  09:22:00        0.606      109.679      -15.753       15.197       16.086        9.316      230.958      258.759       86.796        0.643        0.029      109.680        3.345        0.001      332.293        0.860      863.483
12/14/2014  09:23:00       38.273       79.644        4.086       51.118       37.475       26.068     2613.072     1404.397      679.541        0.626        0.235       88.363       27.451        0.097      332.530        1.251      863.466
12/14/2014  09:24:00       40.107       37.095        6.163       34.872       22.936       26.523     1216.084      526.055      703.470        0.273        0.122       54.631       20.171        0.136      332.764        1.640      863.457
12/14/2014  09:25:00        9.087       77.758        1.184       31.192       56.773       31.080      972.918     3223.208      965.968        0.565        0.258       78.288       30.190        0.149      332.654        1.458      863.441
12/14/2014  09:26:00       46.817       39.371       21.517       49.730       48.780       38.480     2473.084     2379.468     1480.746        0.527        0.317       61.171       24.696        0.163      332.687        1.512      863.440
12/14/2014  09:27:00       -3.832       41.684       58.238       25.632       39.942       22.720      657.011     1595.341      516.214        0.396        0.138       41.860       20.623        0.243      332.923        1.902      863.427
12/14/2014  09:28:00        5.199       14.304       43.404       21.181       40.876       26.019      448.626     1670.814      676.986        0.246        0.140       15.219       28.763        3.572      333.089        2.175      863.440
12/14/2014  09:29:00       32.888       51.182       46.117       39.881       37.030       43.898     1590.526     1371.243     1927.025        0.536        0.244       60.838       35.347        0.338      332.810        1.715      863.444
12/14/2014  09:30:00       65.680       42.452       34.264       27.811       25.739       29.752      773.428      662.482      885.198        0.481        0.116       78.204       20.211        0.067      332.575        1.327      863.434
12/14/2014  09:31:00       61.030       50.001       33.955       26.135       17.397       21.911      683.035      302.653      480.109        0.442        0.073       78.897       15.796        0.040      332.563        1.306      863.425
12/14/2014  09:32:00       32.473        0.837        6.611       26.297       20.442       25.015      691.508      417.873      625.741        0.142        0.087       32.483       18.828        0.336      332.658        1.463      863.421
12/14/2014  09:33:00        3.308       30.663       42.814       17.103       23.436       20.980      292.517      549.227      440.180        0.203        0.064       30.841       14.012        0.206      333.130        2.242      863.401
12/14/2014  09:34:00       33.792       71.964       65.641       57.372       36.381       36.217     3291.596     1323.569     1311.644        0.828        0.296       79.503       29.562        0.138      332.865        1.806      863.396
12/14/2014  09:35:00       82.750       60.152       39.015       15.308       11.526       25.198      234.326      132.841      634.958        0.649        0.050      102.303        7.775        0.006      332.595        1.359      863.393
12/14/2014  09:36:00       63.063       61.029       59.129       26.263       29.291       27.473      689.740      857.975      754.741        0.675        0.115       87.758        9.997        0.013      332.752        1.619      863.373
12/14/2014  09:37:00       76.354       54.495       36.081       34.364       24.338       31.084     1180.863      592.314      966.227        0.642        0.137       93.806       18.585        0.039      332.778        1.662      863.341
12/14/2014  09:38:00       62.034       47.750       -5.432       33.685       19.326       19.992     1134.678      373.500      399.696        0.403        0.095       78.283       11.095        0.020      332.664        1.473      863.321
12/14/2014  09:39:00       69.099       71.517       18.512       29.775       32.105       27.245      886.563     1030.716      742.281        0.645        0.133       99.445       23.879        0.058      332.872        1.817      863.311
12/14/2014  09:40:00       38.819       27.112       17.801       23.275       12.529       27.886      541.718      156.968      777.611        0.202        0.074       47.350       20.015        0.179      332.701        1.536      863.319
12/14/2014  09:41:00      -12.324       36.478       -9.804       13.742       20.534       10.351      188.833      421.653      107.141        0.115        0.036       38.503        7.880        0.042      332.709        1.548      863.318
12/14/2014  09:42:00        2.041       26.864        4.404       13.638       22.888       17.944      185.986      523.876      321.970        0.089        0.052       26.942       17.688        0.431      333.114        2.217      863.317
12/14/2014  09:43:00       28.676       22.739       37.989       34.578       29.418       24.453     1195.627      865.422      597.933        0.272        0.133       36.597       17.850        0.238      333.398        2.686      863.320
12/14/2014  09:44:00       77.889       60.679       44.316       39.960       33.375       32.987     1596.809     1113.913     1088.126        0.775        0.190       98.735       20.986        0.045      332.898        1.861      863.322
12/14/2014  09:45:00       51.860       41.249       11.267       21.791       21.002       23.112      474.833      441.067      534.180        0.298        0.073       66.264       10.811        0.027      332.921        1.898      863.327
12/14/2014  09:46:00        1.269       35.266       32.345       18.783       32.375       29.489      352.800     1048.153      869.584        0.228        0.114       35.288       11.219        0.101      333.382        2.660      863.327
12/14/2014  09:47:00       28.570       40.705       39.702       24.497       29.916       21.325      600.125      894.938      454.753        0.300        0.097       49.731       13.977        0.079      333.333        2.578      863.313
12/14/2014  09:48:00       22.726       39.834       39.907       46.019       28.840       35.515     2117.751      831.754     1261.313        0.395        0.211       45.861       32.570        0.504      333.364        2.630      863.300
12/14/2014  09:49:00       46.674       60.572       48.821       47.927       41.220       45.745     2296.956     1699.064     2092.640        0.716        0.304       76.469       36.624        0.229      333.159        2.291      863.284
12/14/2014  09:50:00       39.181       52.551       49.539       45.453       42.078       34.811     2065.955     1770.571     1211.793        0.590        0.252       65.550       20.299        0.096      333.257        2.453      863.276
12/14/2014  09:51:00       12.967       52.654       63.525       39.390       38.937       35.161     1551.547     1516.116     1236.313        0.564        0.215       54.227       24.838        0.210      333.262        2.461      863.276
12/14/2014  09:52:00       22.777        5.755       39.753       40.887       40.104       37.144     1671.715     1608.291     1379.656        0.339        0.233       23.493       21.038        0.802      333.345        2.600      863.289
12/14/2014  09:53:00       43.901        5.322       41.240       49.600       63.855       52.047     2460.176     4077.494     2708.928        0.645        0.462       44.223       50.500        1.304      333.363        2.628      863.304
12/14/2014  09:54:00        6.053       85.039       96.274       26.360       43.146       24.107      694.851     1861.591      581.124        0.984        0.157       85.254       26.285        0.095      333.156        2.286      863.316
12/14/2014  09:55:00       35.269       97.611       83.677       26.831       27.716       18.795      719.927      768.155      353.247        0.981        0.092      103.788       15.893        0.023      332.971        1.982      863.326
12/14/2014  09:56:00       68.013       69.273       60.615       36.765       23.139       24.985     1351.629      535.399      624.274        0.780        0.126       97.080       15.795        0.026      332.979        1.994      863.341
12/14/2014  09:57:00       77.666       72.558       43.486       37.005       25.631       26.354     1369.397      656.924      694.555        0.795        0.136      106.286       15.916        0.022      332.954        1.953      863.372
12/14/2014  09:58:00       53.173       69.033       58.024       40.539       30.703       22.857     1643.404      942.689      522.463        0.703        0.155       87.137       18.999        0.048      332.982        2.000      863.403
12/14/2014  09:59:00      -47.282       -4.010       -4.383       68.215       38.262       34.296     4653.348     1463.994     1176.200        0.478        0.365       47.452       30.079        0.402      333.073        2.150      863.434
12/14/2014  10:00:00      -13.967      -38.883       13.551       48.954       25.768       23.482     2396.524      663.978      551.404        0.275        0.181       41.316       26.942        0.425      333.279        2.489      863.455
12/14/2014  10:01:00      -58.880      -25.435       -1.935       22.154       18.648       17.340      490.782      347.754      300.689        0.263        0.057       64.138       13.640        0.045      333.065        2.135      863.466
12/14/2014  10:02:00      -36.176      -14.748        1.632       23.986       19.735       12.873      575.314      389.463      165.713        0.133        0.057       39.067       10.926        0.078      333.218        2.390      863.470
12/14/2014  10:03:00        0.932        1.650        0.431       20.476       17.207       15.337      419.276      296.067      235.223        0.048        0.048        1.895       11.427       36.360      333.468        2.802      863.484
12/14/2014  10:04:00      -10.294       -8.939        3.178       19.401       26.383       18.043      376.399      696.069      325.559        0.080        0.070       13.633       16.046        1.385      333.428        2.737      863.515
12/14/2014  10:05:00       -9.942      -18.564        3.503       13.369       19.694       11.907      178.725      387.839      141.781        0.058        0.035       21.058        4.364        0.043      333.359        2.621      863.520
12/14/2014  10:06:00      -15.849      -12.721        5.919       20.524       18.628       13.984      421.229      347.018      195.555        0.071        0.048       20.323        7.294        0.129      333.492        2.844      863.516
12/14/2014  10:07:00      -21.940      -11.477       -8.393       18.236       15.219       15.315      332.564      231.627      234.559        0.074        0.040       24.760        6.552        0.070      333.248        2.437      863.496
12/14/2014  10:08:00       14.342       26.736        5.456       18.490       19.940       20.046      341.875      397.604      401.854        0.105        0.057       30.340       12.404        0.167      333.404        2.696      863.461
12/14/2014  10:09:00       21.988       44.851        2.755       29.468       25.953       22.104      868.353      673.536      488.595        0.227        0.102       49.951       14.753        0.087      333.557        2.951      863.420
12/14/2014  10:10:00      -11.124       16.772       50.825       18.570       29.145       23.772      344.856      849.432      565.122        0.237        0.088       20.126       22.626        1.264      333.943        3.589      863.376
12/14/2014  10:11:00       -0.659       30.238       48.356       20.152       27.761       20.688      406.119      770.664      428.002        0.243        0.080       30.245       15.517        0.263      333.663        3.127      863.357
12/14/2014  10:12:00       41.088       30.647       31.268       40.870       34.116       21.344     1670.318     1163.873      455.553        0.345        0.164       51.259       18.741        0.134      333.780        3.319      863.349
12/14/2014  10:13:00       78.236       48.755        8.308       50.003       48.986       41.455     2500.287     2399.604     1718.558        0.759        0.331       92.184       26.721        0.084      333.447        2.768      863.346
12/14/2014  10:14:00       28.220       47.831       53.047       46.147       49.747       44.770     2129.504     2474.793     2004.336        0.625        0.330       55.536       43.300        0.608      333.636        3.080      863.355
12/14/2014  10:15:00       81.750       79.534       83.663       57.355       49.329       41.397     3289.604     2433.308     1713.723        1.372        0.372      114.056       35.164        0.095      333.427        2.733      863.368
12/14/2014  10:16:00      106.158       48.971       59.254       57.542       96.205       66.268     3311.027     9255.430     4391.431        1.706        0.848      116.909       68.728        0.346      333.258        2.453      863.377
12/14/2014  10:17:00       87.798       78.714       44.755       79.916       51.786       61.265     6386.571     2681.805     3753.435        1.436        0.641      117.917       59.108        0.251      333.539        2.919      863.370
12/14/2014  10:18:00      153.627       88.172        5.973       35.614       37.915       38.032     1268.376     1437.510     1446.415        1.778        0.208      177.131       13.384        0.006      333.246        2.433      863.384
12/14/2014  10:19:00       46.370       70.420       67.639       49.511       50.476       56.388     2451.318     2547.790     3179.650        0.993        0.409       84.316       32.764        0.151      333.765        3.295      863.394
12/14/2014  10:20:00       69.253      131.031      119.053       68.933       55.537       49.485     4751.707     3084.410     2448.803        2.321        0.514      148.206       47.480        0.103      333.402        2.692      863.390
12/14/2014  10:21:00       71.500      117.902      103.064       53.050       40.063       28.626     2814.344     1605.016      819.440        1.744        0.262      137.889        7.912        0.003      333.361        2.625      863.406
12/14/2014  10:22:00        9.659       39.861       70.694       41.146       36.363       24.857     1692.956     1322.243      617.860        0.516        0.182       41.014       19.508        0.226      333.733        3.243      863.416
12/14/2014  10:23:00       29.936       42.129       36.047       45.523       33.235       45.569     2072.373     1104.579     2076.533        0.461        0.263       51.682       34.724        0.451      333.682        3.157      863.426
12/14/2014  10:24:00       67.628       54.258       44.372       56.014       31.035       42.941     3137.532      963.175     1843.956        0.771        0.297       86.704       30.969        0.128      333.538        2.918      863.416
12/14/2014  10:25:00       63.663       94.163       97.307       86.950       64.058       52.163     7560.223     4103.421     2720.967        1.838        0.719      113.665       55.182        0.236      333.536        2.914      863.392
12/14/2014  10:26:00      109.858      109.038       57.448       57.027       57.502       55.253     3252.032     3306.489     3052.849        1.843        0.481      154.784       40.485        0.068      333.334        2.579      863.379
12/14/2014  10:27:00       28.778       24.488       19.641       38.055       46.047       41.800     1448.181     2120.297     1747.254        0.356        0.266       37.787       13.423        0.126      333.456        2.782      863.362
12/14/2014  10:28:00       71.351       55.418       17.429       49.474       51.322       30.170     2447.686     2633.962      910.218        0.723        0.300       90.344       24.450        0.073      333.624        3.060      863.340
12/14/2014  10:29:00       65.277       20.785       33.604       48.638       57.189       44.734     2365.694     3270.566     2001.166        0.673        0.382       68.506       37.340        0.297      333.758        3.283      863.316
12/14/2014  10:30:00       74.757      102.996       85.757       61.974       61.641       53.270     3840.785     3799.646     2837.662        1.701        0.524      127.266       51.353        0.163      333.745        3.261      863.274
12/14/2014  10:31:00       49.915      132.863      122.594       67.707       48.660       51.390     4584.267     2367.784     2640.982        2.238        0.480      141.930       46.721        0.108      333.719        3.216      863.247
12/14/2014  10:32:00       73.464      -59.362       15.676       60.108       53.809       39.909     3613.029     2895.383     1592.699        0.863        0.405       94.450       41.988        0.198      333.569        2.969      863.227
12/14/2014  10:33:00       45.425      -41.797       10.035       37.416       52.737       35.047     1399.929     2781.161     1228.276        0.466        0.270       61.728       32.710        0.281      333.708        3.200      863.207
12/14/2014  10:34:00       75.403     -167.085      -13.996       49.861       51.103       36.095     2486.126     2611.538     1302.823        2.010        0.320      183.311       27.551        0.023      333.480        2.822      863.199
12/14/2014  10:35:00       96.131     -120.829      -11.315       43.905       71.116       42.512     1927.658     5057.420     1807.240        1.638        0.440      154.405       42.761        0.077      333.594        3.010      863.203
12/14/2014  10:36:00       49.993       -2.173       23.033       37.903       60.936       40.059     1436.623     3713.254     1604.688        0.489        0.338       50.040       42.295        0.714      333.448        2.770      863.223
12/14/2014  10:37:00       13.541      -29.090       16.551       21.425       53.917       31.198      459.024     2907.016      973.309        0.282        0.217       32.087       35.436        1.220      333.669        3.137      863.222
12/14/2014  10:38:00       65.923       63.645       39.998       43.224       37.199       34.911     1868.298     1383.740     1218.756        0.723        0.224       91.632       22.032        0.058      333.735        3.245      863.223
12/14/2014  10:39:00        0.269       47.924       60.675       36.755       43.966       31.019     1350.962     1933.019      962.196        0.511        0.212       47.925       21.728        0.206      334.347        4.261      863.215
12/14/2014  10:40:00       -0.575       47.577        5.472       27.843       65.512       29.086      775.253     4291.860      845.973        0.410        0.296       47.580       28.798        0.366      333.943        3.590      863.201
12/14/2014  10:41:00       65.301       69.592       44.942       49.190       39.477       49.965     2419.643     1558.396     2496.549        0.880        0.324       95.432       34.255        0.129      333.808        3.365      863.174
12/14/2014  10:42:00       57.156       66.716       85.984       67.615       62.853       37.857     4571.795     3950.464     1433.181        1.253        0.498       87.851       28.542        0.106      334.016        3.709      863.159
12/14/2014  10:43:00       43.630      -60.362       12.459       31.695       44.590       30.791     1004.604     1988.270      948.096        0.482        0.197       74.479       24.804        0.111      333.809        3.368      863.148
12/14/2014  10:44:00       39.832       -7.491       54.660       57.733       73.912       40.168     3333.152     5462.949     1613.498        0.752        0.520       40.530       42.581        1.104      334.130        3.898      863.139
12/14/2014  10:45:00       71.034      -95.287       -1.115       50.680       74.212       42.843     2568.486     5507.453     1835.529        1.202        0.496      118.851       46.195        0.151      333.940        3.585      863.123
12/14/2014  10:46:00       57.289       -8.403       58.657       53.586       72.264       41.117     2871.445     5222.098     1690.633        0.829        0.489       57.902       43.592        0.567      334.103        3.855      863.117
12/14/2014  10:47:00       53.933       25.631       38.887       42.943       28.183       36.828     1844.123      794.262     1356.305        0.454        0.200       59.714       13.495        0.051      333.771        3.305      863.112
12/14/2014  10:48:00       23.503      -17.833        5.712       25.934       40.848       28.496      672.586     1668.541      812.002        0.203        0.158       29.502       17.720        0.361      333.997        3.680      863.091
12/14/2014  10:49:00       18.168      -18.900       21.771       18.808       21.694       18.281      353.746      470.614      334.184        0.116        0.058       26.216       12.953        0.244      333.849        3.435      863.054
12/14/2014  10:50:00        5.634       11.243       31.505       22.187       18.887       14.115      492.264      356.718      199.244        0.110        0.052       12.576        9.169        0.532      333.997        3.680      863.023
12/14/2014  10:51:00       25.240      -10.773       34.309       40.161       49.199       25.538     1612.871     2420.571      652.166        0.331        0.234       27.443       28.249        1.060      333.894        3.508      862.990
12/14/2014  10:52:00       30.249      -27.881       23.121       25.558       27.728       25.800      653.198      768.867      665.649        0.216        0.104       41.138       21.174        0.265      334.087        3.829      862.957
12/14/2014  10:53:00       23.844       46.967       45.926       21.770       23.618       17.454      473.938      557.827      304.635        0.311        0.067       52.673        9.132        0.030      334.236        4.075      862.926
12/14/2014  10:54:00       65.432       47.574       11.731       46.329       27.528       30.257     2146.357      757.814      915.504        0.525        0.191       80.899       17.727        0.048      333.865        3.460      862.910
12/14/2014  10:55:00       19.684       43.001       13.140       21.023       30.563       25.196      441.981      934.073      634.856        0.221        0.101       47.293       18.760        0.157      334.149        3.931      862.896
12/14/2014  10:56:00        5.630       19.112       15.782       33.935       33.815       18.745     1151.602     1143.461      351.373        0.165        0.132       19.924       12.982        0.425      334.141        3.920      862.885
12/14/2014  10:57:00       17.074       62.653       61.181       54.649       45.948       34.305     2986.474     2111.174     1176.822        0.712        0.314       64.938       13.053        0.040      334.479        4.479      862.873
12/14/2014  10:58:00       77.529       63.733       21.485       47.734       39.561       29.223     2278.571     1565.088      853.957        0.762        0.235      100.363       19.162        0.036      334.078        3.814      862.862
12/14/2014  10:59:00      140.967      112.428       68.937       46.405       41.323       40.705     2153.399     1707.576     1656.911        2.139        0.276      180.311       21.159        0.014      333.781        3.321      862.855
12/14/2014  11:00:00       75.784       92.657       64.616       39.573       31.018       39.256     1566.040      962.134     1541.031        1.129        0.203      119.702       19.172        0.026      333.731        3.236      862.843
12/14/2014  11:01:00       22.035       55.506       22.976       31.441       20.445       40.829      988.550      418.016     1666.995        0.358        0.154       59.720       29.868        0.250      333.747        3.265      862.834
12/14/2014  11:02:00       19.925       20.946       22.410       30.495       33.966       28.318      929.951     1153.715      801.929        0.211        0.144       28.909       25.717        0.791      334.182        3.987      862.808
12/14/2014  11:03:00       53.713       43.549       17.862       43.125       24.047       23.829     1859.769      578.280      567.809        0.405        0.150       69.149        9.019        0.017      334.099        3.849      862.793
12/14/2014  11:04:00       10.851       29.835      -12.228       18.408       34.376       20.641      338.863     1181.708      426.066        0.155        0.097       31.747       14.486        0.208      334.223        4.054      862.776
12/14/2014  11:05:00       23.803       90.238       13.707       29.734       39.839       41.157      884.112     1587.130     1693.906        0.653        0.208       93.325       11.698        0.016      334.251        4.100      862.761
12/14/2014  11:06:00       18.187       88.041        2.425       38.119       29.119       27.789     1453.022      847.925      772.224        0.558        0.154       89.900       15.709        0.031      334.395        4.339      862.754
12/14/2014  11:07:00       30.056       83.499      -14.618       54.249       52.009       27.686     2942.951     2704.953      766.528        0.725        0.321       88.743       28.196        0.101      334.115        3.876      862.765
12/14/2014  11:08:00      -22.476       36.694        8.162       20.709       40.185       23.881      428.857     1614.839      570.295        0.227        0.131       43.031       21.264        0.244      334.236        4.076      862.765
12/14/2014  11:09:00      -25.543       66.370        3.533       31.142       37.463       24.366      969.843     1403.464      593.708        0.402        0.148       71.116       21.928        0.095      334.166        3.959      862.763
12/14/2014  11:10:00      -20.591       35.968      -17.128       19.311       23.144       12.832      372.904      535.662      164.656        0.154        0.054       41.445       10.597        0.065      333.917        3.547      862.759
12/14/2014  11:11:00       -4.165       79.602      -15.040       52.023       35.046       22.130     2706.378     1228.200      489.739        0.550        0.221       79.711       11.888        0.022      333.916        3.545      862.736
12/14/2014  11:12:00       11.225       40.888        5.691       31.474       42.133       22.615      990.606     1775.213      511.452        0.255        0.164       42.401       22.672        0.286      334.308        4.196      862.710
12/14/2014  11:13:00        7.983       25.466       13.923       17.823       21.445       19.731      317.645      459.878      389.323        0.104        0.058       26.688       11.808        0.196      334.641        4.748      862.671
12/14/2014  11:14:00       -2.965       23.364       57.923       33.481       69.490       44.782     1121.004     4828.867     2005.446        0.593        0.398       23.551       44.050        3.498      334.679        4.810      862.630
12/14/2014  11:15:00      -15.407       38.328       76.545       27.952       50.576       40.863      781.327     2557.940     1669.819        0.629        0.250       41.309       37.145        0.809      334.463        4.452      862.588
12/14/2014  11:16:00       99.438     -176.281      -19.039       56.177       57.922       50.871     3155.897     3354.977     2587.829        2.521        0.455      202.393       40.963        0.041      334.310        4.194      862.571
12/14/2014  11:17:00       51.375        9.217       64.317       66.183       91.285       66.901     4380.213     8332.984     4475.686        1.202        0.859       52.195       66.852        1.640      334.604        4.686      862.548
12/14/2014  11:18:00       16.018       18.485       39.923       26.646       20.390       24.897      710.006      415.770      619.854        0.197        0.087       24.460       16.768        0.470      334.515        4.538      862.538
12/14/2014  11:19:00       16.610       20.047       36.147       29.923       30.210       25.731      895.362      912.658      662.088        0.223        0.124       26.034       17.305        0.442      334.616        4.707      862.487
12/14/2014  11:20:00       22.214      -11.682       47.888       31.046       62.647       27.186      963.871     3924.666      739.093        0.427        0.281       25.099       25.299        1.016      334.504        4.520      862.461
12/14/2014  11:21:00       28.266       11.609       47.027       31.782       54.194       28.872     1010.099     2936.991      833.597        0.396        0.239       30.557       32.071        1.102      334.731        4.897      862.427
12/14/2014  11:22:00       59.758       64.678       60.195       61.223       44.607       23.487     3748.216     1989.770      551.629        0.883        0.314       88.059       20.094        0.052      334.643        4.750      862.389
12/14/2014  11:23:00       75.634       75.922       66.926       66.442       47.343       57.573     4414.506     2241.329     3314.617        1.297        0.499      107.166       41.589        0.151      334.151        3.934      862.350
12/14/2014  11:24:00       19.427       29.475       61.613       52.691       50.275       25.152     2776.291     2527.575      632.628        0.549        0.297       35.301       20.134        0.325      334.656        4.772      862.315
12/14/2014  11:25:00       16.888       11.036       52.104       31.239       57.717       30.599      975.875     3331.306      936.301        0.418        0.262       20.174       34.097        2.857      334.793        5.000      862.285
12/14/2014  11:26:00       58.952       27.237       64.284       60.438       74.463       40.454     3652.796     5544.691     1636.563        0.959        0.542       64.940       44.056        0.460      334.558        4.609      862.276
12/14/2014  11:27:00       75.218       95.717       56.719       46.271       29.302       48.654     2140.991      858.618     2367.255        1.170        0.268      121.735       34.778        0.082      334.094        3.838      862.256
12/14/2014  11:28:00      100.521       83.871       70.825       57.482       70.591       46.107     3304.218     4983.098     2125.860        1.628        0.521      130.916       44.791        0.117      334.120        3.881      862.255
12/14/2014  11:29:00       66.269       56.134       61.426       60.228       45.202       41.228     3627.424     2043.239     1699.752        0.934        0.369       86.848       38.313        0.195      334.276        4.142      862.237
12/14/2014  11:30:00        3.651       40.350       61.786       26.908       51.889       43.917      724.049     2692.476     1928.692        0.540        0.267       40.515       40.741        1.011      334.515        4.540      862.220
12/14/2014  11:31:00       69.858       78.809       62.599       58.113       38.335       41.042     3377.171     1469.605     1684.466        1.077        0.327      105.314       36.007        0.117      334.247        4.093      862.177
12/14/2014  11:32:00       98.772       69.805       32.198       44.297       37.968       36.930     1962.189     1441.533     1363.830        1.022        0.238      120.949       14.749        0.015      334.185        3.992      862.136
12/14/2014  11:33:00       83.798       57.751       37.438       49.972       43.646       43.638     2497.180     1904.932     1904.290        0.903        0.315      101.770       42.760        0.177      334.432        4.400      862.108
12/14/2014  11:34:00       85.953       85.861       37.859       56.043       48.748       48.031     3140.844     2376.367     2306.937        1.201        0.391      121.491       19.848        0.027      334.498        4.510      862.083
12/14/2014  11:35:00       82.735       62.005       16.562       54.609       42.826       30.393     2982.097     1834.097      923.754        0.835        0.287      103.391       20.497        0.039      334.356        4.274      862.085
12/14/2014  11:36:00       97.529       65.946        3.643       51.210       35.526       32.600     2622.440     1262.084     1062.768        0.941        0.247      117.731       18.503        0.025      334.346        4.258      862.090
12/14/2014  11:37:00       76.945       76.929        5.002       46.249       49.315       38.813     2139.000     2431.964     1506.456        0.897        0.304      108.805       31.058        0.081      334.288        4.162      862.084
12/14/2014  11:38:00       61.236       72.078        4.141       74.766       50.574       44.118     5589.914     2557.722     1946.418        0.953        0.505       94.578       33.207        0.123      334.511        4.531      862.078
12/14/2014  11:39:00       64.208       74.193        4.513       24.415       40.572       30.560      596.104     1646.101      933.887        0.641        0.159       98.119       18.925        0.037      334.384        4.321      862.063
12/14/2014  11:40:00       78.684       36.908        4.500       56.076       44.246       33.744     3144.553     1957.714     1138.643        0.691        0.312       86.911       27.353        0.099      334.406        4.358      862.038
12/14/2014  11:41:00      110.909       72.921       36.916       57.006       35.975       41.384     3249.670     1294.182     1712.606        1.262        0.313      132.734       29.300        0.049      334.607        4.690      862.016
12/14/2014  11:42:00       66.687       60.311       43.265       33.133       45.763       36.279     1097.809     2094.219     1316.195        0.723        0.225       89.914       34.872        0.150      334.526        4.558      861.989
12/14/2014  11:43:00        8.482       -6.095       12.547       30.659       34.665       31.219      939.970     1201.673      974.641        0.169        0.156       10.445       27.554        6.959      335.014        5.368      861.983
12/14/2014  11:44:00      -30.876        5.320       -8.194       50.892       28.593       23.758     2589.964      817.561      564.429        0.251        0.199       31.330       19.833        0.401      334.720        4.879      861.988
12/14/2014  11:45:00       -9.639       20.672       21.265       40.268       25.227       25.718     1621.503      636.402      661.412        0.195        0.146       22.809       15.152        0.441      335.081        5.477      861.982
12/14/2014  11:46:00      -18.887       51.920       17.329       47.694       38.651       32.430     2274.703     1493.868     1051.713        0.409        0.241       55.249       25.404        0.211      335.045        5.418      861.973
12/14/2014  11:47:00        0.952       34.180       49.532       22.004       36.089       37.386      484.168     1302.449     1397.728        0.340        0.159       34.193       31.577        0.853      335.302        5.846      861.956
12/14/2014  11:48:00       61.958       73.768       65.338       36.753       29.685       29.812     1350.775      881.211      888.753        0.833        0.156       96.336       23.682        0.060      334.517        4.541      861.928
12/14/2014  11:49:00       14.409       19.330       20.251       26.369       36.305       19.622      695.332     1318.068      385.006        0.169        0.120       24.110       16.487        0.468      335.163        5.615      861.912
12/14/2014  11:50:00        7.030       76.294      -13.654       31.452       31.728       24.512      989.214     1006.648      600.839        0.433        0.130       76.617       11.948        0.024      334.765        4.955      861.906
12/14/2014  11:51:00       30.690       58.163       18.295       30.831       32.349       38.961      950.538     1046.490     1517.953        0.409        0.176       65.763       29.587        0.202      335.072        5.465      861.887
12/14/2014  11:52:00       37.021       65.969       58.120       76.573       48.168       37.406     5863.361     2320.119     1399.225        0.934        0.479       75.647       43.445        0.330      334.994        5.334      861.881
12/14/2014  11:53:00      112.263       87.087       29.688       30.636       20.358       28.718      938.564      414.460      824.728        1.162        0.109      142.081       12.249        0.007      334.435        4.406      861.876
12/14/2014  11:54:00       52.472       64.332       48.516       48.039       57.224       39.175     2307.782     3274.530     1534.646        0.818        0.356       83.017       34.256        0.170      334.836        5.072      861.854
12/14/2014  11:55:00       52.661      -39.694       21.854       88.290       66.531       44.878     7795.148     4426.393     2014.075        0.953        0.712       65.945       52.443        0.632      334.876        5.137      861.843
12/14/2014  11:56:00       58.325      -93.417       -7.310       55.170       86.071       53.787     3043.764     7408.209     2893.061        1.276        0.667      110.129       52.252        0.225      334.807        5.023      861.801
12/14/2014  11:57:00       36.983       -5.720       46.661       43.330       62.670       41.206     1877.490     3927.574     1697.938        0.554        0.375       37.423       41.557        1.233      334.889        5.159      861.781
12/14/2014  11:58:00       37.551      -13.588       50.322       39.681       68.835       40.038     1574.588     4738.216     1603.016        0.602        0.396       39.934       44.815        1.259      334.955        5.270      861.773
12/14/2014  11:59:00        2.777      -20.120       47.901       32.339       65.898       50.687     1045.829     4342.529     2569.138        0.533        0.398       20.311       53.260        6.876      335.112        5.531      861.765
12/14/2014  12:00:00      -29.350      -29.134        2.292       32.414       37.900       22.729     1050.677     1436.439      516.630        0.236        0.150       41.355       16.262        0.155      335.158        5.606      861.758
12/14/2014  12:01:00       23.271       33.480       44.175       33.598       35.798       34.127     1128.859     1281.531     1164.626        0.359        0.179       40.773       17.304        0.180      335.164        5.616      861.743
12/14/2014  12:02:00       42.331       74.438       64.452       46.333       39.085       40.640     2146.725     1527.633     1651.605        0.841        0.266       85.632       32.640        0.145      335.033        5.399      861.706
12/14/2014  12:03:00       95.846       88.468       24.138       80.012       53.661       44.338     6401.875     2879.492     1965.847        1.442        0.562      130.434       49.245        0.143      334.850        5.093      861.682
12/14/2014  12:04:00       66.132       54.014       -5.814       41.725       39.224       26.930     1740.946     1538.505      725.236        0.566        0.200       85.387       29.216        0.117      334.496        4.506      861.675
12/14/2014  12:05:00       58.841       39.722       38.193       43.470       64.167       44.995     1889.680     4117.452     2024.544        0.726        0.402       70.994       38.054        0.287      334.833        5.065      861.650
12/14/2014  12:06:00       65.154       61.211        4.749       50.860       33.339       26.808     2586.708     1111.473      718.662        0.621        0.221       89.398       22.930        0.066      334.498        4.512      861.663
12/14/2014  12:07:00       22.703       38.896       34.690       44.936       35.694       28.266     2019.267     1274.097      798.989        0.366        0.205       45.037       25.971        0.333      335.141        5.577      861.683
12/14/2014  12:08:00        6.665       34.970       51.674       45.053       35.236       32.560     2029.736     1241.544     1060.147        0.413        0.217       35.599       25.830        0.526      335.498        6.173      861.687
12/14/2014  12:09:00       65.908       72.608        9.118       35.109       31.320       42.013     1232.671      980.950     1765.131        0.684        0.199       98.060       22.427        0.052      334.957        5.272      861.709
12/14/2014  12:10:00       -7.276       76.775        1.889       28.532       42.857       22.892      814.068     1836.742      524.024        0.456        0.159       77.119       20.145        0.068      334.749        4.928      861.717
12/14/2014  12:11:00       47.904       81.790       -0.612       53.659       34.859       27.358     2879.247     1215.168      748.468        0.691        0.242       94.786       19.532        0.042      334.777        4.974      861.700
12/14/2014  12:12:00       48.466       94.279        2.905       32.640       47.648       39.507     1065.353     2270.333     1560.787        0.807        0.245      106.007       37.408        0.125      334.693        4.834      861.703
12/14/2014  12:13:00       11.390       41.019       -2.173       17.138       34.149       24.494      293.720     1166.143      599.972        0.194        0.103       42.571       17.742        0.174      334.831        5.063      861.690
12/14/2014  12:14:00        2.547       55.612       -2.879       32.654       58.567       20.052     1066.265     3430.050      402.063        0.400        0.245       55.670       24.226        0.189      334.875        5.138      861.650
12/14/2014  12:15:00      -10.958       74.634       -4.087       33.227       60.516       27.398     1104.056     3662.203      750.639        0.561        0.276       75.434       28.009        0.138      334.960        5.278      861.642
12/14/2014  12:16:00        5.533       -0.048       12.685       27.029       44.533       26.059      730.573     1983.171      679.051        0.179        0.170        5.533       13.139        5.639      335.199        5.675      861.624
12/14/2014  12:17:00       47.760      -27.948       23.240       46.116       61.980       33.462     2126.659     3841.518     1119.731        0.534        0.354       55.336       34.910        0.398      334.809        5.027      861.617
12/14/2014  12:18:00       79.728      -90.129      -25.670       39.868       50.940       35.875     1589.419     2594.912     1287.024        1.030        0.274      120.332       15.953        0.018      334.715        4.871      861.613
12/14/2014  12:19:00       17.263       17.561       48.215       46.672       45.650       34.300     2178.246     2083.907     1176.524        0.418        0.272       24.625       39.984        2.636      335.118        5.541      861.613
12/14/2014  12:20:00       44.540      -18.894        7.166       29.943       46.394       37.811      896.598     2152.377     1429.670        0.343        0.224       48.382       24.043        0.247      334.977        5.306      861.599
12/14/2014  12:21:00       36.992       17.599       35.541       34.954       24.997       28.876     1221.799      624.852      833.837        0.281        0.134       40.965       22.842        0.311      335.013        5.367      861.594
12/14/2014  12:22:00       19.611       24.818       35.250       21.225       15.711       14.752      450.520      246.841      217.627        0.158        0.046       31.631        6.790        0.046      335.190        5.659      861.568
12/14/2014  12:23:00       17.129       28.709      -14.381       20.639       25.290       20.318      425.963      639.603      412.830        0.140        0.074       33.431       15.798        0.223      334.813        5.034      861.560
12/14/2014  12:24:00      -23.110        5.889       -6.807       42.859       32.475       23.006     1836.858     1054.628      529.296        0.202        0.171       23.849       23.613        0.980      335.008        5.358      861.541
12/14/2014  12:25:00      -79.567        9.433      -25.415       60.548       34.348       25.210     3666.100     1179.786      635.544        0.627        0.274       80.124       18.021        0.051      334.846        5.087      861.538
12/14/2014  12:26:00        6.230       60.522       17.284       29.188       22.454       23.191      851.962      504.200      537.845        0.295        0.095       60.842       17.609        0.084      335.013        5.366      861.529
12/14/2014  12:27:00       18.989       14.583       23.035       27.216       27.849       21.159      740.689      775.557      447.690        0.153        0.098       23.943       13.637        0.324      335.395        6.001      861.527
12/14/2014  12:28:00      -17.498       36.898       -3.971       17.622       26.948       18.188      310.542      726.210      330.796        0.153        0.068       40.837       14.505        0.126      335.111        5.529      861.517
12/14/2014  12:29:00       -8.893       16.962       12.703       33.882       15.424       18.169     1147.981      237.896      330.100        0.112        0.086       19.152       18.574        0.941      335.543        6.246      861.494
12/14/2014  12:30:00        2.923       14.004       -1.983       22.598       24.174       15.585      510.668      584.393      242.905        0.077        0.067       14.306       13.950        0.951      335.564        6.282      861.459
12/14/2014  12:31:00        4.433      -19.326        0.072       32.110       69.487       22.266     1031.054     4828.391      495.779        0.337        0.318       19.828       18.501        0.871      335.319        5.875      861.419
12/14/2014  12:32:00       52.994       27.524        2.090       55.343       45.783       34.420     3062.793     2096.100     1184.709        0.496        0.317       59.715       24.781        0.172      335.292        5.829      861.391
12/14/2014  12:33:00       24.194       10.382       19.079       55.990       38.724       23.518     3134.839     1499.519      553.099        0.312        0.259       26.327       17.254        0.429      335.329        5.892      861.359
12/14/2014  12:34:00       -0.231       20.382       60.518       24.521       47.265       25.380      601.262     2234.022      644.167        0.378        0.174       20.383       28.658        1.977      335.601        6.344      861.344
12/14/2014  12:35:00       32.923       -2.235       19.452       27.330       48.822       31.394      746.919     2383.577      985.553        0.279        0.206       32.998       22.284        0.456      335.362        5.944      861.324
12/14/2014  12:36:00      -17.849       16.304       67.700       38.716       48.208       26.506     1498.894     2324.037      702.567        0.485        0.226       24.175       14.653        0.367      335.789        6.657      861.301
12/14/2014  12:37:00       34.821       56.109       62.049       36.831       37.583       39.914     1356.505     1412.483     1593.165        0.629        0.218       66.036       24.268        0.135      335.310        5.860      861.275
12/14/2014  12:38:00       32.238      -47.982        2.835       51.373       70.372       28.951     2639.208     4952.151      838.166        0.589        0.421       57.806       31.837        0.303      335.355        5.935      861.251
12/14/2014  12:39:00       74.665      -77.366       -9.699       47.282       48.280       24.628     2235.590     2330.997      606.543        0.841        0.259      107.519       23.740        0.049      335.184        5.648      861.232
12/14/2014  12:40:00       12.886       29.172       23.629       20.323       20.760       29.301      413.020      430.995      858.535        0.164        0.085       31.891       19.948        0.391      335.172        5.629      861.185
12/14/2014  12:41:00       37.107     -140.113       10.822       57.679      104.127       45.518     3326.863    10842.354     2071.850        1.868        0.812      144.944       35.182        0.059      335.453        6.097      861.142
12/14/2014  12:42:00       65.314      -54.373       18.108       54.750       71.891       44.515     2997.535     5168.267     1981.549        0.885        0.507       84.985       34.294        0.163      335.361        5.944      861.104
12/14/2014  12:43:00       59.534       47.590       14.769       40.587       30.711       31.976     1647.285      943.189     1022.448        0.482        0.181       76.217       16.184        0.045      335.060        5.443      861.075
12/14/2014  12:44:00       24.264       29.449       26.071       20.851       30.717       36.462      434.773      943.560     1329.501        0.242        0.135       38.157       19.538        0.262      335.406        6.017      861.044
12/14/2014  12:45:00       80.314      103.283       91.875       73.491       48.356       31.527     5400.991     2338.280      993.927        1.714        0.437      130.835       25.009        0.037      335.189        5.656      861.006
12/14/2014  12:46:00       30.688       35.776       75.133       47.739       66.837       37.995     2279.020     4467.251     1443.599        0.803        0.409       47.135       38.982        0.684      335.682        6.479      860.985
12/14/2014  12:47:00       34.078       67.176       91.552       51.675       58.220       36.314     2670.271     3389.603     1318.673        1.072        0.369       75.325       31.574        0.176      335.631        6.393      860.969
12/14/2014  12:48:00      128.296       99.452       64.704       65.834       65.433       48.369     4334.113     4281.417     2339.598        2.074        0.548      162.329       35.476        0.048      335.074        5.466      860.947
12/14/2014  12:49:00       47.285       27.846       33.873       67.241       44.515       25.039     4521.346     1981.575      626.976        0.564        0.356       54.875       22.844        0.173      335.440        6.076      860.928
12/14/2014  12:50:00       74.101       48.037       39.985       51.639       42.638       39.724     2666.606     1818.025     1577.972        0.773        0.303       88.309       33.441        0.143      335.507        6.186      860.902
12/14/2014  12:51:00       62.473       27.368       40.903       79.632       52.129       39.892     6341.251     2717.384     1591.340        0.849        0.532       68.205       33.795        0.246      335.584        6.315      860.852
12/14/2014  12:52:00       43.513       36.042       45.335       55.840       42.950       31.931     3118.099     1844.696     1019.616        0.561        0.299       56.501       30.702        0.295      335.555        6.267      860.814
12/14/2014  12:53:00       20.536       93.880      102.704       47.536       72.094       46.262     2259.697     5197.531     2140.196        1.469        0.480       96.100       45.748        0.227      335.299        5.839      860.784
12/14/2014  12:54:00      -16.646        3.945       18.279       43.475       56.522       36.693     1890.118     3194.716     1346.369        0.353        0.322       17.107       16.171        0.894      335.376        5.967      860.772
12/14/2014  12:55:00      -12.189       47.830      -16.459       36.318       32.362       20.998     1319.010     1047.300      440.901        0.276        0.140       49.358        8.062        0.027      335.578        6.305      860.777
12/14/2014  12:56:00       -6.913      -39.028       -4.863       32.135       19.626       21.513     1032.648      385.170      462.824        0.174        0.094       39.635       15.935        0.162      335.720        6.541      860.762
12/14/2014  12:57:00        1.683       -4.230       11.520       14.899       20.882       14.249      221.969      436.064      203.034        0.051        0.043        4.553       13.575        8.891      336.121        7.211      860.723
12/14/2014  12:58:00      -35.142      -25.945       10.963       42.652       38.300       25.594     1819.151     1466.876      655.063        0.298        0.197       43.682       27.297        0.390      336.079        7.141      860.676
12/14/2014  12:59:00      -39.397      -70.149       12.654       46.028       51.487       25.326     2118.557     2650.948      641.410        0.602        0.271       80.455       26.864        0.111      335.530        6.226      860.640
12/14/2014  13:00:00      -22.368      -40.687        7.320       40.263       30.662       28.650     1621.107      940.179      820.799        0.280        0.169       46.430       19.360        0.174      335.770        6.625      860.619
12/14/2014  13:01:00      -20.653        6.884       24.009       21.832       16.757       21.036      476.645      280.782      442.525        0.112        0.060       21.770       18.670        0.736      336.067        7.122      860.615
12/14/2014  13:02:00       30.901       25.393       30.589       42.763       37.899       28.693     1828.666     1436.351      823.282        0.331        0.204       39.996       22.496        0.316      335.892        6.829      860.612
12/14/2014  13:03:00       42.857       74.690       62.491       50.119       50.994       67.480     2511.941     2600.342     4553.500        1.049        0.483       86.112       42.960        0.249      335.764        6.614      860.589
12/14/2014  13:04:00      121.383      103.826       65.786       87.236       51.917       53.712     7610.078     2695.377     2884.953        2.151        0.660      159.730       42.928        0.072      335.644        6.415      860.555
12/14/2014  13:05:00      104.626       77.675       76.474       81.134       78.718       62.626     6582.751     6196.518     3921.976        1.976        0.835      130.307       46.035        0.125      335.433        6.060      860.526
12/14/2014  13:06:00      136.676      111.068       80.217       91.492       72.372       65.699     8370.804     5237.705     4316.357        2.768        0.896      176.115       47.632        0.073      335.310        5.857      860.498
12/14/2014  13:07:00       85.813       80.821       83.325       54.247       56.133       52.688     2942.731     3150.923     2776.024        1.485        0.443      117.881       44.992        0.146      335.368        5.954      860.488
12/14/2014  13:08:00       79.300       91.669       71.123       69.439       54.258       45.102     4821.731     2943.944     2034.152        1.477        0.490      121.210       31.113        0.066      335.387        5.986      860.468
12/14/2014  13:09:00       63.926       50.573       46.350       54.475       35.868       43.138     2967.559     1286.519     1860.873        0.745        0.306       81.512       32.701        0.161      335.508        6.189      860.444
12/14/2014  13:10:00       25.344      -35.170       -5.362       25.591       47.556       27.010      654.917     2261.544      729.524        0.278        0.182       43.351       27.736        0.409      335.597        6.336      860.428
12/14/2014  13:11:00        0.624       34.403       56.372       23.049       63.627       56.703      531.254     4048.450     3215.238        0.608        0.390       34.408       53.776        2.443      335.703        6.514      860.403
12/14/2014  13:12:00       59.512       26.305       56.117       63.651       37.592       29.068     4051.435     1413.157      844.971        0.684        0.315       65.067       15.302        0.055      335.830        6.727      860.388
12/14/2014  13:13:00      -17.360       -0.369       30.937       17.774       20.071       17.240      315.900      402.832      297.220        0.114        0.051       17.363       10.841        0.390      336.425        7.718      860.362
12/14/2014  13:14:00       26.832      -52.251        1.840       49.274       63.755       38.205     2427.912     4064.700     1459.586        0.570        0.398       58.738       32.167        0.300      335.921        6.876      860.361
12/14/2014  13:15:00       94.227       70.500       45.652       86.353       65.588       54.290     7456.788     4301.775     2947.433        1.532        0.735      117.682       36.448        0.096      335.654        6.430      860.356
12/14/2014  13:16:00       56.314       38.825       39.255       63.968       61.048       27.513     4091.850     3726.883      756.944        0.740        0.429       68.401       29.254        0.183      335.830        6.726      860.367
12/14/2014  13:17:00       37.325       40.264       57.711       44.710       65.659       49.104     1998.968     4311.082     2411.163        0.753        0.436       54.903       42.261        0.592      336.135        7.233      860.368
12/14/2014  13:18:00      214.521       81.669       44.885       74.703       66.449       57.929     5580.556     4415.458     3355.791        3.403        0.668      229.541       33.652        0.021      335.326        5.882      860.360
12/14/2014  13:19:00      198.174      102.336       25.210       81.957       60.814       64.757     6717.002     3698.372     4193.525        3.249        0.730      223.038       46.023        0.043      335.206        5.682      860.338
12/14/2014  13:20:00      105.257       63.047       28.804       59.170       54.780       44.796     3501.077     3000.846     2006.665        1.219        0.425      122.695       28.288        0.053      335.317        5.869      860.348
12/14/2014  13:21:00       72.932       61.845       75.894       70.821       55.592       46.715     5015.561     3090.457     2182.324        1.259        0.514       95.624       39.380        0.170      335.499        6.173      860.354
12/14/2014  13:22:00       82.929       82.090       25.770       66.235       32.497       39.201     4387.031     1056.085     1536.703        1.063        0.349      116.687       21.684        0.035      335.260        5.776      860.349
12/14/2014  13:23:00       35.716       40.827       68.307       44.169       64.506       38.217     1950.930     4160.975     1460.503        0.759        0.379       54.245       40.269        0.551      335.432        6.061      860.344
12/14/2014  13:24:00       77.904       37.804       47.493       67.773       63.234       38.545     4593.203     3998.577     1485.707        0.991        0.504       86.592       40.653        0.220      335.358        5.936      860.323
12/14/2014  13:25:00       92.923       54.470       80.881       52.520       89.180       49.388     2758.388     7953.065     2439.178        1.564        0.658      107.711       54.414        0.255      335.375        5.966      860.312
12/14/2014  13:26:00       82.128       53.565       27.867       63.634       44.987       26.675     4049.291     2023.846      711.533        0.859        0.339       98.052       24.522        0.063      335.311        5.860      860.309
12/14/2014  13:27:00       16.457      -29.883       -5.188       26.835       48.534       23.021      720.139     2355.549      529.980        0.240        0.180       34.115       27.280        0.639      335.477        6.135      860.319
12/14/2014  13:28:00       -1.481       -5.141       14.772       43.014       28.555       20.658     1850.179      815.364      426.762        0.167        0.155        5.350       17.089       10.201      335.680        6.475      860.317
12/14/2014  13:29:00      -14.500      -35.175       13.845       30.796       38.207       28.753      948.404     1459.797      826.733        0.244        0.162       38.047       21.525        0.320      335.677        6.470      860.319
12/14/2014  13:30:00       24.420      -49.112       15.858       55.536       69.822       39.590     3084.258     4875.093     1567.383        0.639        0.476       54.849       46.360        0.714      335.644        6.415      860.318
12/14/2014  13:31:00       25.600       30.070       57.249       35.963       34.986       39.344     1293.367     1224.010     1547.938        0.445        0.203       39.491       31.158        0.623      335.580        6.309      860.331
12/14/2014  13:32:00        4.944      -33.259       16.752       21.893       36.816       23.356      479.287     1355.407      545.502        0.190        0.119       33.625       11.108        0.109      335.656        6.434      860.340
12/14/2014  13:33:00       44.037      -72.081        4.190       41.231       54.817       39.472     1700.034     3004.933     1558.046        0.671        0.313       84.468       39.079        0.214      335.537        6.236      860.338
12/14/2014  13:34:00       21.658      -26.941       24.637       35.799       62.918       31.976     1281.565     3958.715     1022.469        0.403        0.313       34.567       40.180        1.351      335.470        6.125      860.343
12/14/2014  13:35:00       -4.652       10.030       35.515       11.177       14.688       12.504      124.915      215.748      156.357        0.094        0.025       11.056        9.499        0.738      335.644        6.414      860.334
12/14/2014  13:36:00       16.690       11.897       56.025       47.023       58.015       29.042     2211.179     3365.793      843.456        0.499        0.321       20.497       26.612        1.686      335.596        6.337      860.335
12/14/2014  13:37:00       47.147       20.315       54.800       31.698       44.749       23.496     1004.760     2002.443      552.069        0.460        0.178       51.337       18.018        0.123      335.555        6.267      860.349
12/14/2014  13:38:00       17.013       17.395       27.781       24.217       22.937       17.832      586.476      526.083      317.964        0.140        0.072       24.332       11.313        0.216      335.523        6.213      860.346
12/14/2014  13:39:00       14.708      -44.464       12.212       32.579       52.191       32.761     1061.388     2723.944     1073.279        0.360        0.243       46.834       38.445        0.674      335.792        6.662      860.351
12/14/2014  13:40:00        6.990      -74.552       -3.558       28.139       48.900       32.661      791.817     2391.245     1066.722        0.493        0.212       74.879       29.453        0.155      335.824        6.714      860.342
12/14/2014  13:41:00       47.367      -77.355       12.480       56.943       74.608       57.716     3242.525     5566.386     3331.083        1.026        0.607       90.705       50.105        0.305      335.747        6.587      860.345
12/14/2014  13:42:00      114.706     -102.131      -27.617       41.807       40.857       22.800     1747.793     1669.257      519.832        1.414        0.197      153.585        6.868        0.002      335.318        5.871      860.341
12/14/2014  13:43:00       57.788      -22.782       29.511       62.516       70.599       32.858     3908.214     4984.264     1079.622        0.735        0.499       62.117       37.070        0.356      335.514        6.199      860.317
12/14/2014  13:44:00       73.644      -66.615       15.915       58.524       60.924       35.379     3425.012     3711.741     1251.667        0.925        0.419       99.303       38.224        0.148      335.538        6.238      860.297
12/14/2014  13:45:00       52.616       -5.536       39.323       51.873       42.267       39.968     2690.775     1786.463     1597.461        0.521        0.304       52.907       32.705        0.382      335.565        6.284      860.293
12/14/2014  13:46:00       21.509       33.954       58.673       49.928       53.153       40.205     2492.774     2825.261     1616.463        0.599        0.347       40.194       40.676        1.024      335.624        6.382      860.281
12/14/2014  13:47:00       52.376       67.076       75.891       48.664       45.696       53.925     2368.221     2088.161     2907.918        1.018        0.368       85.103       37.700        0.196      335.365        5.950      860.298
12/14/2014  13:48:00       24.324      -13.007       13.936       17.737       13.452       17.121      314.587      180.950      293.135        0.087        0.039       27.583       11.978        0.189      335.311        5.859      860.325
12/14/2014  13:49:00       23.873       27.757       19.138       19.815       19.712       16.949      392.629      388.573      287.261        0.139        0.053       36.611       15.882        0.188      335.349        5.922      860.315
12/14/2014  13:50:00       95.929       92.291       60.555       42.405       28.485       39.341     1798.144      811.419     1547.752        1.277        0.208      133.117       28.663        0.046      335.482        6.144      860.313
12/14/2014  13:51:00      135.418       76.605       25.571       43.033       33.750       30.884     1851.820     1139.092      953.835        1.440        0.197      155.584       13.575        0.008      335.306        5.850      860.309
12/14/2014  13:52:00       73.571       40.093       22.925       36.431       30.730       33.018     1327.211      944.336     1090.157        0.545        0.168       83.786       23.948        0.082      335.439        6.072      860.320
12/14/2014  13:53:00       68.592       51.649       40.929       34.664       27.634       31.886     1201.561      763.643     1016.741        0.601        0.149       85.863       14.343        0.028      335.477        6.136      860.337
12/14/2014  13:54:00       18.432       16.790       22.298       32.052       26.187       25.436     1027.344      685.767      646.970        0.174        0.118       24.933       27.765        1.240      335.511        6.192      860.367
12/14/2014  13:55:00       -1.815        3.754       24.383       10.553       13.884       10.419      111.357      192.756      108.561        0.051        0.021        4.169        5.679        1.855      335.784        6.649      860.409
12/14/2014  13:56:00       37.567      -73.592       -8.613       36.709       33.526       27.006     1347.524     1124.001      729.317        0.505        0.160       82.626       22.003        0.071      335.624        6.383      860.433
12/14/2014  13:57:00       26.563        6.122       21.891       37.763       28.526       24.107     1426.058      813.747      581.131        0.202        0.141       27.260       19.098        0.491      335.560        6.275      860.476
12/14/2014  13:58:00        5.335        3.803       31.715       26.851       34.051       25.353      720.991     1159.447      642.775        0.179        0.126        6.551       17.191        6.886      335.608        6.355      860.511
12/14/2014  13:59:00       49.705      -60.669        3.160       37.999       44.471       41.944     1443.894     1977.683     1759.293        0.567        0.259       78.430       31.404        0.160      335.634        6.399      860.545
12/14/2014  14:00:00       22.678      -41.749        8.244       40.278       45.519       33.619     1622.347     2071.988     1130.259        0.357        0.241       47.511       20.836        0.192      335.538        6.238      860.593
12/14/2014  14:01:00       44.761      -59.792      -18.927       50.070       51.651       30.948     2507.008     2667.870      957.780        0.603        0.307       74.690       32.287        0.187      335.518        6.206      860.627
12/14/2014  14:02:00       28.838        0.112       21.483       31.344       37.849       29.027      982.417     1432.521      842.563        0.227        0.163       28.838       25.119        0.759      335.547        6.255      860.657
12/14/2014  14:03:00      -22.545       20.848       22.245       30.191       25.742       31.220      911.506      662.650      974.694        0.199        0.127       30.707       23.239        0.573      335.571        6.292      860.684
12/14/2014  14:04:00      -71.503      -37.146       -1.606       30.308       25.059       19.485      918.548      627.950      379.681        0.421        0.096       80.576       13.567        0.028      335.715        6.535      860.695
12/14/2014  14:05:00     -116.454      -50.671      -14.068       51.978       53.928       20.939     2701.719     2908.279      438.460        1.119        0.302      127.001       16.159        0.016      335.449        6.089      860.711
12/14/2014  14:06:00       -6.668      -25.118       -5.386       24.468       25.681       17.374      598.695      659.506      301.843        0.113        0.078       25.988       10.996        0.179      335.674        6.466      860.724
12/14/2014  14:07:00      -50.801       32.859      -14.941       25.404       33.591       17.403      645.357     1128.344      302.860        0.298        0.104       60.502        9.948        0.027      335.559        6.274      860.728
12/14/2014  14:08:00       -2.367       34.712        7.125       27.636       30.963       19.163      763.743      958.733      367.213        0.168        0.104       34.792       10.746        0.095      335.517        6.203      860.726
12/14/2014  14:09:00       -5.579       41.636        0.395       19.831       20.729       15.170      393.251      429.686      230.138        0.141        0.053       42.009       12.548        0.089      335.609        6.358      860.710
12/14/2014  14:10:00      -10.892       -8.858        6.043       27.975       23.975       18.245      782.576      574.805      332.896        0.096        0.085       14.039       17.113        1.486      335.672        6.463      860.692
12/14/2014  14:11:00      -24.742      -20.381       31.797       36.227       45.248       24.408     1312.386     2047.390      595.761        0.300        0.198       32.055       25.473        0.631      335.655        6.434      860.664
12/14/2014  14:12:00       -4.942      -15.104       16.608       19.507       23.853       20.222      380.517      568.975      408.919        0.094        0.068       15.892       14.592        0.843      335.713        6.531      860.665
12/14/2014  14:13:00       -5.479      -15.002       15.567       39.586       30.663       23.470     1567.084      940.247      550.853        0.178        0.153       15.971       25.451        2.539      335.628        6.389      860.658
12/14/2014  14:14:00      -16.936      -13.798       13.668       51.794       31.369       20.116     2682.572      984.043      404.647        0.237        0.204       21.846       22.308        1.043      335.639        6.408      860.659
12/14/2014  14:15:00      -47.938      -26.387       -4.186       23.105       20.382       13.222      533.845      415.416      174.816        0.207        0.056       54.720       12.208        0.050      335.703        6.514      860.662
12/14/2014  14:16:00      -42.194      -20.585        3.358       35.052       18.859       15.977     1228.618      355.650      255.274        0.203        0.092       46.948       16.299        0.121      335.522        6.212      860.677
12/14/2014  14:17:00      -32.888      -10.780       -5.317       20.468       27.056       10.020      418.942      732.050      100.404        0.124        0.063       34.609       12.844        0.138      335.423        6.046      860.671
12/14/2014  14:18:00      -35.470       59.476      -37.650       34.708       30.443       16.984     1204.628      926.801      288.445        0.432        0.121       69.250       14.400        0.043      335.544        6.248      860.656
12/14/2014  14:19:00      -41.495      -23.998       -5.919       28.243       34.436       23.101      797.677     1185.832      533.667        0.242        0.126       47.934       18.611        0.151      335.789        6.656      860.631
12/14/2014  14:20:00      -47.804      -15.299       -5.391       23.983       18.882       13.612      575.188      356.533      185.291        0.183        0.056       50.192        9.670        0.037      335.536        6.234      860.618
12/14/2014  14:21:00       -4.666       -5.455        9.065       13.693       17.138       11.859      187.502      293.700      140.635        0.038        0.031        7.179       13.969        3.786      335.508        6.186      860.615
12/14/2014  14:22:00       34.143        5.137        1.936       29.366       27.239       22.738      862.365      741.968      517.037        0.166        0.106       34.528        8.284        0.058      335.498        6.171      860.628
12/14/2014  14:23:00       42.800       46.954       -0.951       18.124       29.874       21.989      328.487      892.484      483.495        0.287        0.085       63.534       16.447        0.067      335.450        6.092      860.640
12/14/2014  14:24:00       50.145       59.077        4.962       36.298       29.550       22.084     1317.580      873.186      487.721        0.435        0.134       77.489       14.769        0.036      335.427        6.055      860.649
12/14/2014  14:25:00       49.875       45.526       10.382       20.332       27.176       21.177      413.381      738.521      448.449        0.313        0.080       67.529       11.391        0.028      335.393        5.997      860.650
12/14/2014  14:26:00       31.120       45.848       -3.090       16.472       14.453       20.109      271.311      208.877      404.357        0.198        0.044       55.412       11.568        0.044      335.369        5.959      860.648
12/14/2014  14:27:00       42.605       33.768       -1.186       26.784       13.819       12.471      717.370      190.975      155.520        0.201        0.053       54.365        7.599        0.020      335.385        5.982      860.630
12/14/2014  14:28:00       34.354        3.961       12.227       32.321       35.951       19.030     1044.644     1292.451      362.158        0.202        0.135       34.581       22.324        0.417      335.448        6.086      860.635
12/14/2014  14:29:00      -10.303       -9.715       18.055       14.250       10.965       11.072      203.075      120.234      122.596        0.049        0.022       14.161        8.889        0.394      335.540        6.241      860.647
12/14/2014  14:30:00        5.060       27.822        6.499       13.717       23.693       17.134      188.167      561.358      293.586        0.094        0.052       28.279       15.381        0.296      335.524        6.214      860.653
12/14/2014  14:31:00       53.243       43.244       19.658       30.091       17.363       25.861      905.451      301.484      668.803        0.348        0.094       68.592       15.071        0.048      335.505        6.184      860.660
12/14/2014  14:32:00       63.623       38.896       36.918       25.002       22.181       19.939      625.082      491.994      397.551        0.422        0.076       74.571       12.291        0.027      335.453        6.096      860.632
12/14/2014  14:33:00       85.111       71.118       47.551       40.280       31.774       30.721     1622.474     1009.560      943.781        0.907        0.179      110.912       16.772        0.023      335.543        6.247      860.603
12/14/2014  14:34:00       45.489       55.982       52.828       47.895       32.344       41.205     2293.969     1046.121     1697.881        0.651        0.252       72.134       38.232        0.281      335.586        6.318      860.571
12/14/2014  14:35:00       30.551       35.695       49.185       44.265       55.103       29.837     1959.354     3036.338      890.254        0.526        0.294       46.984       29.098        0.384      335.669        6.458      860.557
12/14/2014  14:36:00        5.791       34.285       69.066       32.638       61.868       25.169     1065.265     3827.645      633.476        0.575        0.276       34.771       28.893        0.690      335.675        6.467      860.525
12/14/2014  14:37:00       88.278       79.087       42.151       32.664       21.114       29.696     1066.925      445.780      881.849        0.911        0.120      118.523       19.307        0.027      335.486        6.151      860.503
12/14/2014  14:38:00       67.065       40.181       28.413       34.682       23.682       21.866     1202.875      560.839      478.105        0.458        0.112       78.180       12.135        0.024      335.528        6.223      860.489
12/14/2014  14:39:00       57.044       14.152       38.639       31.813       29.525       28.606     1012.072      871.729      818.320        0.382        0.135       58.773       22.841        0.151      335.509        6.191      860.474
12/14/2014  14:40:00       33.831       26.616       30.888       22.707       19.337       23.943      515.626      373.928      573.251        0.213        0.073       43.046        4.972        0.013      335.531        6.227      860.440
12/14/2014  14:41:00       37.156       21.840       25.953       45.483       23.775       29.829     2068.748      565.237      889.781        0.303        0.176       43.100       28.449        0.436      335.587        6.319      860.412
12/14/2014  14:42:00      116.811       78.228       20.908       61.260       42.185       31.545     3752.784     1779.556      995.101        1.336        0.326      140.586       18.820        0.018      335.476        6.134      860.421
12/14/2014  14:43:00       98.870       61.778        7.025       32.398       25.483       19.093     1049.635      649.365      364.536        0.785        0.103      116.584       11.313        0.009      335.397        6.001      860.470
12/14/2014  14:44:00       63.682       51.808        5.393       22.024       19.156       18.574      485.063      366.952      345.006        0.398        0.060       82.094        5.603        0.005      335.394        5.998      860.549
12/14/2014  14:45:00       90.446       44.948       22.755       37.586       43.031       27.455     1412.671     1851.689      753.779        0.737        0.201      100.999       18.512        0.034      335.454        6.100      860.604
12/14/2014  14:46:00       77.031        4.159       16.460       50.926       27.119       25.018     2593.497      735.463      625.922        0.509        0.198       77.143       21.056        0.074      335.503        6.180      860.650
12/14/2014  14:47:00       67.870       40.870       25.720       54.488       40.060       38.768     2968.962     1604.835     1502.966        0.651        0.304       79.226       23.950        0.091      335.504        6.181      860.695
12/14/2014  14:48:00       72.699       37.781        0.924       39.632       32.172       27.307     1570.734     1035.051      745.687        0.503        0.168       81.931       11.189        0.019      335.509        6.188      860.738
12/14/2014  14:49:00       62.802       38.112       10.453       29.770       28.224       20.802      886.250      796.569      432.721        0.381        0.106       73.462       14.793        0.041      335.486        6.152      860.782
12/14/2014  14:50:00       44.749       44.152       12.787       23.958       16.527       22.012      574.005      273.148      484.544        0.272        0.067       62.864       15.921        0.064      335.563        6.281      860.825
12/14/2014  14:51:00       39.996       29.606       -7.141       20.719       13.539       10.810      429.265      183.301      116.865        0.163        0.036       49.761        7.241        0.021      335.536        6.234      860.871
12/14/2014  14:52:00       19.402       27.985       -5.283       22.638       13.978       13.879      512.472      195.398      192.632        0.104        0.045       34.053       11.915        0.122      335.543        6.247      860.873
12/14/2014  14:53:00       22.776       36.679       57.388       30.346       26.298       17.912      920.877      691.569      320.828        0.355        0.097       43.175       12.207        0.080      335.695        6.500      860.864
12/14/2014  14:54:00       36.483       70.157       67.490       41.607       31.672       35.107     1731.125     1003.142     1232.504        0.739        0.198       79.076       28.340        0.128      335.624        6.382      860.863
12/14/2014  14:55:00       70.713       58.259       57.908       43.326       34.180       28.950     1877.157     1168.264      838.098        0.781        0.194       91.621       18.706        0.042      335.603        6.348      860.879
12/14/2014  14:56:00       50.149       31.641       44.183       33.532       33.726       25.900     1124.408     1137.431      670.813        0.420        0.147       59.297       18.566        0.098      335.583        6.315      860.892
12/14/2014  14:57:00       23.390       32.903        6.588       17.452       11.175       18.422      304.570      124.878      339.383        0.122        0.038       40.369        9.395        0.054      335.507        6.185      860.898
12/14/2014  14:58:00       51.109       29.162        7.084       23.727       16.133       12.718      562.954      260.263      161.735        0.225        0.049       58.843        8.490        0.021      335.498        6.172      860.907
12/14/2014  14:59:00       26.697        2.291       -1.547       14.205       18.199        9.290      201.773      331.207       86.303        0.067        0.031       26.796        3.732        0.019      335.498        6.171      860.910
12/14/2014  15:00:00      -20.739        8.660       -3.185       27.600       11.420       11.250      761.776      130.424      126.562        0.077        0.051       22.474       14.010        0.389      335.515        6.198      860.925
12/14/2014  15:01:00      -35.368       -4.559        8.233       23.851       17.025       14.573      568.863      289.841      212.379        0.121        0.054       35.660       12.253        0.118      335.636        6.403      860.915
12/14/2014  15:02:00      -19.474      -39.088        8.965       30.833       51.514       19.491      950.664     2653.739      379.891        0.299        0.199       43.671       25.270        0.335      335.595        6.335      860.914
12/14/2014  15:03:00       -0.257      -39.360        6.249       15.576       31.421       17.144      242.622      987.307      293.911        0.156        0.076       39.360        8.652        0.048      335.690        6.491      860.896
12/14/2014  15:04:00       28.192       -6.206        0.022       14.343       30.566       16.807      205.714      934.264      282.480        0.113        0.071       28.867       14.238        0.243      335.656        6.436      860.871
12/14/2014  15:05:00       12.418      -13.167       11.076       12.599       25.970       13.114      158.729      674.432      171.976        0.073        0.050       18.099       13.196        0.532      335.716        6.535      860.854
12/14/2014  15:06:00       74.848       52.501       11.250       41.959       32.969       26.176     1760.573     1086.937      685.174        0.601        0.177       91.425       15.187        0.028      335.566        6.285      860.840
12/14/2014  15:07:00       59.839       50.484       28.544       31.318       22.359       34.072      980.809      499.946     1160.926        0.479        0.132       78.290       19.322        0.061      335.524        6.215      860.823
12/14/2014  15:08:00       65.758       39.059       30.773       16.981       12.946       17.395      288.348      167.593      302.571        0.378        0.038       76.483       11.817        0.024      335.514        6.198      860.823
12/14/2014  15:09:00       64.208       48.739        5.295       22.185       15.948       18.768      492.193      254.338      352.244        0.381        0.055       80.611        5.482        0.005      335.509        6.190      860.817
12/14/2014  15:10:00       30.032       47.425        5.317       34.881       22.965       24.130     1216.678      527.379      582.261        0.275        0.116       56.134       19.010        0.115      335.515        6.200      860.818
12/14/2014  15:11:00       24.093       40.605        7.671       18.498       24.203       22.354      342.184      585.800      499.694        0.186        0.071       47.215       18.432        0.152      335.534        6.231      860.817
12/14/2014  15:12:00       19.043      -37.194       -0.061       24.863       49.572       17.970      618.189     2457.359      322.934        0.257        0.170       41.786       21.041        0.254      335.658        6.438      860.793
12/14/2014  15:13:00       -3.052       -2.714       12.885       28.508       29.951       26.810      812.720      897.080      718.797        0.131        0.121        4.085       21.660       28.121      335.702        6.512      860.773
12/14/2014  15:14:00       27.892       25.678       21.098       26.448       33.297       25.256      699.513     1108.660      637.877        0.216        0.122       37.912       14.846        0.153      335.698        6.507      860.731
12/14/2014  15:15:00       11.844       47.554       49.481       27.260       38.402       26.978      743.084     1474.691      727.793        0.390        0.147       49.007       24.231        0.244      335.735        6.567      860.659
12/14/2014  15:16:00        8.982       47.967       73.193       34.113       36.714       27.406     1163.691     1347.931      751.077        0.550        0.163       48.801       22.130        0.206      335.664        6.450      860.578
12/14/2014  15:17:00      110.366       76.651       27.139       49.924       40.722       42.128     2492.370     1658.308     1774.761        1.236        0.296      134.373       26.723        0.040      335.593        6.330      860.454
12/14/2014  15:18:00      135.133       86.963       30.056       63.912       40.541       40.010     4084.687     1643.570     1600.764        1.703        0.366      160.697       28.540        0.032      335.562        6.277      860.329
12/14/2014  15:19:00      156.596       97.040       33.897       63.447       43.863       39.733     4025.494     1923.949     1578.728        2.131        0.376      184.225       26.289        0.020      335.479        6.139      860.258
12/14/2014  15:20:00       94.444       55.756       15.778       54.110       41.583       28.868     2927.869     1729.164      833.349        0.888        0.275      109.674       22.149        0.041      335.497        6.170      860.265
12/14/2014  15:21:00       78.500       39.339       17.323       50.873       48.741       33.034     2588.085     2375.707     1091.216        0.703        0.303       87.806       27.686        0.099      335.482        6.145      860.331
12/14/2014  15:22:00       46.111       28.568        2.105       55.801       56.925       19.589     3113.765     3240.444      383.721        0.484        0.337       54.243       11.327        0.044      335.500        6.175      860.441
12/14/2014  15:23:00        5.497       -9.850       16.412       13.120       28.455       17.798      172.136      809.667      316.770        0.085        0.065       11.280       13.938        1.527      335.608        6.356      860.552
12/14/2014  15:24:00       -2.470       20.816        5.700       13.408       19.818        8.836      179.781      392.748       78.069        0.056        0.033       20.962       11.741        0.314      335.498        6.171      860.633
12/14/2014  15:25:00       20.754       11.115       13.507       11.827       14.321       12.353      139.885      205.090      152.600        0.062        0.025       23.543        5.183        0.048      335.537        6.238      860.637
12/14/2014  15:26:00       -0.487       20.526       42.813       11.597       30.778       19.411      134.493      947.273      376.776        0.186        0.073       20.532       21.382        1.085      335.697        6.503      860.622
12/14/2014  15:27:00       56.160       57.522       44.764       37.246       26.518       23.050     1387.239      703.192      531.309        0.554        0.131       80.392       17.964        0.050      335.651        6.428      860.630
12/14/2014  15:28:00       39.617       54.347       83.784       84.524       65.126       44.010     7144.281     4241.374     1936.888        1.243        0.666       67.254       50.523        0.564      335.629        6.389      860.672
12/14/2014  15:29:00       71.785      -21.691       73.974       98.614      126.938       82.417     9724.681    16113.309     6792.502        2.186        1.632       74.990       66.084        0.777      335.274        5.799      860.697
12/14/2014  15:30:00      282.668     -203.064       16.193      209.280      244.498      136.322    43798.194    59779.279    18583.588       12.176        6.108      348.046      167.606        0.232      334.629        4.724      860.673
12/14/2014  15:31:00      308.066     -358.348      -11.754      165.850      253.285      107.284    27506.216    64153.417    11509.768       16.329        5.158      472.565      122.783        0.068      334.379        4.311      860.665
12/14/2014  15:32:00      239.211     -299.791      -35.514      180.979      208.449      121.602    32753.342    43450.797    14787.139       11.966        4.550      383.532      113.889        0.088      334.419        4.377      860.767
12/14/2014  15:33:00      134.555     -173.930        2.002      115.222      136.038       74.425    13276.221    18506.288     5539.097        4.283        1.866      219.902       89.618        0.166      334.521        4.546      860.920
12/14/2014  15:34:00       51.113      -68.863       42.465       73.292      135.786       92.728     5371.764    18437.734     8598.456        2.078        1.620       85.760      108.245        1.593      334.519        4.541      860.976
12/14/2014  15:35:00       50.891      -88.649        1.891       54.600       73.740       34.818     2981.138     5437.624     1212.266        1.004        0.482      102.218       35.383        0.120      334.497        4.509      860.971
12/14/2014  15:36:00       -8.261      -18.954        4.349       45.649       41.091       20.610     2083.811     1688.504      424.770        0.232        0.210       20.676       13.866        0.450      334.629        4.727      861.000
12/14/2014  15:37:00       19.567      -54.836       -9.007       48.029       47.060       35.184     2306.825     2214.600     1237.880        0.461        0.288       58.223       26.184        0.202      334.722        4.882      861.053
12/14/2014  15:38:00       87.393     -127.258      -21.651       66.583       92.533       43.360     4433.309     8562.409     1880.079        1.959        0.744      154.377       31.200        0.041      334.488        4.491      861.122
12/14/2014  15:39:00       32.508      -99.556        7.002       85.150      121.821       63.541     7250.489    14840.380     4037.401        1.857        1.306      104.729       68.802        0.432      334.510        4.529      861.177
12/14/2014  15:40:00      -69.872     -103.276       -4.198       59.354       67.238       41.447     3522.940     4521.008     1717.849        1.266        0.488      124.691       34.335        0.076      334.557        4.608      861.233
12/14/2014  15:41:00      -37.569      -36.571        6.865       52.140       46.877       21.537     2718.623     2197.413      463.843        0.409        0.269       52.430       14.473        0.076      334.507        4.526      861.283
12/14/2014  15:42:00     -103.982      -59.701        6.888       67.828       53.755       32.798     4600.595     2889.590     1075.719        1.149        0.428      119.902       21.090        0.031      334.483        4.485      861.298
12/14/2014  15:43:00     -143.468     -105.596       -2.904       59.547       63.396       34.864     3545.816     4019.054     1215.488        2.026        0.439      178.139       27.148        0.023      334.337        4.242      861.305
12/14/2014  15:44:00      -64.447      -54.164        6.174       57.581       48.010       30.840     3315.558     2304.926      951.102        0.685        0.329       84.185       22.597        0.072      334.323        4.221      861.294
12/14/2014  15:45:00     -114.988     -144.166       -9.053       54.178       40.794       28.862     2935.259     1664.151      833.033        1.976        0.272      184.408       21.279        0.013      334.281        4.148      861.265
12/14/2014  15:46:00     -137.854     -120.177        1.996       61.428       52.287       30.401     3773.342     2733.933      924.197        2.044        0.372      182.883       30.282        0.027      334.195        4.005      861.222
12/14/2014  15:47:00     -176.107     -105.825        2.585       86.786       63.133       39.051     7531.881     3985.768     1524.991        2.763        0.652      205.457       42.586        0.043      334.140        3.911      861.194
12/14/2014  15:48:00     -141.370      -57.177        9.894       91.009       56.005       36.997     8282.609     3136.579     1368.799        1.807        0.639      152.495       40.739        0.071      334.174        3.970      861.180
12/14/2014  15:49:00     -129.336      -82.058       13.469       71.276       66.955       39.606     5080.216     4482.975     1568.664        1.739        0.557      153.171       41.047        0.072      334.189        3.994      861.169
12/14/2014  15:50:00     -135.999     -144.942       -6.835       79.933       65.699       37.815     6389.228     4316.407     1429.980        2.584        0.607      198.756       36.194        0.033      334.216        4.038      861.171
12/14/2014  15:51:00      -93.470      -66.478        6.303       75.811       58.365       38.390     5747.263     3406.495     1473.821        1.191        0.531      114.700       30.592        0.071      334.236        4.074      861.179
12/14/2014  15:52:00      -83.008      -96.853       -4.568      100.400       56.340       34.379    10080.249     3174.209     1181.901        1.536        0.722      127.557       22.800        0.032      334.127        3.893      861.190
12/14/2014  15:53:00     -192.874     -108.912       -0.095      106.405      103.237       50.456    11321.956    10657.826     2545.855        3.679        1.226      221.500       53.918        0.059      333.812        3.368      861.189
12/14/2014  15:54:00     -118.896      -75.039        5.334       88.797       66.345       41.272     7884.878     4401.687     1703.368        1.689        0.699      140.596       32.642        0.054      333.840        3.417      861.212
12/14/2014  15:55:00      -95.621      -36.096        8.283       89.130       61.645       34.451     7944.246     3800.046     1186.888        1.172        0.647      102.207       37.287        0.133      333.793        3.339      861.261
12/14/2014  15:56:00     -118.266      -81.625        7.476       81.733       43.980       36.019     6680.277     1934.235     1297.397        1.531        0.496      143.699       33.818        0.055      333.823        3.389      861.325
12/14/2014  15:57:00     -189.838     -127.990       13.535      118.256      107.649       64.129    13984.521    11588.256     4112.563        4.114        1.484      228.954       66.756        0.085      333.639        3.083      861.391
12/14/2014  15:58:00     -271.693     -174.119       -3.384      116.926      102.547       62.850    13671.623    10515.860     3950.086        6.614        1.407      322.699       60.234        0.035      333.516        2.878      861.433
12/14/2014  15:59:00     -244.495     -123.637       -7.103       99.179      104.160       44.238     9836.441    10849.217     1956.992        4.887        1.132      273.978       46.843        0.029      333.469        2.802      861.470
12/14/2014  16:00:00     -220.950      -98.763        1.411      130.811       85.486       48.160    17111.441     7307.777     2319.362        4.265        1.337      242.018       53.678        0.049      333.522        2.887      861.476
12/14/2014  16:01:00     -173.374     -103.551       -5.362       98.677      110.730       45.497     9737.146    12261.099     2069.976        3.243        1.203      201.944       45.947        0.052      333.503        2.858      861.456
12/14/2014  16:02:00     -168.186     -106.440        3.270      117.182       56.009       43.883    13731.551     3136.986     1925.728        2.921        0.940      199.037       54.027        0.074      333.479        2.818      861.442
12/14/2014  16:03:00     -143.930      -83.955      -10.401       72.390       79.043       40.090     5240.374     6247.820     1607.189        2.048        0.655      166.626       42.029        0.064      333.493        2.842      861.442
12/14/2014  16:04:00     -185.352      -84.634        1.515       78.587       60.102       37.862     6175.858     3612.295     1433.527        2.637        0.561      203.760       38.794        0.036      333.473        2.809      861.455
12/14/2014  16:05:00     -193.328     -123.006       -5.041       64.244       67.975       35.405     4127.252     4620.581     1253.541        3.126        0.500      229.143       29.646        0.017      333.511        2.870      861.473
12/14/2014  16:06:00     -128.538     -103.778        3.006       74.380       70.391       52.089     5532.356     4954.849     2713.237        2.025        0.660      165.202       51.475        0.097      333.475        2.810      861.451
12/14/2014  16:07:00      -42.272      -56.879        1.956       60.838       56.407       43.245     3701.295     3181.723     1870.145        0.689        0.438       70.867       28.523        0.162      333.490        2.838      861.440
12/14/2014  16:08:00     -108.042      -53.890        0.281       55.807       40.524       29.449     3114.376     1642.223      867.243        1.010        0.281      120.736       23.980        0.039      333.523        2.892      861.441
12/14/2014  16:09:00     -148.951      -16.824       -7.679       47.406       33.492       31.288     2247.309     1121.714      978.930        1.344        0.217      149.898       29.132        0.038      333.492        2.841      861.442
12/14/2014  16:10:00      -80.782      -21.269        7.573       64.522       43.428       29.556     4163.142     1885.972      873.577        0.698        0.346       83.535       33.499        0.161      333.552        2.941      861.437
12/14/2014  16:11:00      -30.480      -29.917       -8.341       47.453       38.662       32.692     2251.770     1494.779     1068.784        0.335        0.241       42.709       30.520        0.511      333.540        2.922      861.433
12/14/2014  16:12:00      -33.991      -38.307       -7.011       37.234       40.910       23.389     1386.377     1673.600      547.028        0.314        0.180       51.214       10.823        0.045      333.587        3.000      861.434
12/14/2014  16:13:00      -38.842      -54.619        6.598       42.538       42.817       21.771     1809.453     1833.307      473.979        0.433        0.206       67.022       22.411        0.112      333.578        2.984      861.456
12/14/2014  16:14:00      -73.463      -76.675       -2.291       60.724       58.744       21.927     3687.365     3450.885      480.784        0.945        0.381      106.188       23.445        0.049      333.457        2.784      861.499
12/14/2014  16:15:00     -122.631      -41.610        2.248       62.648       49.267       27.197     3924.806     2427.194      739.669        1.193        0.355      129.498       30.367        0.055      333.438        2.753      861.538
12/14/2014  16:16:00     -139.796      -67.794        4.893       61.710       42.514       32.773     3808.096     1807.453     1074.079        1.542        0.334      155.367       30.628        0.039      333.368        2.637      861.553
12/14/2014  16:17:00      -80.126      -58.593        8.932       47.018       40.552       26.553     2210.688     1644.487      705.049        0.725        0.228       99.264       20.303        0.042      333.379        2.655      861.560
12/14/2014  16:18:00      -61.506      -96.894       -4.824       29.013       38.001       19.665      841.768     1444.099      386.724        0.793        0.134      114.767       13.300        0.013      333.447        2.765      861.561
12/14/2014  16:19:00      -34.071      -72.865        9.566       50.576       52.180       28.107     2557.882     2722.747      789.989        0.631        0.304       80.437       30.000        0.139      333.493        2.842      861.543
12/14/2014  16:20:00      -34.402      -36.144        4.929       27.333       23.171       20.136      747.068      536.908      405.440        0.210        0.084       49.899       16.382        0.108      333.486        2.831      861.529
12/14/2014  16:21:00      -51.696      -32.513       -9.316       32.214       23.299       13.545     1037.748      542.843      183.477        0.279        0.088       61.070       10.846        0.032      333.404        2.694      861.520
12/14/2014  16:22:00      -67.858      -40.540        3.351       49.288       32.647       22.476     2429.265     1065.799      505.168        0.513        0.200       79.045       21.918        0.077      333.423        2.727      861.553
12/14/2014  16:23:00      -56.678       -7.241        5.009       45.560       30.294       19.724     2075.706      917.712      389.023        0.334        0.169       57.139       24.746        0.188      333.551        2.938      861.593
12/14/2014  16:24:00      -55.572      -13.909        4.281       48.457       70.051       19.069     2348.113     4907.133      363.636        0.546        0.381       57.286       19.375        0.114      333.510        2.872      861.623
12/14/2014  16:25:00      -62.161      -45.785       12.572       68.509       51.908       39.757     4693.473     2694.492     1580.582        0.754        0.448       77.203       44.227        0.328      333.385        2.664      861.654
12/14/2014  16:26:00     -104.591       -4.438      -15.869       33.929       24.337       20.484     1151.179      592.292      419.584        0.669        0.108      104.685       16.201        0.024      333.279        2.489      861.675
12/14/2014  16:27:00      -86.645      -10.102      -14.236       20.283       37.746       19.095      411.381     1424.732      364.623        0.501        0.110       87.232       16.880        0.037      333.363        2.628      861.695
12/14/2014  16:28:00      -50.904      -16.710        3.038       40.353       22.003       16.872     1628.350      484.114      284.665        0.264        0.120       53.576       15.683        0.086      333.470        2.807      861.701
12/14/2014  16:29:00      -60.840      -12.276      -11.822       32.828       30.432       28.025     1077.662      926.093      785.387        0.339        0.139       62.066       22.376        0.130      333.300        2.524      861.708
12/14/2014  16:30:00      -54.486      -11.275       -2.866       31.144       23.149       16.576      969.974      535.871      274.763        0.244        0.089       55.640       17.202        0.096      333.355        2.615      861.703
12/14/2014  16:31:00      -85.665      -43.108      -10.235       34.130       27.842       13.858     1164.831      775.192      192.044        0.572        0.107       95.900        9.600        0.010      333.318        2.555      861.703
12/14/2014  16:32:00      -30.988        7.615       13.059       43.634       35.744       37.343     1903.912     1277.642     1394.467        0.288        0.229       31.910       28.777        0.813      333.368        2.637      861.714
12/14/2014  16:33:00      -86.983      -47.882       -1.777       52.970       43.691       25.518     2805.849     1908.918      651.192        0.761        0.268       99.292       24.454        0.061      333.292        2.513      861.733
12/14/2014  16:34:00     -136.218      -70.379       -4.229       61.815       37.477       32.407     3821.121     1404.522     1050.227        1.490        0.314      153.325       37.015        0.058      333.174        2.317      861.754
12/14/2014  16:35:00      -65.660      -66.644       19.181       94.655       77.102       37.246     8959.555     5944.702     1387.257        1.270        0.815       93.555       49.635        0.281      333.173        2.313      861.769
12/14/2014  16:36:00      -75.592      -29.915        3.751       49.966       44.615       25.419     2496.636     1990.476      646.151        0.588        0.257       81.296       27.027        0.111      333.112        2.216      861.755
12/14/2014  16:37:00      -38.863      -24.299        1.914       30.862       20.173       13.744      952.486      406.957      188.888        0.183        0.077       45.834       14.050        0.094      333.160        2.291      861.719
12/14/2014  16:38:00      -29.327       -9.245        3.981       52.978       21.439       19.278     2806.619      459.621      371.655        0.230        0.182       30.750       23.803        0.599      333.232        2.410      861.659
12/14/2014  16:39:00      -45.830       -1.414        1.813       24.667       23.668       14.257      608.476      560.164      203.272        0.174        0.069       45.852       14.536        0.100      333.167        2.304      861.624
12/14/2014  16:40:00     -118.384       28.618      -11.251       36.797       23.965       17.052     1354.026      574.322      290.774        0.859        0.111      121.794       15.938        0.017      333.074        2.151      861.603
12/14/2014  16:41:00     -107.567       -4.682       -9.899       30.383       30.848       17.834      923.118      951.587      318.037        0.694        0.110      107.669       18.875        0.031      333.023        2.067      861.589
12/14/2014  16:42:00      -82.144      -10.592       -3.022       30.985       19.610       14.032      960.054      384.563      196.896        0.420        0.077       82.824       12.316        0.022      333.119        2.226      861.588
12/14/2014  16:43:00     -106.721        8.882       -8.545       33.910       24.834       14.767     1149.854      616.705      218.057        0.676        0.099      107.090       14.266        0.018      333.052        2.114      861.590
12/14/2014  16:44:00      -75.273      -15.101       -6.061       28.720       18.629       17.001      824.861      347.054      289.047        0.370        0.073       76.773        8.391        0.012      333.005        2.037      861.597
12/14/2014  16:45:00       -6.216       20.541        6.856       29.241       20.686       14.695      855.044      427.928      215.929        0.100        0.075       21.461       13.156        0.376      333.070        2.146      861.580
12/14/2014  16:46:00      -16.513        5.059       -0.078       15.656       24.859        7.888      245.109      617.979       62.222        0.061        0.046       17.271        8.417        0.238      333.061        2.131      861.566
12/14/2014  16:47:00       13.774       14.456       -2.121       12.549       21.461       17.409      157.469      460.563      303.062        0.066        0.046       19.968        9.493        0.226      333.025        2.069      861.544
12/14/2014  16:48:00       21.006       41.091        4.105       14.426       21.580       13.594      208.106      465.684      184.809        0.150        0.043       46.149       10.891        0.056      333.059        2.127      861.525
12/14/2014  16:49:00       32.902       43.156       -1.145       17.038       21.191       10.647      290.304      449.057      113.350        0.190        0.043       54.267        6.838        0.016      333.007        2.039      861.516
12/14/2014  16:50:00       49.385       31.150       -6.711       28.117       18.504       18.294      790.593      342.382      334.663        0.246        0.073       58.388       10.650        0.033      332.991        2.013      861.510
12/14/2014  16:51:00       60.779       45.591        6.422       15.873       14.170       13.830      251.967      200.789      191.274        0.323        0.032       75.977       10.018        0.017      332.882        1.835      861.509
12/14/2014  16:52:00       59.267       44.724        1.966       12.044       12.428       10.225      145.058      154.445      104.560        0.296        0.020       74.249        6.961        0.009      332.855        1.791      861.521
12/14/2014  16:53:00       38.547       39.379       -1.734       23.547       18.787       12.360      554.439      352.948      152.767        0.205        0.053       55.105       11.444        0.043      332.860        1.798      861.526
12/14/2014  16:54:00       47.028       41.375        3.838       13.954       14.637       15.808      194.711      214.227      249.888        0.230        0.033       62.638       12.265        0.038      332.833        1.754      861.519
12/14/2014  16:55:00       27.175       50.869        1.035       25.911       18.279       14.762      671.370      334.134      217.909        0.228        0.061       57.673       10.485        0.033      332.818        1.729      861.523
12/14/2014  16:56:00       33.515       58.188       -9.725       17.210       25.999        9.815      296.200      675.936       96.329        0.284        0.053       67.149        9.412        0.020      332.833        1.753      861.513
12/14/2014  16:57:00       33.676       47.693       -5.030       17.277       25.118       15.200      298.504      630.921      231.030        0.230        0.058       58.384       16.099        0.076      332.836        1.759      861.511
12/14/2014  16:58:00       91.489       43.071        1.533       39.268       25.754       22.730     1541.991      663.272      516.673        0.647        0.136      101.120       16.391        0.026      332.816        1.725      861.496
12/14/2014  16:59:00      107.492       55.128        9.160       34.396       26.736       25.561     1183.075      714.795      653.363        0.861        0.128      120.804       20.877        0.030      332.727        1.579      861.490
12/14/2014  17:00:00       96.462       63.658       11.760       27.384       23.411       29.191      749.873      548.063      852.101        0.782        0.108      115.574       15.166        0.017      332.735        1.591      861.464
12/14/2014  17:01:00       89.504       81.190       39.315       55.358       38.898       40.223     3064.523     1513.060     1617.852        1.117        0.310      120.842       33.570        0.077      332.382        1.009      861.421
12/14/2014  17:02:00       92.068      107.312       23.859       58.747       54.290       40.411     3451.157     2947.447     1633.027        1.430        0.402      141.394       30.101        0.045      331.651       -0.197      861.405
12/14/2014  17:03:00       60.922       83.173       35.880       55.689       53.009       47.696     3101.235     2809.997     2274.947        1.005        0.409      103.098       28.849        0.078      331.647       -0.202      861.397
12/14/2014  17:04:00      102.246       72.738       41.001       50.763       40.558       35.704     2576.904     1644.975     1274.768        1.146        0.275      125.480       29.518        0.055      331.597       -0.285      861.391
12/14/2014  17:05:00       68.542      118.209       12.661       53.817       73.955       49.471     2896.309     5469.366     2447.401        1.482        0.541      136.643       44.480        0.106      331.750       -0.035      861.383
12/14/2014  17:06:00       24.552      118.130       40.642       70.666       86.816       48.399     4993.748     7537.018     2342.459        1.554        0.744      120.654       42.654        0.125      331.830        0.098      861.360
12/14/2014  17:07:00       64.142      121.104       37.216       67.963       97.847       56.534     4618.982     9574.057     3196.073        1.877        0.869      137.042       52.943        0.149      331.772        0.002      861.357
12/14/2014  17:08:00       60.810      111.263       24.885       82.079      106.031       59.617     6736.924    11242.487     3554.184        1.911        1.077      126.796       59.243        0.218      332.276        0.831      861.351
12/14/2014  17:09:00       71.275       43.297       19.367       46.674       45.326       31.306     2178.503     2054.421      980.051        0.627        0.261       83.395       23.650        0.080      332.674        1.491      861.350
12/14/2014  17:10:00       77.105      104.924      -10.851       62.392       80.395       50.848     3892.703     6463.278     2585.481        1.500        0.647      130.208       54.118        0.173      332.338        0.935      861.353
12/14/2014  17:11:00       95.504       72.111       35.172       49.079       53.120       45.113     2408.700     2821.731     2035.185        1.141        0.363      119.670       23.099        0.037      331.772        0.003      861.362
12/14/2014  17:12:00       92.933       89.006       33.100       45.693       66.903       41.882     2087.870     4476.076     1754.090        1.298        0.416      128.680       44.498        0.120      332.502        1.206      861.347
12/14/2014  17:13:00      125.064       87.294       33.779       37.894       29.468       36.064     1435.969      868.345     1300.612        1.400        0.180      152.516       20.948        0.019      332.578        1.332      861.319
12/14/2014  17:14:00      103.686       51.445       28.421       40.134       35.489       36.920     1610.732     1259.445     1363.111        0.922        0.212      115.747       26.660        0.053      332.623        1.407      861.294
12/14/2014  17:15:00       95.350       80.952       45.501       54.731       26.913       29.097     2995.447      724.318      846.652        1.114        0.228      125.079       26.377        0.044      332.652        1.454      861.299
12/14/2014  17:16:00       58.006       57.322       53.012       36.213       32.251       29.872     1311.349     1040.109      892.313        0.635        0.162       81.551       21.496        0.069      332.755        1.624      861.308
12/14/2014  17:17:00       56.084       62.797       70.033       34.389       41.523       21.716     1182.573     1724.140      471.598        0.769        0.169       84.195       16.031        0.036      332.797        1.694      861.321
12/14/2014  17:18:00       57.938       46.140       44.817       37.830       42.716       27.294     1431.077     1824.658      744.949        0.575        0.200       74.066       25.852        0.122      332.799        1.696      861.319
12/14/2014  17:19:00       27.976       49.027       44.197       24.189       25.154       18.637      585.116      632.741      347.330        0.335        0.078       56.447       14.274        0.064      332.843        1.771      861.321
12/14/2014  17:20:00       98.673       75.868       33.163       38.270       26.101       27.301     1464.581      681.261      745.336        0.974        0.145      124.468       23.941        0.037      332.764        1.639      861.335
12/14/2014  17:21:00       91.296       67.241       10.045       34.154       27.946       28.596     1166.522      780.978      817.746        0.786        0.138      113.386       20.338        0.032      332.709        1.548      861.345
12/14/2014  17:22:00       63.990       33.834       15.525       27.251       34.810       22.918      742.625     1211.736      525.253        0.398        0.124       72.384        6.939        0.009      332.756        1.626      861.366
12/14/2014  17:23:00       87.578       52.334       20.030       44.778       34.279       26.208     2005.098     1175.074      686.855        0.734        0.193      102.023       23.341        0.052      332.728        1.580      861.391
12/14/2014  17:24:00       65.598       39.618       32.345       26.649       33.508       23.517      710.159     1122.798      553.048        0.465        0.119       76.633       17.539        0.052      332.759        1.632      861.409
12/14/2014  17:25:00       18.352       22.896       29.837       21.469       23.679       20.057      460.928      560.684      402.290        0.159        0.071       29.343       13.539        0.213      332.891        1.850      861.423
12/14/2014  17:26:00       90.853       -4.249       69.808       71.942       66.323       44.977     5175.656     4398.783     2022.937        1.237        0.580       90.952       53.892        0.351      332.588        1.347      861.438
12/14/2014  17:27:00      165.970      -56.172       79.297       48.749       56.644       40.559     2376.512     3208.580     1645.073        2.211        0.362      175.218       46.625        0.071      332.066        0.486      861.453
12/14/2014  17:28:00      101.678       -4.684       36.494       67.195       82.872       57.135     4515.121     6867.759     3264.433        1.317        0.732      101.786       67.106        0.435      331.839        0.111      861.466
12/14/2014  17:29:00      116.640      -18.394       52.466       51.827       77.248       52.718     2686.032     5967.327     2779.193        1.406        0.572      118.081       64.202        0.296      331.867        0.159      861.460
12/14/2014  17:30:00       96.296       44.635       30.347       58.856       87.644       50.736     3463.977     7681.537     2574.160        1.295        0.686      106.138       68.767        0.420      331.810        0.064      861.451
12/14/2014  17:31:00       61.960       56.638       -0.850       56.193       84.727       48.034     3157.605     7178.672     2307.285        0.984        0.632       83.946       64.818        0.596      331.804        0.055      861.441
12/14/2014  17:32:00       62.517      111.129      -23.222       55.205       97.181       52.137     3047.564     9444.172     2718.274        1.600        0.761      127.507       71.909        0.318      332.002        0.381      861.420
12/14/2014  17:33:00       37.596      160.507      -36.619       44.735       75.254       40.664     2001.188     5663.123     1653.595        1.892        0.466      164.852       54.909        0.111      332.173        0.662      861.393
12/14/2014  17:34:00       30.085      152.376      -20.714       54.509       79.825       45.136     2971.244     6372.044     2037.276        1.796        0.569      155.318       56.837        0.134      332.504        1.209      861.381
12/14/2014  17:35:00        9.407       64.715       -4.459       42.604       72.382       36.550     1815.113     5239.204     1335.938        0.634        0.420       65.395       45.281        0.479      332.703        1.540      861.378
12/14/2014  17:36:00       31.947       63.516        1.022       41.736       58.851       32.001     1741.882     3463.404     1024.090        0.564        0.311       71.098       36.941        0.270      332.705        1.543      861.382
12/14/2014  17:37:00       62.682       37.246        3.864       33.231       36.119       22.538     1104.307     1304.563      507.975        0.412        0.146       72.913       22.617        0.096      332.789        1.681      861.390
12/14/2014  17:38:00       63.162       54.760       10.614       23.182       30.950       20.078      537.423      957.875      403.126        0.450        0.095       83.595       21.509        0.066      332.782        1.668      861.394
12/14/2014  17:39:00       70.359       59.445        8.177       16.130       21.944       20.929      260.193      481.550      438.024        0.487        0.059       92.109       14.823        0.026      332.791        1.685      861.403
12/14/2014  17:40:00       68.170       50.034        3.560       18.897       14.883       18.947      357.081      221.500      358.987        0.405        0.047       84.561       12.618        0.022      332.809        1.715      861.398
12/14/2014  17:41:00       50.163       44.945       16.440       17.264       11.477       24.417      298.037      131.727      596.167        0.292        0.051       67.352       12.917        0.037      332.837        1.761      861.391
12/14/2014  17:42:00       29.317       47.194       33.996       22.924       22.461       22.663      525.516      504.516      513.634        0.289        0.077       55.559        8.698        0.025      332.962        1.967      861.391
12/14/2014  17:43:00       50.487       41.962       22.109       32.963       28.435       20.400     1086.549      808.525      416.140        0.355        0.116       65.648       20.532        0.098      332.955        1.955      861.415
12/14/2014  17:44:00       55.702       49.745        6.970       21.897       17.840       18.979      479.458      318.258      360.195        0.339        0.058       74.681       11.948        0.026      332.885        1.839      861.452
12/14/2014  17:45:00       33.674       37.650       -6.726       15.010       19.671       19.424      225.300      386.959      377.306        0.179        0.049       50.512       11.142        0.049      332.903        1.869      861.497
12/14/2014  17:46:00       39.343       35.089      -10.215       25.586       19.051       12.082      654.633      362.952      145.977        0.202        0.058       52.717        8.136        0.024      332.858        1.797      861.530
12/14/2014  17:47:00       27.619       93.685      -13.401       19.764       21.869       13.460      390.616      478.274      181.163        0.538        0.053       97.672        9.872        0.010      332.852        1.785      861.535
12/14/2014  17:48:00       27.752       73.083       -1.845       24.114       32.051       23.573      581.470     1027.252      555.664        0.414        0.108       78.175       17.608        0.051      332.860        1.798      861.523
12/14/2014  17:49:00       43.351       63.049       -4.587       32.969       32.948       31.063     1086.966     1085.580      964.920        0.451        0.157       76.515       26.332        0.118      332.835        1.758      861.507
12/14/2014  17:50:00       78.565       55.069       11.260       29.802       22.768       21.957      888.181      518.367      482.121        0.561        0.094       95.942       13.530        0.020      332.852        1.787      861.497
12/14/2014  17:51:00       96.600       52.630        5.022       10.472        7.997       14.843      109.659       63.957      220.327        0.626        0.020      110.007        6.885        0.004      332.825        1.742      861.488
12/14/2014  17:52:00       88.891       45.116       15.120       31.653       26.125       24.055     1001.883      682.518      578.644        0.621        0.113       99.685       17.875        0.032      332.883        1.838      861.462
12/14/2014  17:53:00       53.301       57.212        7.047       31.282       26.820       26.800      978.538      719.294      718.263        0.429        0.121       78.193       22.870        0.086      332.903        1.870      861.450
12/14/2014  17:54:00       62.209       44.765       11.730       17.936       13.569       19.050      321.713      184.128      362.918        0.344        0.043       76.641        8.211        0.011      332.953        1.950      861.461
12/14/2014  17:55:00       44.692       34.456        5.871       16.391       10.218       16.721      268.664      104.409      279.583        0.194        0.033       56.432        5.810        0.011      332.903        1.868      861.489
12/14/2014  17:56:00        8.461       39.251       -1.003       23.924       27.526       12.419      572.373      757.674      154.238        0.155        0.074       40.152       13.334        0.110      332.874        1.823      861.511
12/14/2014  17:57:00        9.811       57.440       -8.675       14.050       17.528        6.656      197.398      307.228       44.305        0.201        0.027       58.271        8.004        0.019      332.848        1.779      861.516
12/14/2014  17:58:00       -3.204        6.752        3.760       11.136       20.965       13.245      124.004      439.543      175.437        0.040        0.037        7.474       14.890        3.969      332.931        1.914      861.510
12/14/2014  17:59:00       -6.939       -3.247       11.303       15.712       16.086       12.050      246.879      258.767      145.212        0.042        0.033        7.661       13.724        3.209      333.047        2.107      861.499
12/14/2014  18:00:00      -22.068       31.359        5.191       23.746       19.944       16.170      563.863      397.743      261.479        0.136        0.061       38.345       14.757        0.148      333.204        2.366      861.492
12/14/2014  18:01:00      -10.456        5.346       11.738       28.094       18.142       17.041      789.296      329.117      290.393        0.084        0.070       11.744       16.217        1.907      333.253        2.447      861.488
12/14/2014  18:02:00      -35.537       41.955       -5.236       27.008       25.497       18.546      729.428      650.075      343.971        0.239        0.086       54.982       16.265        0.088      333.139        2.258      861.481
12/14/2014  18:03:00      -43.351       68.520      -12.320       22.488       16.798       13.213      505.718      282.171      174.573        0.384        0.048       81.082        5.984        0.005      333.147        2.272      861.491
12/14/2014  18:04:00      -50.857       65.576      -11.312       23.773       27.170       13.362      565.132      738.234      178.553        0.425        0.074       82.986        4.954        0.004      333.296        2.518      861.505
12/14/2014  18:05:00      -30.955       83.841      -11.232       26.191       16.180       12.380      685.987      261.794      153.275        0.461        0.055       89.373        9.173        0.011      333.199        2.358      861.491
12/14/2014  18:06:00       10.041      111.908      -10.377       21.538       27.127       12.808      463.882      735.895      164.038        0.705        0.068      112.357       13.574        0.015      333.140        2.260      861.464
12/14/2014  18:07:00        3.511      102.974      -13.437       12.208       15.828        7.412      149.030      250.532       54.931        0.563        0.023      103.034        5.517        0.003      333.090        2.178      861.457
12/14/2014  18:08:00        3.103       71.761       -4.254       19.282       29.134       17.906      371.805      848.804      320.620        0.336        0.077       71.828       19.932        0.077      333.140        2.260      861.476
12/14/2014  18:09:00        9.578       96.809      -11.855       12.694       16.266       11.009      161.133      264.596      121.192        0.508        0.027       97.282        7.571        0.006      333.069        2.145      861.499
12/14/2014  18:10:00       -6.474       61.496       10.393       22.852       40.999       19.630      522.196     1680.935      385.333        0.326        0.129       61.836       20.426        0.109      333.214        2.382      861.526
12/14/2014  18:11:00       -0.584       30.276        9.399       24.652       25.414       15.767      607.744      645.850      248.597        0.125        0.075       30.281       15.087        0.248      333.279        2.488      861.535
12/14/2014  18:12:00        2.506       91.099       -4.992       20.684       31.905       16.715      427.848     1017.941      279.383        0.503        0.086       91.133       13.153        0.021      333.183        2.332      861.522
12/14/2014  18:13:00       -5.164       99.494       -7.312       12.007       20.481       13.694      144.162      419.460      187.523        0.536        0.038       99.628       11.263        0.013      333.182        2.327      861.485
12/14/2014  18:14:00        0.183       83.766       -8.182        8.087       15.167        8.615       65.400      230.044       74.210        0.373        0.018       83.767        5.207        0.004      333.177        2.322      861.457
12/14/2014  18:15:00       35.906       40.981        4.025       26.346       23.873       16.614      694.098      569.934      276.031        0.226        0.077       54.485       13.186        0.059      333.217        2.385      861.430
12/14/2014  18:16:00       33.586       56.356       -7.323       13.905       28.762       12.854      193.359      827.267      165.214        0.277        0.059       65.605       14.145        0.046      333.220        2.391      861.427
12/14/2014  18:17:00       17.768       74.056       -8.690       15.048       31.359       17.067      226.444      983.400      291.282        0.369        0.075       76.158       19.253        0.064      333.220        2.391      861.427
12/14/2014  18:18:00       14.697       65.091      -13.314       18.906       17.703       11.663      357.431      313.398      136.018        0.272        0.040       66.730        9.747        0.021      333.227        2.402      861.410
12/14/2014  18:19:00       20.776       50.467       -5.861       18.521       27.342       17.964      343.025      747.611      322.713        0.221        0.071       54.576       18.843        0.119      333.250        2.440      861.393
12/14/2014  18:20:00       12.420       55.142      -10.524       13.261       17.762        8.665      175.865      315.501       75.080        0.194        0.028       56.523        8.144        0.021      333.249        2.439      861.398
12/14/2014  18:21:00       14.424       24.277       -0.971        9.107       14.090        9.583       82.942      198.537       91.839        0.059        0.019       28.238        4.511        0.026      333.271        2.472      861.427
12/14/2014  18:22:00        3.204       44.220       -7.996        8.171       16.756        7.430       66.769      280.759       55.203        0.122        0.020       44.336        5.296        0.014      333.254        2.446      861.444
12/14/2014  18:23:00       -1.081       45.603       -0.446       13.699       18.659       16.081      187.674      348.151      258.590        0.144        0.040       45.616       10.616        0.054      333.295        2.516      861.447
12/14/2014  18:24:00       60.119       42.237        1.531       12.092       13.352       10.932      146.213      178.286      119.503        0.292        0.022       73.473        9.041        0.015      333.250        2.440      861.432
12/14/2014  18:25:00       58.128       44.648       -0.329       16.156       12.048       13.147      261.024      145.166      172.855        0.298        0.029       73.296        6.192        0.007      333.254        2.447      861.413
12/14/2014  18:26:00       74.685       52.149       22.158       22.301       18.883       24.245      497.342      356.583      587.828        0.511        0.072       91.090       12.803        0.020      333.284        2.498      861.411
12/14/2014  18:27:00       64.256       41.058        4.978       26.404       19.357       17.988      697.146      374.691      323.564        0.362        0.070       76.253       13.496        0.031      333.265        2.466      861.404
12/14/2014  18:28:00       45.664       39.543        8.792       19.852       10.348       14.406      394.102      107.090      207.521        0.222        0.035       60.405        4.959        0.007      333.237        2.419      861.398
12/14/2014  18:29:00       43.088       37.029       -6.123       20.276       15.807       13.839      411.114      249.875      191.509        0.206        0.043       56.812       14.194        0.062      333.215        2.384      861.397
12/14/2014  18:30:00       45.747       40.191        3.090       18.022       14.027       12.691      324.784      196.749      161.072        0.220        0.034       60.894        7.230        0.014      333.193        2.346      861.379
12/14/2014  18:31:00       25.713       58.842       -3.729       16.299       17.652        7.578      265.660      311.590       57.431        0.239        0.032       64.215        5.584        0.008      333.188        2.338      861.361
12/14/2014  18:32:00       19.708       66.025       -6.407       10.656        9.395        9.029      113.553       88.266       81.529        0.254        0.014       68.903        7.280        0.011      333.185        2.333      861.370
12/14/2014  18:33:00       31.129       50.935       -2.775       17.733       20.613       12.566      314.453      424.914      157.896        0.223        0.045       59.694        6.997        0.014      333.218        2.387      861.370
12/14/2014  18:34:00       57.046       41.567        6.555       16.905       18.427       20.711      285.770      339.552      428.952        0.304        0.053       70.584       14.717        0.043      333.236        2.417      861.368
12/14/2014  18:35:00       62.243       28.487        9.953       20.742       16.310       18.168      430.235      266.012      330.090        0.291        0.051       68.453        4.878        0.005      333.250        2.441      861.369
12/14/2014  18:36:00       86.623       46.361        3.186       16.646       11.263        9.705      277.073      126.853       94.183        0.508        0.025       98.249        7.129        0.005      333.204        2.366      861.376
12/14/2014  18:37:00       45.521       25.430       22.091       20.226       25.526       12.564      409.101      651.555      157.866        0.221        0.061       52.143        9.969        0.037      333.261        2.460      861.400
12/14/2014  18:38:00       36.780       34.570       41.451       30.520       24.439       22.387      931.487      597.246      501.158        0.315        0.101       50.476       16.096        0.102      333.284        2.497      861.436
12/14/2014  18:39:00       78.723       37.312       28.866       31.501       29.327       29.440      992.332      860.090      866.691        0.557        0.136       87.118       20.038        0.053      333.244        2.432      861.445
12/14/2014  18:40:00       67.057       38.070        6.663       21.262       24.901       17.787      452.090      620.068      316.394        0.369        0.069       77.110       11.869        0.024      333.221        2.394      861.438
12/14/2014  18:41:00       56.231       40.924       16.198       15.975       14.121       14.622      255.212      199.399      213.801        0.288        0.033       69.546        7.530        0.012      333.230        2.407      861.443
12/14/2014  18:42:00       76.004       34.607       23.394       18.082       16.713       17.628      326.950      279.317      310.760        0.422        0.046       83.512       10.190        0.015      333.265        2.466      861.457
12/14/2014  18:43:00       45.038       35.218       24.361       15.677       18.839       15.009      245.762      354.903      225.256        0.234        0.041       57.173        3.934        0.005      333.340        2.590      861.454
12/14/2014  18:44:00       15.554       11.118       27.631       21.662       26.541       17.953      469.248      704.419      322.317        0.131        0.075       19.119       14.842        0.603      333.333        2.579      861.455
12/14/2014  18:45:00        7.188        5.789       30.067       23.598       22.177       13.215      556.872      491.801      174.642        0.111        0.061        9.229        7.606        0.679      333.378        2.653      861.456
12/14/2014  18:46:00       12.835       22.205       36.770       21.122       20.215       18.860      446.125      408.632      355.702        0.161        0.061       25.648       12.755        0.247      333.369        2.639      861.447
12/14/2014  18:47:00       28.351       43.316       51.072       24.813       25.468       13.447      615.703      648.618      180.817        0.337        0.072       51.769        6.933        0.018      333.311        2.542      861.428
12/14/2014  18:48:00       33.752       27.260       27.758       32.093       22.509       19.949     1029.966      506.676      397.963        0.229        0.097       43.385       15.854        0.134      333.333        2.579      861.432
12/14/2014  18:49:00       48.944       -2.884       16.855       19.009       14.655       15.510      361.325      214.768      240.565        0.175        0.041       49.029        8.232        0.028      333.301        2.525      861.445
12/14/2014  18:50:00       40.026       45.260       16.868       19.119       19.849       17.339      365.523      393.995      300.650        0.250        0.053       60.420       11.088        0.034      333.273        2.479      861.449
12/14/2014  18:51:00       79.019       58.514       37.550       28.280       21.293       14.523      799.765      453.405      210.931        0.627        0.073       98.326        9.900        0.010      333.237        2.418      861.421
12/14/2014  18:52:00       50.278       67.309       53.866       38.457       30.877       25.816     1478.938      953.364      666.472        0.653        0.155       84.014       20.909        0.062      333.315        2.550      861.400
12/14/2014  18:53:00       26.690       34.887       45.639       27.216       25.865       22.720      740.697      669.013      516.207        0.297        0.096       43.925       17.068        0.151      333.299        2.522      861.410
12/14/2014  18:54:00       63.056       54.590       21.855       17.385       14.651       25.159      302.242      214.661      632.977        0.429        0.057       83.404       14.025        0.028      333.259        2.456      861.439
12/14/2014  18:55:00       54.983       27.783       25.118       31.092       19.467       24.071      966.696      378.947      579.427        0.318        0.096       61.604       15.056        0.060      333.267        2.468      861.464
12/14/2014  18:56:00       41.692       23.958       12.149       29.839       20.686       18.905      890.338      427.929      357.409        0.207        0.084       48.085       20.055        0.174      333.274        2.482      861.472
12/14/2014  18:57:00       34.451       22.068        9.816       20.976       12.876       18.806      439.996      165.793      353.670        0.136        0.048       40.913       12.419        0.092      333.315        2.548      861.471
12/14/2014  18:58:00       28.148       27.521        4.370       26.800       14.343       10.230      718.229      205.719      104.660        0.130        0.051       39.366        7.727        0.039      333.270        2.474      861.478
12/14/2014  18:59:00       49.831       40.615        6.365       13.853       14.255       11.983      191.913      203.203      143.594        0.236        0.027       64.286        5.510        0.007      333.234        2.413      861.482
12/14/2014  19:00:00       51.596       34.291        2.645       11.077       10.661        8.544      122.694      113.658       72.997        0.208        0.015       61.952        4.981        0.006      333.242        2.427      861.479
12/14/2014  19:01:00       47.538       41.131        4.270        7.532        7.218        7.331       56.736       52.096       53.741        0.207        0.008       62.862        5.265        0.007      333.232        2.409      861.498
12/14/2014  19:02:00       63.897       47.560       23.335       18.993       16.183       18.623      360.716      261.888      346.823        0.393        0.048       79.654       14.473        0.033      333.282        2.494      861.510
12/14/2014  19:03:00       46.934       39.138       30.607       19.117       15.664       18.102      365.468      245.368      327.680        0.280        0.047       61.112        9.692        0.025      333.327        2.569      861.510
12/14/2014  19:04:00       50.836       26.692       11.471       13.384       15.132       15.535      179.121      228.982      241.328        0.204        0.032       57.417        9.812        0.029      333.285        2.500      861.520
12/14/2014  19:05:00       24.722       19.847        4.717       15.102        7.908       11.625      228.067       62.544      135.140        0.073        0.021       31.703        6.966        0.048      333.309        2.540      861.530
12/14/2014  19:06:00       50.907       31.992        5.385       15.473        7.548       11.287      239.419       56.973      127.405        0.203        0.021       60.125        9.742        0.026      333.268        2.470      861.518
12/14/2014  19:07:00       79.753       45.635        5.449       14.324       19.836       12.675      205.187      393.466      160.655        0.462        0.038       91.886        4.854        0.003      333.268        2.470      861.500
12/14/2014  19:08:00       60.720       53.265       11.718       22.219       15.489       17.910      493.701      239.903      320.775        0.386        0.053       80.772       15.068        0.035      333.265        2.467      861.493
12/14/2014  19:09:00       57.986       48.238       18.770       15.744       11.457       16.015      247.883      131.264      256.475        0.334        0.032       75.427        5.345        0.005      333.302        2.528      861.502
12/14/2014  19:10:00       60.590       50.489       26.971        8.099       11.517       12.439       65.597      132.637      154.736        0.365        0.018       78.869        6.699        0.007      333.242        2.431      861.508
12/14/2014  19:11:00       57.512       49.144       23.686       20.658       11.028       16.371      426.746      121.620      268.006        0.355        0.041       75.649        7.869        0.011      333.283        2.496      861.509
12/14/2014  19:12:00       69.690       48.499       26.938       12.338       11.471       12.270      152.234      131.587      150.561        0.418        0.022       84.905        5.135        0.004      333.285        2.501      861.517
12/14/2014  19:13:00       79.809       38.139       12.600       21.871       17.829       18.442      478.357      317.885      340.106        0.456        0.057       88.453       12.439        0.020      333.302        2.527      861.520
12/14/2014  19:14:00       88.033       60.597       24.692       29.934       17.189       20.239      896.043      295.454      409.636        0.682        0.080      106.873       19.011        0.032      333.287        2.504      861.524
12/14/2014  19:15:00       54.117       56.300       48.461       43.472       26.556       24.882     1889.818      705.238      619.125        0.583        0.161       78.092       20.274        0.067      333.300        2.524      861.536
12/14/2014  19:16:00       12.019       -0.062       38.343       20.604       50.810       26.056      424.511     2581.703      678.897        0.265        0.184       12.019       29.922        6.198      333.407        2.701      861.536
12/14/2014  19:17:00       17.711       18.316       44.386       25.542       29.376       20.305      652.369      862.940      412.282        0.227        0.096       25.479       17.724        0.484      333.410        2.706      861.538
12/14/2014  19:18:00       29.472       48.398       43.103       27.387       23.608       16.498      750.040      557.355      272.183        0.332        0.079       56.666        6.682        0.014      333.391        2.675      861.527
12/14/2014  19:19:00       34.191       34.801       35.877       30.656       20.373       16.586      939.791      415.048      275.094        0.265        0.081       48.787       14.440        0.088      333.372        2.643      861.537
12/14/2014  19:20:00       58.360       43.767       17.693       20.335       18.118       16.529      413.511      328.270      273.214        0.332        0.051       72.949       13.279        0.033      333.283        2.496      861.562
12/14/2014  19:21:00       16.646       39.692       46.985       22.263       17.074        8.396      495.651      291.508       70.494        0.246        0.043       43.041        7.013        0.027      333.324        2.565      861.592
12/14/2014  19:22:00       30.665       47.472       43.290       16.572       14.408       12.257      274.639      207.599      150.244        0.285        0.032       56.515       10.488        0.034      333.315        2.549      861.601
12/14/2014  19:23:00       56.508       42.914       30.673       25.836       14.159       21.697      667.519      200.473      470.775        0.366        0.067       70.956       18.538        0.068      333.333        2.578      861.595
12/14/2014  19:24:00       71.121       31.442       10.182       19.933       17.691       18.420      397.317      312.957      339.301        0.360        0.052       77.761       13.337        0.029      333.364        2.630      861.597
12/14/2014  19:25:00       68.658       42.564       15.514       17.791       15.734       15.184      316.510      247.558      230.551        0.378        0.040       80.781        6.869        0.007      333.342        2.594      861.592
12/14/2014  19:26:00       73.381       55.507       24.199       23.953       21.142       28.132      573.748      446.969      791.419        0.543        0.091       92.010       17.078        0.034      333.366        2.633      861.575
12/14/2014  19:27:00       83.534       61.917       36.513       19.894       21.200       20.258      395.768      449.432      410.393        0.670        0.063      103.979       13.449        0.017      333.322        2.560      861.547
12/14/2014  19:28:00       43.552       62.041       49.794       45.279       33.865       32.342     2050.194     1146.839     1045.997        0.623        0.212       75.802       29.946        0.156      333.419        2.721      861.530
12/14/2014  19:29:00       46.821       47.904       32.438       35.002       23.841       17.781     1225.115      568.379      316.160        0.382        0.105       66.985       16.991        0.064      333.327        2.569      861.524
12/14/2014  19:30:00       78.372       56.655       15.139       16.704       14.072       17.439      279.037      198.008      304.106        0.518        0.039       96.706        9.300        0.009      333.294        2.511      861.522
12/14/2014  19:31:00       81.047       59.811       -0.413       28.226       16.625       15.265      796.713      276.384      233.019        0.573        0.065      100.727       10.189        0.010      333.289        2.506      861.515
12/14/2014  19:32:00      107.094       67.921        2.573       19.954       18.899       14.008      398.170      357.185      196.213        0.852        0.048      126.816       11.223        0.008      333.272        2.478      861.517
12/14/2014  19:33:00       58.233       44.645        6.726       21.189       17.091       20.333      448.967      292.100      413.451        0.329        0.058       73.377       13.941        0.036      333.280        2.493      861.528
12/14/2014  19:34:00       33.144       31.791       -2.714       21.473       24.970       13.270      461.074      623.493      176.081        0.169        0.063       45.926       12.934        0.079      333.285        2.499      861.524
12/14/2014  19:35:00       45.974       53.983       -3.887       33.031       31.909       21.826     1091.031     1018.159      476.392        0.381        0.129       70.906       21.179        0.089      333.288        2.504      861.504
12/14/2014  19:36:00       85.569       53.480       10.784       33.139       24.967       19.878     1098.174      623.363      395.129        0.621        0.106      100.906       11.632        0.013      333.313        2.545      861.462
12/14/2014  19:37:00       58.972       53.797       12.161       35.459       28.225       23.890     1257.327      796.642      570.742        0.457        0.131       79.824       13.575        0.029      333.311        2.544      861.433
12/14/2014  19:38:00       96.001       67.427        6.044       34.073       26.844       26.260     1160.994      720.617      689.574        0.818        0.129      117.314       16.140        0.019      333.269        2.472      861.431
12/14/2014  19:39:00       92.103       53.682        7.348       36.161       26.453       22.157     1307.620      699.751      490.940        0.696        0.125      106.605       16.447        0.024      333.255        2.451      861.445
12/14/2014  19:40:00      104.870       79.785       13.606       44.861       35.643       30.835     2012.541     1270.404      950.780        1.089        0.212      131.770       16.618        0.016      333.236        2.417      861.435
12/14/2014  19:41:00       73.325       58.101        7.738       39.474       33.425       22.861     1558.218     1117.248      522.640        0.600        0.160       93.553       19.891        0.045      333.289        2.506      861.403
12/14/2014  19:42:00       57.031       66.923       13.965       50.051       38.511       36.075     2505.067     1483.088     1301.432        0.661        0.264       87.928       29.247        0.111      333.244        2.431      861.373
12/14/2014  19:43:00       83.662       71.139        4.265       35.270       39.448       37.440     1243.966     1556.148     1401.783        0.814        0.210      109.818       30.285        0.076      333.235        2.416      861.344
12/14/2014  19:44:00       93.810       45.740        7.581       27.084       24.867       24.690      733.533      618.360      609.609        0.646        0.098      104.367       14.305        0.019      333.242        2.425      861.311
12/14/2014  19:45:00      111.424       69.672        3.241       38.523       32.706       34.110     1483.985     1069.702     1163.464        1.050        0.186      131.413       16.329        0.015      333.243        2.430      861.256
12/14/2014  19:46:00      140.856       98.905        8.700       52.224       45.441       37.105     2727.373     2064.910     1376.818        1.793        0.308      172.112       19.918        0.013      333.255        2.449      861.203
12/14/2014  19:47:00      116.663       59.069        5.427       71.472       55.662       31.047     5108.309     3098.263      963.903        1.315        0.459      130.765        9.591        0.005      333.249        2.439      861.188
12/14/2014  19:48:00       84.344       63.564       25.171       36.329       47.822       26.019     1319.761     2286.900      676.963        0.803        0.214      105.614       16.872        0.026      333.263        2.462      861.193
12/14/2014  19:49:00      115.208       59.547       23.748       56.434       42.270       31.997     3184.754     1786.781     1023.778        1.169        0.300      129.687       27.214        0.044      333.258        2.454      861.212
12/14/2014  19:50:00       83.538       44.564       13.057       39.652       39.493       30.025     1572.242     1559.716      901.477        0.658        0.202       94.681       24.705        0.068      333.281        2.493      861.211
12/14/2014  19:51:00       63.458       42.601       13.260       42.394       24.528       35.023     1797.227      601.605     1226.613        0.482        0.181       76.432       17.568        0.053      333.298        2.520      861.219
12/14/2014  19:52:00      109.832       72.377       21.450       46.846       24.488       30.321     2194.575      599.680      919.349        1.074        0.186      131.536       27.990        0.045      333.298        2.521      861.229
12/14/2014  19:53:00      131.545       97.272       27.101       35.296       27.137       33.783     1245.841      736.415     1141.263        1.531        0.156      163.603       27.915        0.029      333.252        2.445      861.238
12/14/2014  19:54:00       88.655       50.615       38.812       55.458       36.807       33.931     3075.640     1354.747     1151.322        0.875        0.279      102.086       30.186        0.087      333.284        2.496      861.249
12/14/2014  19:55:00       85.496       68.822       35.875       25.523       25.257       28.038      651.447      637.904      786.143        0.770        0.104      109.754       17.014        0.024      333.296        2.517      861.247
12/14/2014  19:56:00       44.104       52.503       40.001       46.355       24.968       29.840     2148.771      623.383      890.434        0.498        0.183       68.569       29.602        0.186      333.333        2.578      861.229
12/14/2014  19:57:00       20.622       28.146       43.507       32.483       24.782       21.402     1055.154      614.136      458.034        0.262        0.106       34.893       12.548        0.129      333.386        2.666      861.228
12/14/2014  19:58:00       67.604       52.305       29.278       38.622       24.804       26.433     1491.695      615.215      698.718        0.548        0.140       85.476       11.917        0.019      333.300        2.525      861.256
12/14/2014  19:59:00       34.038       15.045       18.321       37.377       23.872       22.225     1397.048      569.887      493.952        0.209        0.123       37.214       16.533        0.197      333.333        2.578      861.284
12/14/2014  20:00:00       81.144       58.136       10.728       47.981       31.076       27.793     2302.154      965.703      772.462        0.706        0.202       99.820       27.952        0.078      333.254        2.449      861.308
12/14/2014  20:01:00       87.154       32.384       32.727       43.109       37.274       26.424     1858.381     1389.372      698.245        0.683        0.197       92.976       23.226        0.062      333.313        2.545      861.326
12/14/2014  20:02:00      101.339       42.486       13.158       32.107       44.891       28.002     1030.845     2015.184      784.106        0.804        0.192      109.885       17.343        0.025      333.266        2.468      861.345
12/14/2014  20:03:00       64.308       51.258       23.755       43.075       28.988       34.567     1855.489      840.321     1194.868        0.561        0.195       82.237       21.358        0.067      333.347        2.603      861.370
12/14/2014  20:04:00       35.528       47.442       20.507       19.303       17.994       18.419      372.619      323.784      339.265        0.248        0.052       59.271       13.582        0.053      333.371        2.643      861.391
12/14/2014  20:05:00       19.683       31.141       30.795       16.036       18.859       12.078      257.156      355.671      145.885        0.153        0.038       36.840        7.364        0.040      333.387        2.668      861.421
12/14/2014  20:06:00       14.996       18.061       27.819       23.628       19.213       16.952      558.272      369.136      287.380        0.127        0.061       23.475       10.161        0.187      333.400        2.690      861.440
12/14/2014  20:07:00       49.195       25.869       12.012       27.999       27.922       21.579      783.967      779.646      465.654        0.263        0.101       55.582        7.413        0.018      333.411        2.708      861.456
12/14/2014  20:08:00       68.488       54.330       21.035       21.202       32.793       32.436      449.517     1075.375     1052.064        0.533        0.129       87.421       23.558        0.073      333.339        2.589      861.467
12/14/2014  20:09:00       63.480       54.301        6.130       17.114       15.841       15.406      292.883      250.951      237.342        0.390        0.039       83.536        6.331        0.006      333.282        2.494      861.479
12/14/2014  20:10:00       59.094       45.924        7.110       18.228       19.259       18.886      332.254      370.921      356.692        0.336        0.053       74.841       14.398        0.037      333.330        2.576      861.488
12/14/2014  20:11:00       83.284       51.110       16.618       30.554       31.357       20.950      933.551      983.249      438.892        0.609        0.118       97.716       14.062        0.021      333.337        2.587      861.479
12/14/2014  20:12:00       90.332       79.269        4.833       28.391       25.311       23.337      806.042      640.649      544.615        0.823        0.100      120.181       19.141        0.025      333.339        2.589      861.448
12/14/2014  20:13:00      101.965       50.200        4.270       46.681       34.535       27.218     2179.117     1192.676      740.829        0.852        0.206      113.653       22.391        0.039      333.383        2.662      861.412
12/14/2014  20:14:00      115.816       68.452        5.102       31.556       38.629       22.909      995.785     1492.214      524.814        1.057        0.151      134.533       16.837        0.016      333.320        2.558      861.406
12/14/2014  20:15:00      106.699       77.165       10.511       30.930       21.916       17.096      956.679      480.300      292.263        0.959        0.086      131.678        6.116        0.002      333.296        2.516      861.402
12/14/2014  20:16:00       71.358       49.830       11.460       29.561       22.997       23.165      873.858      528.840      536.600        0.482        0.097       87.034       13.837        0.025      333.347        2.601      861.390
12/14/2014  20:17:00      111.131       72.064        6.752       33.813       34.770       25.442     1143.349     1208.980      647.292        1.029        0.150      132.451       11.644        0.008      333.362        2.627      861.373
12/14/2014  20:18:00       56.356       29.214        5.808       42.284       37.519       24.634     1787.974     1407.674      606.834        0.393        0.190       63.478       15.522        0.060      333.370        2.640      861.372
12/14/2014  20:19:00       71.884       42.006        7.555       38.655       25.969       24.168     1494.189      674.373      584.110        0.487        0.138       83.258       16.760        0.041      333.368        2.638      861.391
12/14/2014  20:20:00       90.377       47.240       18.208       40.723       31.234       19.521     1658.367      975.589      381.080        0.687        0.151      101.979        9.005        0.008      333.336        2.582      861.425
12/14/2014  20:21:00       64.788       65.360        0.339       44.473       36.111       31.009     1977.855     1304.009      961.586        0.636        0.212       92.029       29.196        0.101      333.342        2.592      861.432
12/14/2014  20:22:00       71.625       48.562       15.433       37.311       29.098       25.767     1392.102      846.719      663.925        0.531        0.145       86.535       13.281        0.024      333.403        2.695      861.433
12/14/2014  20:23:00      116.051       87.094       15.809       50.031       42.612       32.071     2503.111     1815.810     1028.543        1.332        0.267      145.098       11.700        0.007      333.392        2.676      861.434
12/14/2014  20:24:00      143.604       80.677       25.944       49.130       36.274       32.785     2413.795     1315.802     1074.870        1.630        0.240      164.714       26.033        0.025      333.374        2.648      861.439
12/14/2014  20:25:00      140.512       65.056       19.298       45.187       37.182       38.064     2041.894     1382.492     1448.845        1.461        0.244      154.841       29.594        0.037      333.384        2.665      861.449
12/14/2014  20:26:00      103.706       23.974        1.849       48.187       43.903       41.760     2321.960     1927.432     1743.884        0.866        0.300      106.441       23.127        0.047      333.391        2.674      861.469
12/14/2014  20:27:00       97.587       39.798       15.185       30.314       32.705       26.100      918.965     1069.621      681.187        0.700        0.133      105.390       18.778        0.032      333.381        2.659      861.481
12/14/2014  20:28:00      113.483       52.398        7.110       22.332       31.025       20.537      498.708      962.543      421.770        0.878        0.094      124.995       12.556        0.010      333.373        2.648      861.496
12/14/2014  20:29:00      104.882       59.360       15.743       28.579       22.323       21.823      816.786      498.327      476.246        0.828        0.090      120.515       10.534        0.008      333.383        2.664      861.505
12/14/2014  20:30:00      118.346       54.278       19.842       46.583       30.879       28.430     2170.017      953.538      808.279        1.064        0.197      130.199       14.921        0.013      333.399        2.688      861.522
12/14/2014  20:31:00      111.003       38.243       32.677       39.893       46.297       32.317     1591.454     2143.402     1044.387        0.981        0.239      117.406       29.471        0.063      333.417        2.717      861.531
12/14/2014  20:32:00       15.070       58.903       63.524       37.194       28.925       20.855     1383.387      836.650      434.947        0.519        0.133       60.801       18.578        0.093      333.434        2.747      861.547
12/14/2014  20:33:00       85.653       82.855       32.488       28.329       28.210       21.513      802.530      795.789      462.807        0.866        0.103      119.169        8.469        0.005      333.442        2.758      861.548
12/14/2014  20:34:00      113.670       51.834       17.732       30.632       28.548       23.340      938.341      814.972      544.755        0.911        0.115      124.930       16.877        0.018      333.434        2.744      861.541
12/14/2014  20:35:00       93.778       47.780       19.834       46.687       38.764       26.300     2179.684     1502.640      691.699        0.792        0.219      105.248       21.043        0.040      333.439        2.753      861.522
12/14/2014  20:36:00      134.767       82.311       16.295       35.522       23.753       25.359     1261.790      564.207      643.066        1.384        0.123      157.916       11.224        0.005      333.395        2.682      861.511
12/14/2014  20:37:00      103.543       44.375       38.706       56.933       43.438       32.088     3241.341     1886.892     1029.663        1.017        0.308      112.651       31.003        0.076      333.418        2.719      861.516
12/14/2014  20:38:00      108.122       44.548       23.393       35.058       31.564       26.907     1229.044      996.289      723.992        0.859        0.147      116.940       19.941        0.029      333.448        2.768      861.513
12/14/2014  20:39:00       94.954       56.106       14.543       45.024       25.812       30.922     2027.194      666.278      956.170        0.801        0.182      110.291       24.094        0.048      333.505        2.863      861.512
12/14/2014  20:40:00       92.407       70.121       33.592       40.086       22.640       40.311     1606.884      512.574     1625.002        0.916        0.187      116.000       31.633        0.074      333.476        2.815      861.512
12/14/2014  20:41:00       42.092       35.477       54.969       41.631       30.346       27.661     1733.164      920.877      765.120        0.473        0.171       55.049       19.241        0.122      333.499        2.852      861.505
12/14/2014  20:42:00       84.509       64.618       58.026       50.216       37.920       44.660     2521.640     1437.916     1994.520        1.032        0.298      106.383       38.879        0.134      333.471        2.807      861.481
12/14/2014  20:43:00       76.140       46.517       47.767       35.888       43.461       27.997     1287.961     1888.864      783.825        0.710        0.198       89.225       24.680        0.077      333.453        2.777      861.473
12/14/2014  20:44:00       45.084       51.282       49.335       62.447       36.382       30.088     3899.572     1323.625      905.316        0.661        0.306       68.282       28.732        0.177      333.485        2.830      861.484
12/14/2014  20:45:00       51.570       39.411       36.771       34.023       28.372       31.020     1157.597      804.967      962.215        0.424        0.146       64.905       17.664        0.074      333.501        2.858      861.516
12/14/2014  20:46:00       71.949       82.520       60.207       30.664       29.883       31.115      940.288      892.985      968.146        0.921        0.140      109.482       19.204        0.031      333.490        2.838      861.537
12/14/2014  20:47:00       68.934       50.937       18.580       27.929       25.291       35.504      780.027      639.654     1260.517        0.519        0.134       85.712       25.572        0.089      333.455        2.779      861.537
12/14/2014  20:48:00       59.261       49.504       38.923       38.716       27.939       24.176     1498.962      780.589      584.472        0.517        0.143       77.217       19.829        0.066      333.454        2.778      861.534
12/14/2014  20:49:00       55.334       41.086       44.514       46.038       41.773       44.020     2119.540     1744.943     1937.773        0.627        0.290       68.920       33.031        0.230      333.527        2.899      861.541
12/14/2014  20:50:00       87.244       36.477       45.660       62.338       39.847       33.164     3886.081     1587.819     1099.827        0.880        0.329       94.563       32.871        0.121      333.500        2.855      861.547
12/14/2014  20:51:00       52.715       39.925       26.172       32.535       25.223       26.902     1058.538      636.220      723.723        0.374        0.121       66.128       14.148        0.046      333.508        2.868      861.575
12/14/2014  20:52:00       23.331       40.609       51.822       21.484       24.545       14.716      461.573      602.462      216.561        0.308        0.064       46.834       13.867        0.088      333.554        2.945      861.622
12/14/2014  20:53:00       11.482       -9.984       15.438       21.355       27.830       15.850      456.036      774.520      251.207        0.098        0.074       15.216       14.772        0.943      333.636        3.080      861.663
12/14/2014  20:54:00       42.426       32.445       15.082       18.057       26.421       15.455      326.067      698.095      238.870        0.217        0.063       53.410        9.093        0.029      333.596        3.013      861.669
12/14/2014  20:55:00       61.157       53.224       30.983       31.841       18.393       21.272     1013.850      338.296      452.513        0.467        0.090       81.074       19.306        0.057      333.527        2.899      861.662
12/14/2014  20:56:00       64.724       58.558       40.680       43.094       24.357       25.486     1857.099      593.277      649.524        0.619        0.155       87.283       16.542        0.036      333.547        2.932      861.660
12/14/2014  20:57:00       64.114       61.488       60.431       31.325       26.327       16.389      981.268      693.087      268.607        0.674        0.097       88.833        9.319        0.011      333.553        2.946      861.653
12/14/2014  20:58:00       55.612       28.229       32.140       30.681       29.647       19.587      941.320      878.924      383.645        0.356        0.110       62.366       16.602        0.071      333.570        2.972      861.660
12/14/2014  20:59:00       99.367       39.242       20.609       37.273       25.733       24.605     1389.257      662.180      605.411        0.725        0.133      106.835       16.629        0.024      333.578        2.983      861.659
12/14/2014  21:00:00       59.574       21.475       35.686       45.618       33.803       26.910     2081.009     1142.632      724.163        0.461        0.197       63.327       22.972        0.132      333.576        2.981      861.641
12/14/2014  21:01:00      105.400       50.337       19.398       35.243       32.017       27.067     1242.073     1025.097      732.644        0.851        0.150      116.803       18.928        0.026      333.562        2.960      861.623
12/14/2014  21:02:00       57.741       44.967       45.096       33.036       24.543       23.092     1091.368      602.368      533.250        0.481        0.111       73.185       21.780        0.089      333.592        3.007      861.615
12/14/2014  21:03:00       64.249       47.059       12.201       16.531       13.883       16.005      273.277      192.730      256.157        0.361        0.036       79.640        9.665        0.015      333.532        2.907      861.620
12/14/2014  21:04:00       77.967       44.315       15.329       26.400       12.826       16.631      696.934      164.510      276.591        0.471        0.057       89.681       10.216        0.013      333.524        2.895      861.621
12/14/2014  21:05:00       78.321       35.233       25.316       26.150       28.709       25.065      683.838      824.225      628.248        0.508        0.107       85.881       21.146        0.061      333.543        2.926      861.616
12/14/2014  21:06:00       65.466       66.774       40.813       33.365       16.574       19.663     1113.251      274.710      386.629        0.609        0.089       93.512       17.877        0.037      333.540        2.922      861.599
12/14/2014  21:07:00       88.066       46.202       15.006       21.339       21.186       20.488      455.365      448.830      419.743        0.572        0.066       99.450       11.209        0.013      333.502        2.858      861.600
12/14/2014  21:08:00       65.073       46.120       19.754       30.625       18.437       24.176      937.904      339.939      584.478        0.431        0.093       79.759       21.260        0.071      333.574        2.977      861.591
12/14/2014  21:09:00       59.983       27.356        6.862       30.961       29.730       31.243      958.574      883.887      976.119        0.361        0.141       65.926       24.150        0.134      333.525        2.895      861.582
12/14/2014  21:10:00       59.325       40.707       13.492       25.185       20.817       23.352      634.262      433.327      545.310        0.349        0.081       71.948       11.601        0.026      333.541        2.924      861.572
12/14/2014  21:11:00       76.906       41.582       10.788       15.300       17.506       16.616      234.092      306.465      276.084        0.429        0.041       87.427        9.637        0.012      333.505        2.863      861.566
12/14/2014  21:12:00       78.600       41.236        8.294       25.638       19.493       15.622      657.312      379.992      244.060        0.461        0.064       88.760        9.270        0.011      333.528        2.900      861.558
12/14/2014  21:13:00       73.188       59.711        8.898       24.486       23.169       18.679      599.586      536.800      348.922        0.524        0.074       94.456       13.703        0.021      333.503        2.860      861.559
12/14/2014  21:14:00       83.414       48.962        1.687       35.060       25.817       24.824     1229.178      666.503      616.247        0.593        0.126       96.722       17.841        0.034      333.493        2.843      861.567
12/14/2014  21:15:00       32.392       40.865       -6.258       36.566       15.552       14.629     1337.099      241.853      214.014        0.228        0.090       52.146       11.398        0.048      333.463        2.791      861.593
12/14/2014  21:16:00       18.111       34.749       -8.225       17.326       16.365       10.498      300.178      267.817      110.216        0.114        0.034       39.185        3.978        0.010      333.458        2.781      861.614
12/14/2014  21:17:00       43.818       25.634        5.183       14.723       11.693       10.031      216.771      136.726      100.629        0.153        0.023       50.765        5.886        0.013      333.480        2.823      861.630
12/14/2014  21:18:00       28.471       39.525        1.720       21.205       14.992       11.337      449.658      224.762      128.525        0.159        0.040       48.712        9.970        0.042      333.485        2.831      861.635
12/14/2014  21:19:00       30.996       45.702        7.718       25.344       23.366       22.455      642.333      545.976      504.210        0.240        0.085       55.221       13.704        0.062      333.487        2.835      861.620
12/14/2014  21:20:00       70.206       38.760       17.865       22.204       25.156       21.229      493.013      632.811      450.652        0.416        0.079       80.195       10.558        0.017      333.504        2.863      861.615
12/14/2014  21:21:00       68.375       38.058       -2.021       31.455       24.439       17.087      989.448      597.246      291.973        0.400        0.094       78.253       11.493        0.022      333.511        2.874      861.626
12/14/2014  21:22:00       11.680       24.722        0.057       24.311       19.644       10.106      591.025      385.877      102.122        0.091        0.054       27.342       10.954        0.161      333.511        2.873      861.660
12/14/2014  21:23:00        0.364       44.313      -15.485        8.425        9.556        8.481       70.979       91.317       71.933        0.122        0.012       44.315        5.187        0.014      333.504        2.861      861.705
12/14/2014  21:24:00       -6.613      -16.217        1.833       14.884       31.693       12.288      221.541     1004.430      150.988        0.084        0.069       17.513        6.832        0.152      333.631        3.073      861.739
12/14/2014  21:25:00        7.730       21.763        6.480       21.204       17.817       16.366      449.615      317.451      267.856        0.080        0.052       23.096        8.187        0.126      333.612        3.040      861.755
12/14/2014  21:26:00       22.491       28.363        4.814       14.344       14.891       14.077      205.744      221.752      198.163        0.098        0.031       36.198        9.934        0.075      333.530        2.904      861.762
12/14/2014  21:27:00       28.352       33.729       -2.588       17.470       13.960       12.204      305.210      194.875      148.946        0.130        0.032       44.062        8.142        0.034      333.524        2.896      861.763
12/14/2014  21:28:00       25.553       28.466        2.274       19.752       13.128       12.124      390.145      172.345      147.003        0.109        0.035       38.253        8.257        0.047      333.512        2.875      861.761
12/14/2014  21:29:00       30.032       35.291       -1.507       19.448       13.831       10.874      378.210      191.292      118.254        0.142        0.034       46.340        8.817        0.036      333.496        2.851      861.750
12/14/2014  21:30:00       20.176       40.961       -4.999       18.812       19.416       14.557      353.880      376.989      211.906        0.153        0.047       45.660       10.806        0.056      333.509        2.868      861.751
12/14/2014  21:31:00       31.953       50.400       -3.752       19.671       14.727       13.448      386.953      216.898      180.841        0.218        0.039       59.675       12.039        0.041      333.520        2.886      861.752
12/14/2014  21:32:00       32.191       77.011      -12.893       19.014       20.753       13.937      361.533      430.701      194.230        0.406        0.049       83.468       14.879        0.032      333.507        2.866      861.766
12/14/2014  21:33:00       26.067       64.937       -5.090       25.404       23.994       15.903      645.354      575.735      252.914        0.320        0.074       69.973       10.584        0.023      333.520        2.888      861.768
12/14/2014  21:34:00       47.162       46.949       -4.198       24.391       26.220       22.368      594.940      687.473      500.308        0.311        0.089       66.546       17.312        0.068      333.522        2.892      861.753
12/14/2014  21:35:00       53.322       45.749       -7.017       34.689       19.292       18.801     1203.359      372.198      353.489        0.346        0.096       70.259       10.701        0.023      333.512        2.876      861.745
12/14/2014  21:36:00       48.686       38.113        1.840       24.668       31.419       20.523      608.518      987.164      421.210        0.292        0.101       61.830       18.169        0.086      333.519        2.887      861.731
12/14/2014  21:37:00       51.515       61.313       -0.530       26.673       28.973       25.828      711.457      839.435      667.061        0.432        0.111       80.082       18.799        0.055      333.496        2.849      861.726
12/14/2014  21:38:00       24.325       44.353       -0.755       22.960       27.905       18.488      527.177      778.715      341.809        0.210        0.082       50.586       15.782        0.097      333.494        2.846      861.728
12/14/2014  21:39:00       53.680       50.325       -1.138       28.254       25.519       17.314      798.309      651.229      299.775        0.358        0.087       73.581       14.726        0.040      333.499        2.855      861.721
12/14/2014  21:40:00       45.153       44.483        1.333       31.972       30.413       26.058     1022.231      924.924      679.031        0.332        0.131       63.384       21.699        0.117      333.486        2.833      861.707
12/14/2014  21:41:00       38.487       48.249        2.916       26.666       30.676       20.257      711.076      941.031      410.360        0.294        0.103       61.719       14.652        0.056      333.479        2.819      861.696
12/14/2014  21:42:00       30.550       66.836       -4.138       19.706       32.917       17.880      388.326     1083.549      319.688        0.360        0.090       73.487       15.920        0.047      333.482        2.826      861.690
12/14/2014  21:43:00       34.451       67.870       -9.950       22.037       30.424       18.507      485.630      925.613      342.506        0.382        0.088       76.113       15.330        0.041      333.467        2.797      861.692
12/14/2014  21:44:00       28.279       84.296       -8.848       21.453       47.074       20.390      460.234     2215.988      415.747        0.554        0.155       88.913       23.327        0.069      333.488        2.835      861.699
12/14/2014  21:45:00       60.218       65.327       -0.876       33.296       37.542       22.849     1108.629     1409.391      522.093        0.547        0.152       88.848       19.353        0.047      333.480        2.821      861.695
12/14/2014  21:46:00       57.695       48.915       -1.649       23.610       28.730       24.687      557.435      825.392      609.429        0.386        0.100       75.640       18.514        0.060      333.492        2.841      861.699
12/14/2014  21:47:00       70.816       33.157        5.979       23.881       16.297       16.666      570.326      265.600      277.764        0.363        0.056       78.194        9.501        0.015      333.510        2.872      861.693
12/14/2014  21:48:00       56.098       20.596        8.734       30.832       19.532       17.158      950.583      381.501      294.388        0.264        0.081       59.759       16.205        0.074      333.513        2.877      861.685
12/14/2014  21:49:00       47.753       35.638       -1.038       25.639       23.541       15.916      657.368      554.188      253.318        0.251        0.073       59.586        5.507        0.009      333.491        2.841      861.689
12/14/2014  21:50:00       44.701       20.320        4.216       17.954       10.408       12.535      322.363      108.318      157.126        0.151        0.029       49.103        8.090        0.027      333.479        2.821      861.707
12/14/2014  21:51:00        5.193       37.035       -5.435        8.600       29.608        9.210       73.952      876.606       84.821        0.123        0.052       37.397       15.092        0.163      333.481        2.824      861.725
12/14/2014  21:52:00        7.279       67.331      -12.539        8.010       12.066        5.632       64.167      145.578       31.721        0.249        0.012       67.723        2.808        0.002      333.486        2.835      861.737
12/14/2014  21:53:00       20.358       34.787       -4.541       12.650       16.090       11.252      160.025      258.881      126.612        0.110        0.027       40.306        7.665        0.036      333.480        2.824      861.739
12/14/2014  21:54:00       24.687       59.230       -6.318       17.550       13.474        8.510      308.009      181.538       72.414        0.236        0.028       64.169        7.924        0.015      333.491        2.843      861.745
12/14/2014  21:55:00       15.715       49.638        7.099       19.931       25.037       15.243      397.249      626.867      232.349        0.201        0.063       52.066       13.283        0.065      333.483        2.829      861.759
12/14/2014  21:56:00       48.243       39.761       -5.225       15.495       14.218       13.582      240.107      202.149      184.463        0.228        0.031       62.516        3.289        0.003      333.497        2.851      861.769
12/14/2014  21:57:00       18.258       28.948       -2.263       14.906       10.870        9.631      222.186      118.168       92.766        0.080        0.022       34.224        7.597        0.049      333.518        2.884      861.774
12/14/2014  21:58:00       41.105       29.412        3.431       16.912       14.153       13.830      286.007      200.313      191.256        0.162        0.034       50.544        9.626        0.036      333.538        2.917      861.777
12/14/2014  21:59:00       63.364       43.414        8.421       12.652       14.449       13.109      160.063      208.762      171.844        0.326        0.027       76.810        7.760        0.010      333.521        2.890      861.775
12/14/2014  22:00:00       69.556       51.749       15.071       17.335       17.803       18.133      300.493      316.950      328.824        0.434        0.047       86.695       11.719        0.018      333.539        2.919      861.761
12/14/2014  22:01:00       79.994       51.684       10.006       19.398       14.019       16.999      376.287      196.530      288.951        0.502        0.043       95.238        7.287        0.006      333.535        2.913      861.736
12/14/2014  22:02:00       65.162       50.182       36.392       25.529       22.223       25.182      651.741      493.842      634.143        0.493        0.089       82.246       16.529        0.040      333.583        2.994      861.718
12/14/2014  22:03:00       66.407       59.729       41.325       21.730       15.485       23.151      472.199      239.784      535.971        0.547        0.062       89.316       15.438        0.030      333.539        2.920      861.715
12/14/2014  22:04:00       74.329       44.167       15.144       12.928       12.598       18.056      167.128      158.704      326.001        0.418        0.033       86.461        9.374        0.012      333.515        2.879      861.719
12/14/2014  22:05:00       63.833       33.711        9.782       24.540       16.737       17.284      602.218      280.129      298.742        0.324        0.059       72.188       14.869        0.042      333.494        2.844      861.713
12/14/2014  22:06:00       73.140       37.331       15.285       27.569       20.663       27.540      760.061      426.950      758.439        0.446        0.097       82.116       20.186        0.060      333.499        2.852      861.710
12/14/2014  22:07:00       64.279       57.739       34.390       27.791       22.627       18.066      772.356      512.002      326.385        0.513        0.081       86.404       16.354        0.036      333.457        2.781      861.713
12/14/2014  22:08:00       45.619       48.164       35.768       34.504       23.726       24.232     1190.503      562.900      587.193        0.401        0.117       66.339       23.500        0.125      333.481        2.823      861.725
12/14/2014  22:09:00       41.181       26.520       27.693       18.372       19.991       17.614      337.516      399.635      310.241        0.211        0.052       48.982        8.578        0.031      333.522        2.890      861.747
12/14/2014  22:10:00       58.773       20.886       18.564       23.990       18.603       21.623      575.538      346.085      467.562        0.281        0.069       62.374       15.042        0.058      333.500        2.854      861.735
12/14/2014  22:11:00       69.917       44.346       12.480       25.545       18.504       17.495      652.524      342.391      306.087        0.416        0.065       82.795       12.399        0.022      333.522        2.891      861.683
12/14/2014  22:12:00       46.739       57.982       42.070       22.146       21.265       12.449      490.441      452.197      154.976        0.421        0.055       74.474        9.464        0.016      333.487        2.832      861.667
12/14/2014  22:13:00       46.269       46.729       52.509       26.537       21.193       16.931      704.225      449.142      286.643        0.426        0.072       65.760        8.817        0.018      333.541        2.920      861.686
12/14/2014  22:14:00       54.879       26.793       16.299       18.111       16.622       19.358      327.992      276.282      374.742        0.249        0.049       61.070       10.149        0.028      333.512        2.873      861.694
12/14/2014  22:15:00       30.721       36.652       29.266       21.456       21.595       19.123      460.371      466.339      365.705        0.222        0.065       47.824       16.476        0.119      333.512        2.875      861.681
12/14/2014  22:16:00        6.770       36.215       45.039       19.661       25.870       19.911      386.569      669.282      396.452        0.242        0.073       36.842        8.708        0.056      333.538        2.916      861.665
12/14/2014  22:17:00       65.750       38.521       41.232       43.865       32.888       33.779     1924.134     1081.602     1140.994        0.583        0.207       76.203       16.871        0.049      333.524        2.893      861.632
12/14/2014  22:18:00       75.821       65.749       48.003       44.059       34.613       33.702     1941.233     1198.067     1135.822        0.832        0.214      100.358       23.990        0.057      333.518        2.885      861.609
12/14/2014  22:19:00       67.904       73.583       58.677       38.364       39.415       34.086     1471.786     1553.565     1161.822        0.883        0.209      100.127       24.400        0.059      333.507        2.867      861.599
12/14/2014  22:20:00      101.398       24.342        6.433       41.111       36.947       24.352     1690.073     1365.044      593.022        0.728        0.182      104.279       16.640        0.025      333.458        2.783      861.600
12/14/2014  22:21:00       65.696       43.178       23.725       33.301       30.079       35.154     1108.979      904.725     1235.792        0.500        0.162       78.615       25.418        0.105      333.483        2.824      861.598
12/14/2014  22:22:00      111.347       67.137       13.532       20.738       20.688       16.288      430.044      427.982      265.309        0.911        0.056      130.021        9.324        0.005      333.434        2.744      861.601
12/14/2014  22:23:00       91.010       44.971       35.442       39.068       30.599       32.160     1526.323      936.321     1034.240        0.753        0.175      101.514       29.260        0.083      333.467        2.798      861.603
12/14/2014  22:24:00       86.005       35.747        9.891       41.588       29.240       29.361     1729.560      855.000      862.042        0.611        0.172       93.138       17.279        0.034      333.450        2.770      861.629
12/14/2014  22:25:00      103.141       52.284       15.176       19.906       18.833       19.048      396.232      354.690      362.825        0.736        0.056      115.636        8.206        0.005      333.450        2.769      861.649
12/14/2014  22:26:00      100.894       60.028       23.375       21.826       25.614       18.684      476.395      656.073      349.094        0.791        0.074      117.401       13.108        0.012      333.422        2.723      861.644
12/14/2014  22:27:00       70.456       42.584       11.320       22.870       26.693       21.790      523.033      712.531      474.814        0.431        0.086       82.325       13.377        0.026      333.420        2.723      861.631
12/14/2014  22:28:00       67.594       42.682        7.915       28.917       23.893       18.668      836.220      570.863      348.511        0.410        0.088       79.941       15.796        0.039      333.422        2.724      861.621
12/14/2014  22:29:00       60.490       34.474        0.609       22.137       23.096       16.271      490.058      533.418      264.748        0.307        0.064       69.624       11.388        0.027      333.402        2.694      861.636
12/14/2014  22:30:00       34.430       18.529        1.793       26.681       17.487       12.403      711.866      305.778      153.826        0.135        0.059       39.099        8.299        0.045      333.394        2.680      861.651
12/14/2014  22:31:00       32.669       29.958        8.076       25.474       18.031       18.233      648.909      325.117      332.439        0.167        0.065       44.325       11.998        0.073      333.396        2.682      861.664
12/14/2014  22:32:00       42.701       45.210        5.401       18.317       20.559       17.190      335.530      422.681      295.486        0.247        0.053       62.188       12.930        0.043      333.392        2.675      861.660
12/14/2014  22:33:00       30.413       31.150        7.917       23.232       20.042       18.334      539.705      401.664      336.138        0.162        0.064       43.534       16.588        0.145      333.393        2.677      861.666
12/14/2014  22:34:00       39.436       46.724       -5.011       21.022       22.522       14.365      441.940      507.257      206.365        0.246        0.058       61.142       14.200        0.054      333.396        2.684      861.687
12/14/2014  22:35:00       33.888       42.927       -0.883       19.458       19.786       16.275      378.598      391.487      264.866        0.201        0.052       54.692       14.496        0.070      333.396        2.683      861.698
12/14/2014  22:36:00       59.977       41.238        5.737       18.594       15.997       14.664      345.748      255.910      215.028        0.307        0.041       72.786        8.829        0.015      333.397        2.683      861.710
12/14/2014  22:37:00       50.625       50.095        3.141       21.057       14.997       18.364      443.407      224.901      337.235        0.304        0.050       71.221       10.157        0.020      333.403        2.693      861.706
12/14/2014  22:38:00       55.386       38.645       12.239       26.019       16.554       15.428      676.969      274.022      238.023        0.295        0.059       67.536       12.781        0.036      333.408        2.702      861.689
12/14/2014  22:39:00       56.131       42.267       14.217       22.369       17.380       15.275      500.386      302.067      233.322        0.309        0.052       70.265       10.756        0.023      333.414        2.713      861.674
12/14/2014  22:40:00       67.796       50.435        9.836       20.699       20.394       16.123      428.466      415.924      259.937        0.417        0.055       84.498       12.129        0.021      333.403        2.695      861.661
12/14/2014  22:41:00       47.073       46.156        2.021       28.342       24.340       22.814      803.249      592.434      520.478        0.313        0.096       65.926       16.729        0.064      333.378        2.656      861.670
12/14/2014  22:42:00       26.620       41.665       -3.237       23.531       24.385       18.889      553.695      594.618      356.785        0.198        0.075       49.443       15.315        0.096      333.377        2.653      861.694
12/14/2014  22:43:00       22.780       40.613        2.555       15.230       21.102       16.165      231.961      445.274      261.313        0.156        0.047       46.566       14.403        0.096      333.397        2.685      861.715
12/14/2014  22:44:00       21.492       34.661        7.461       16.615       15.248       14.208      276.056      232.495      201.866        0.121        0.036       40.783       10.934        0.072      333.415        2.717      861.735
12/14/2014  22:45:00       60.422       42.852        3.980       18.224       14.837       10.283      332.132      220.149      105.738        0.308        0.033       74.075        5.359        0.005      333.443        2.759      861.730
12/14/2014  22:46:00       68.815       44.588        8.363       19.056       15.929       13.484      363.150      253.732      181.811        0.380        0.040       81.998        8.532        0.011      333.456        2.779      861.701
12/14/2014  22:47:00       92.692       58.401        6.401       21.749       15.340       15.185      473.022      235.305      230.598        0.649        0.047      109.556       12.495        0.013      333.469        2.798      861.660
12/14/2014  22:48:00      104.914       50.735        6.828       27.554       24.072       23.268      759.197      579.457      541.411        0.775        0.094      116.537       12.060        0.011      333.476        2.813      861.619
12/14/2014  22:49:00       97.241       45.062        0.961       29.947       26.853       16.755      896.836      721.068      280.728        0.669        0.095      107.174       10.644        0.010      333.473        2.810      861.594
12/14/2014  22:50:00       90.116       29.544       -4.250       35.401       26.354       23.835     1253.214      694.559      568.084        0.576        0.126       94.836       16.572        0.031      333.435        2.746      861.573
12/14/2014  22:51:00       67.518       38.890       12.814       32.307       22.689       21.831     1043.726      514.793      476.588        0.413        0.102       77.917       10.856        0.019      333.429        2.735      861.545
12/14/2014  22:52:00       77.430       69.783       16.439       20.305       12.608       16.974      412.281      158.968      288.101        0.600        0.043      104.235       13.133        0.016      333.442        2.757      861.515
12/14/2014  22:53:00       70.510       62.132       40.894       25.764       18.876       20.234      663.771      356.292      409.414        0.597        0.071       93.979       15.610        0.028      333.464        2.795      861.493
12/14/2014  22:54:00       94.028       58.861       14.072       11.206        9.645       13.527      125.578       93.025      182.972        0.645        0.020      110.932        5.070        0.002      333.419        2.718      861.477
12/14/2014  22:55:00       67.123       57.034       11.276       18.594       17.112       14.256      345.752      292.812      203.222        0.436        0.042       88.082        7.486        0.007      333.412        2.707      861.474
12/14/2014  22:56:00       69.231       70.006        4.303       21.781       12.529       15.600      474.429      156.987      243.350        0.529        0.044       98.457       10.398        0.011      333.419        2.718      861.483
12/14/2014  22:57:00       45.023       44.315        8.159       24.292       19.075       16.344      590.081      363.863      267.114        0.264        0.061       63.174       14.738        0.054      333.394        2.679      861.505
12/14/2014  22:58:00       38.633       35.568       -2.395       18.228       21.819       10.839      332.247      476.057      117.477        0.184        0.046       52.513       10.074        0.037      333.425        2.730      861.534
12/14/2014  22:59:00       28.278       33.214        2.027       16.418       19.724       18.016      269.544      389.052      324.564        0.144        0.049       43.621       13.575        0.097      333.412        2.709      861.545
12/14/2014  23:00:00       50.894       49.732       -0.342       24.643       22.341       18.825      607.294      499.113      354.362        0.326        0.073       71.158       14.685        0.043      333.411        2.709      861.542
12/14/2014  23:01:00       35.867       54.244        1.604       32.690       23.871       25.004     1068.611      569.835      625.190        0.325        0.113       65.030       18.076        0.077      333.414        2.713      861.521
12/14/2014  23:02:00       38.617       52.372        0.901       28.995       28.437       28.117      840.722      808.685      790.587        0.334        0.122       65.070       24.122        0.137      333.386        2.668      861.518
12/14/2014  23:03:00       36.176       63.095       -0.957       25.573       39.405       27.876      653.987     1552.750      777.084        0.414        0.149       72.730       26.213        0.130      333.357        2.621      861.529
12/14/2014  23:04:00       24.911       87.821      -14.743       17.809       18.774       11.275      317.149      352.447      127.128        0.467        0.040       91.285       10.207        0.013      333.374        2.649      861.546
12/14/2014  23:05:00        0.435       73.161      -12.133       12.006       14.238        9.486      144.146      202.720       89.991        0.297        0.022       73.163        7.486        0.010      333.412        2.710      861.563
12/14/2014  23:06:00      -12.131       66.932       -3.752       19.636       17.489       15.587      385.584      305.859      242.951        0.279        0.047       68.023       10.547        0.024      333.520        2.888      861.547
12/14/2014  23:07:00        2.730       60.099        2.759       20.322       32.293       17.290      412.989     1042.830      298.950        0.269        0.088       60.161       18.941        0.099      333.578        2.984      861.509
12/14/2014  23:08:00       26.063      110.364      -14.562       12.901       10.567       10.575      166.447      111.657      111.841        0.673        0.019      113.400        4.440        0.002      333.386        2.669      861.463
12/14/2014  23:09:00       23.628      104.963      -19.561       15.154       35.062       13.684      229.637     1229.349      187.262        0.680        0.082      107.590       14.630        0.018      333.361        2.628      861.426
12/14/2014  23:10:00       40.274       55.285       -1.719       36.494       32.031       19.109     1331.817     1026.015      365.169        0.370        0.136       68.399       20.659        0.091      333.365        2.635      861.432
12/14/2014  23:11:00       25.327       34.255       -1.759       23.632       29.988       18.908      558.489      899.281      357.501        0.182        0.091       42.601       18.568        0.190      333.376        2.651      861.465
12/14/2014  23:12:00       11.848       50.801       -7.399       18.314       25.021       13.807      335.388      626.063      190.634        0.196        0.058       52.164       15.157        0.084      333.394        2.679      861.510
12/14/2014  23:13:00        1.062       78.326      -15.053       12.259       12.124        6.883      150.292      146.994       47.373        0.335        0.017       78.333        4.482        0.003      333.410        2.707      861.514
12/14/2014  23:14:00       -5.333       89.287      -11.779       10.884       15.185        7.917      118.463      230.589       62.675        0.428        0.021       89.446        4.206        0.002      333.450        2.774      861.493
12/14/2014  23:15:00       18.664       76.563       -9.000       15.704       14.690       12.638      246.631      215.788      159.710        0.346        0.031       78.805        8.798        0.012      333.416        2.716      861.467
12/14/2014  23:16:00       29.084       91.393      -12.330       15.127       18.318       14.137      228.833      335.555      199.845        0.506        0.038       95.910       13.869        0.021      333.421        2.723      861.448
12/14/2014  23:17:00       26.491       70.646      -11.910       12.993       13.618        9.811      168.816      185.444       96.260        0.314        0.023       75.450        7.978        0.011      333.393        2.680      861.433
12/14/2014  23:18:00       26.041       68.358       -7.060       22.400       26.227       15.878      501.758      687.848      252.097        0.342        0.072       73.150       15.193        0.043      333.389        2.673      861.432
12/14/2014  23:19:00       21.490       38.161       -2.930       19.016       26.822       15.315      361.597      719.423      234.544        0.162        0.066       43.796       14.281        0.106      333.395        2.679      861.428
12/14/2014  23:20:00       50.069       48.802        5.074       33.293       27.152       27.712     1108.454      737.250      767.966        0.376        0.131       69.918       22.678        0.105      333.368        2.637      861.408
12/14/2014  23:21:00       49.068       65.541        2.799       34.112       30.078       24.262     1163.597      904.710      588.628        0.468        0.133       81.874       20.928        0.065      333.354        2.615      861.379
12/14/2014  23:22:00       67.526       62.998       -1.899       30.921       23.057       21.386      956.091      531.633      457.354        0.524        0.097       92.350       15.708        0.029      333.349        2.605      861.331
12/14/2014  23:23:00       42.402       57.296        8.498       32.877       33.104       29.642     1080.882     1095.842      878.640        0.410        0.153       71.280       19.305        0.073      333.317        2.553      861.287
12/14/2014  23:24:00       44.865       55.979        0.344       30.125       32.255       20.132      907.504     1040.398      405.293        0.375        0.118       71.739       14.858        0.043      333.278        2.485      861.248
12/14/2014  23:25:00       52.067       77.291       -9.402       26.176       34.290       24.115      685.178     1175.816      581.546        0.561        0.122       93.193       20.555        0.049      333.283        2.494      861.224
12/14/2014  23:26:00       34.856       71.083        0.488       27.414       38.828       23.063      751.503     1507.624      531.920        0.453        0.140       79.169       20.947        0.070      333.260        2.458      861.200
12/14/2014  23:27:00       40.875       65.459       -7.846       25.930       32.581       23.602      672.344     1061.538      557.041        0.415        0.115       77.173       16.033        0.043      333.276        2.481      861.177
12/14/2014  23:28:00       39.300       53.572        3.394       32.015       30.678       24.220     1024.973      941.131      586.628        0.349        0.128       66.441       21.596        0.106      333.276        2.483      861.178
12/14/2014  23:29:00       25.694       61.275       -0.797       27.532       42.350       26.457      757.990     1793.480      699.972        0.383        0.163       66.444       26.386        0.158      333.289        2.504      861.192
12/14/2014  23:30:00       36.294       57.541       -4.330       34.541       34.243       22.198     1193.092     1172.580      492.766        0.375        0.143       68.031       19.087        0.079      333.290        2.507      861.200
12/14/2014  23:31:00       56.356       58.644        2.705       36.211       27.286       27.320     1311.259      744.546      746.362        0.471        0.140       81.333       19.803        0.059      333.283        2.494      861.195
12/14/2014  23:32:00       85.507       56.184       13.517       32.578       26.738       23.703     1061.351      714.918      561.849        0.649        0.117      102.314       14.337        0.020      333.272        2.477      861.181
12/14/2014  23:33:00       78.275       61.370       12.870       27.038       23.535       23.409      731.056      553.891      547.999        0.595        0.092       99.465       10.435        0.011      333.265        2.464      861.156
12/14/2014  23:34:00       98.941       56.158        9.937       31.659       24.997       25.226     1002.278      624.873      636.347        0.765        0.113      113.767       19.435        0.029      333.234        2.415      861.128
12/14/2014  23:35:00       98.836       48.080        7.205       32.208       20.956       20.879     1037.383      439.169      435.951        0.702        0.096      109.910       11.423        0.011      333.222        2.395      861.097
12/14/2014  23:36:00       83.824       47.608        0.091       26.035       34.126       20.439      677.819     1164.574      417.754        0.578        0.113       96.400        8.022        0.007      333.205        2.366      861.077
12/14/2014  23:37:00      109.313       47.441        4.801       24.011       20.387       18.232      576.539      415.623      332.421        0.777        0.066      119.164       14.262        0.014      333.203        2.363      861.054
12/14/2014  23:38:00       73.384       38.259        9.448       33.994       27.103       23.354     1155.575      734.556      545.431        0.469        0.122       82.759       21.325        0.066      333.201        2.360      861.026
12/14/2014  23:39:00       86.422       58.538        6.498       36.943       21.077       19.363     1364.767      444.222      374.916        0.656        0.109      104.381       14.448        0.019      333.215        2.383      861.003
12/14/2014  23:40:00       78.147       54.446       14.946       34.049       21.136       24.245     1159.334      446.743      587.836        0.574        0.110       95.243       17.751        0.035      333.212        2.379      860.999
12/14/2014  23:41:00       76.249       35.407        4.661       37.023       20.540       21.174     1370.710      421.894      448.330        0.466        0.112       84.069       14.764        0.031      333.224        2.398      861.022
12/14/2014  23:42:00       63.480       27.387        7.586       14.483       17.369       11.991      209.748      301.695      143.793        0.275        0.033       69.136        6.366        0.008      333.255        2.450      861.075
12/14/2014  23:43:00       61.051       33.513       16.368       18.533       17.011       15.746      343.480      289.382      247.946        0.300        0.044       69.645        5.639        0.007      333.270        2.473      861.121
12/14/2014  23:44:00       65.238       29.559       29.541       19.089       15.647       24.269      364.375      244.819      588.973        0.360        0.060       71.622       12.834        0.032      333.300        2.523      861.124
12/14/2014  23:45:00       85.142       32.607       12.939       38.690       31.640       24.800     1496.906     1001.066      615.043        0.580        0.156       91.173       11.216        0.015      333.324        2.565      861.092
12/14/2014  23:46:00       71.103       44.457        0.499       28.244       22.489       17.228      797.728      505.763      296.795        0.432        0.080       83.858        6.649        0.006      333.288        2.505      861.065
12/14/2014  23:47:00       96.083       89.154        7.665       34.232       20.104       29.691     1171.850      404.174      881.533        0.985        0.123      131.074       18.112        0.019      333.310        2.541      861.049
12/14/2014  23:48:00       89.675       52.995        6.100       29.475       27.715       17.889      868.785      768.111      320.006        0.642        0.098      104.164        7.787        0.006      333.290        2.508      861.037
12/14/2014  23:49:00       65.840       40.414       11.761       31.638       30.635       18.566     1000.979      938.485      344.684        0.419        0.114       77.254       13.138        0.029      333.284        2.497      861.037
12/14/2014  23:50:00      105.178       55.071       -2.017       28.719       20.608       22.131      824.780      424.700      489.782        0.792        0.087      118.723       18.907        0.025      333.258        2.453      861.032
12/14/2014  23:51:00       82.207       61.437        1.366       23.538       18.790       16.660      554.037      353.054      277.549        0.586        0.059      102.628        9.978        0.009      333.235        2.416      861.027
12/14/2014  23:52:00       82.095       46.968       11.100       18.178       20.143       16.937      330.442      405.751      286.857        0.505        0.051       94.581        9.161        0.009      333.200        2.357      861.021
12/14/2014  23:53:00      113.104       52.304       11.034       43.019       25.408       24.801     1850.670      645.582      615.090        0.938        0.156      124.612       26.841        0.046      333.203        2.364      861.023
12/14/2014  23:54:00       66.902       26.866        6.417       32.966       25.857       21.429     1086.778      668.559      459.200        0.373        0.111       72.094       16.570        0.053      333.203        2.364      861.020
12/14/2014  23:55:00       89.801       44.578        6.761       26.337       24.391       16.693      693.658      594.910      278.670        0.583        0.078      100.257       11.523        0.013      333.185        2.332      861.009
12/14/2014  23:56:00       77.275       60.384        9.264       16.912       13.458       15.918      286.018      181.122      253.373        0.521        0.036       98.070        8.546        0.008      333.170        2.308      861.000
12/14/2014  23:57:00       57.462       21.688        7.771       21.012       23.772       15.630      441.500      565.093      244.285        0.254        0.063       61.419        8.438        0.019      333.144        2.263      861.005
12/14/2014  23:58:00       69.958       32.631       -0.805       30.367       21.206       16.512      922.127      449.674      272.651        0.380        0.082       77.194       11.683        0.023      333.164        2.296      861.014
12/14/2014  23:59:00       73.116       29.577        3.745       16.086       16.711       15.473      258.766      279.272      239.415        0.351        0.039       78.871        9.788        0.015      333.180        2.324      861.032
